[[{"header":{"parameterUnit":"m.s-1","parameterCategory":2,"la1":30.8641,"la2":29.7642,"lo1":-88.4676,"lo2":-86.9344,"dx":0.0333,"dy":0.0333,"nx":47,"ny":34,"refTime":"2022-11-16T00:00:00:Z","depth":"0","parameterNumber":2,"parameterNumberName":"U-component_of_CURRENTS"},"data":[0,0,0,0,0,0,0,0,0,0,0,0,0,0,0,0,0,0,0,0,0,0,0,0,0,0,0,0,0,0,0,0,0,0,0,0,0,0,0,0,0,0,0,0,0,0,0,0,0,0,0,0,0,0,0,0,0,0,0,0,0,0,0,0,0,0,0,0,0,0,0,0,0,0,0,0,0,0,0,0,0,0,0,0,0,0,0,0,0,0,0,0,0,0,0,0,0,0,0,0,0,0,0,0,0,0,0,0,0,0,0,0,0,0,0,0,0,0,0,0,0,0,0,0,0,0,0,0,0,0,0,0,0,0,0,0,0,0,0,0,0,0,0,0,0,0,0,0,0,0,0,0,0,0,0,0,0,0,0,0,0,0,0,0,0,0,0,0,0,0,0,0,0,0,0,0,0,0,0,0,0,0,0,0,0,0,0,0,0,0,0,0,0,0,0,0,0,0,0,0,0,0,0,0,0,0,0,0,0,0,0,0,0,0,0,0,0,0,0,0,0,0,0,0,0,0,0,0,0,0,0,0,0,0,0,0,0,0,0,0,0,0,0,0,0,0,0,0,0,0,0,0,0,0,0,0,0,0,0,0,0,0,0,0,0,0,0,0,0,0,0,0,0,0,0,0,0,0,0,0,0,0,0,0,0,0,0,0,0,0,0,0,0,0,0,0,0.0758,0.1516,0,0,0,0,0,0,0,0,0,0,0,0,0,0,0,0,0,0,0,0,0,0,0,0,0,0,0,0,0,0,0,0,0,0,0,0,0,0,0,0,0,0,0,0,-0.0255,0.0621,0.1516,0.128,0,0,0,0,0,0,0,0,0,0,0,0,0,0,0,0,0,0,0,0,0,0,0,0,0,0,0,0,0,0,0,0,0,0,0,0,0,0,0,0,0,0,0,-0.031,-0.0332,0.0162,0.0365,0,0,0,0,0,0,0,0,0,0,0,0,0,0,0,0,0,0,0,0,0,0,0,0,0,0,0,0,0,0,0,0,0,0,0,0,0,0,0,0,0,0,-0.0126,-0.0393,-0.0632,-0.0439,-0.0146,0,0,0,0,0,0,0,0,0,0,0,0,0,0,0,0,0,0,0,0,0,0,0,0,0,0,0,0,0,0,0,0,0,0,0,0,0,0,0,0,0,0,-0.0104,-0.0423,-0.0629,-0.0505,-0.039,0,0,0,0,0,0,0,0,0,0,0,0,0,0,0,0,0,0,0,0,0,0,0,0,0,0,0,0,0,0,0,0,0,0,0,0,0,0,0,0,0,0,-0.0027,-0.0335,-0.0621,-0.0453,-0.028,0,0,0,0,0,0,0,0,0,0,0,0,0,0,0,0,0,0,0,0,0,0,0,0,0,0,0,0,0,0,0,0,0,0,0,0,0,0,0,0,0,0,-0.0088,-0.0483,-0.0629,-0.0398,-0.019,0,0,0,0,0,0,0,0,0,0,0,0,0,0,0,0,0,0,0,0,0,0,0,0,0,0,-0.0041,-0.0082,0,0,0,0,0,0,0,0,0,0,0,0,0,-0.0085,-0.0335,-0.0519,-0.0536,-0.0299,-0.0058,0,0,0,0,0,0,0,0,0,0,0,0,0,0,0,0,0,0,0,0,0,0,-0.0181,-0.0623,-0.0766,0.0261,0.0744,0.0316,0,0,0,0,0,0,0,0,0,0,0,0,0,-0.0044,-0.0264,-0.0478,-0.0533,-0.0242,0.0475,0.0882,0,0,0,0,0,0,0,0,0,0,0,0,0,0,0,0,0,0,0,0,0.0305,0.0549,0.0549,0.0615,0,0,0,0,0,0,0,0,0.0085,0.0181,0.019,0,0,0,0,0,0.0027,-0.0085,-0.0316,-0.0453,-0.0228,0.0269,0.0044,-0.0321,0,0,0,0,0,0,0,0,0,0,0,0,0,0,0,0,0,0,0.0442,0.0321,0,0,0,0,0,0,0,0.0201,0,0.0121,0.036,0.0456,0.0288,0.014,0,0,0,0,0,0.0088,0.0077,-0.014,-0.0308,-0.0148,0.0148,0.0014,-0.0126,-0.0047,0,0,0,0,0,0,0,0,0,0,0,0,0,0,0,0,0.0096,-0.033,0,0,-0.0102,-0.0071,0.0005,0.0113,0.0294,0.0563,0.0706,0.0181,0.0258,0.0231,0.0198,0.0093,0.0264,0.0761,0.1258,0.1827,0.1884,0.1555,0.0942,0.0135,-0.0132,-0.017,-0.0069,0.0225,0.0354,0.0228,0.0016,-0.0113,0,0,0,0,0,0,0,0,0,0,0,0,0.0217,0.056,0.0426,-0.0077,-0.0132,0.008,0.0113,0.0151,0.0225,0.0302,0.039,0.0486,0.0588,0.067,0.0036,-0.0239,-0.058,-0.0846,-0.0862,-0.0255,-0.0005,-0.0192,-0.0135,0,0,0,-0.017,-0.0439,-0.0434,-0.014,0.0434,0.0851,0.0722,0.0415,0.0269,0,0,0,0,0,0,0,0.0041,0.0151,0.028,0.0415,0.0607,0.0654,0.0519,0.0385,0.0291,0.0277,0.0297,0.0363,0.0453,0.0505,0.0549,0.0599,0.0645,0.0684,0.0706,-0.0165,-0.0585,-0.0857,-0.0689,-0.0486,0,0,-0.0357,-0.1096,-0.1404,-0.0873,-0.0168,0.0799,0.1522,0,0,0,0,0,0,0,0,-0.0025,-0.0038,0.0005,0.0077,0.0168,0.0288,0.0299,0.0266,0.0313,0.0343,0.0349,0.0341,0.0338,0.0352,0.0382,0.042,0.0434,0.0492,0.058,0.0632,0.0659,0.067,0.067,0.067,0.0676,0,0,-0.0283,-0.0742,-0.0794,-0.0456,-0.0203,-0.0341,-0.0596,-0.0481,0.0102,0.0486,0,0.0126,-0.0187,-0.0442,-0.0228,-0.0181,-0.0154,-0.0132,-0.0093,-0.0049,-0.0005,0.0025,0.0049,0.0091,0.0126,0.0148,0.0162,0.0176,0.0184,0.019,0.0203,0.0211,0.0222,0.0253,0.031,0.0374,0.042,0.0456,0.0492,0.053,0.0563,0.0585,0.0585,0.0566,0.0555,-0.0179,-0.0011,-0.0025,-0.0162,-0.0225,-0.033,-0.0591,-0.0838,-0.0923,-0.0909,-0.1016,-0.1321,-0.1404,-0.0678,-0.0154,-0.0239,-0.0198,-0.0181,-0.0162,-0.0132,-0.0099,-0.0069,-0.0033,0.0005,0.0041,0.0077,0.0104,0.0115,0.0121,0.0126,0.0126,0.0121,0.0113,0.0113,0.0129,0.0165,0.0211,0.0244,0.0264,0.0283,0.033,0.0393,0.0439,0.0448,0.0428,0.0396,0.0396,-0.0233,-0.0192,-0.0162,-0.0132,-0.0129,-0.0192,-0.0511,-0.0923,-0.1121,-0.1154,-0.1239,-0.1467,-0.1458,-0.1005,-0.045,-0.0209,-0.0198,-0.0184,-0.0168,-0.014,-0.0113,-0.0085,-0.0052,-0.0016,0.0016,0.0047,0.0074,0.0088,0.0093,0.0091,0.0077,0.0052,0.0025,0.0005,0.0003,0.0016,0.0044,0.0082,0.0129,0.017,0.0201,0.0214,0.0206,0.0159,0.0102,0.0011,0.0033,-0.0266,-0.0211,-0.0146,-0.0107,-0.0113,-0.0118,-0.0082,-0.0069,-0.0099,-0.0104,-0.0099,-0.0187,-0.0305,-0.0247,-0.0181,-0.0203,-0.0195,-0.0176,-0.0157,-0.0132,-0.011,-0.0088,-0.0066,-0.0041,-0.0016,0.0011,0.0036,0.0052,0.006,0.0052,0.0027,-0.0014,-0.0058,-0.0091,-0.0107,-0.0102,-0.0069,-0.0014,0.0044,0.0085,0.0104,0.0099,0.0066,0.0014,0.017,0.042,0.0522,-0.025,-0.0173,-0.0118,-0.0099,-0.0107,-0.0113,-0.0085,-0.0025,0.0016,0.0011,-0.0008,-0.0027,-0.0047,-0.0093,-0.0162,-0.0192,-0.0184,-0.0162,-0.014,-0.0118,-0.0099,-0.0085,-0.0071,-0.0055,-0.0038,-0.0022,-0.0003,0.0016,0.0027,0.0022,-0.0005,-0.0052,-0.0104,-0.0151,-0.0181,-0.0179,-0.0135,-0.0052,0.0052,0.0151,0.0211,0.0239,0.0255,0.0387,0.07,0.0926,0.0934,-0.0239,-0.0173,-0.0132,-0.0118,-0.0132,-0.0146,-0.0137,-0.0107,-0.0077,-0.006,-0.006,-0.0077,-0.011,-0.0148,-0.0176,-0.0181,-0.0173,-0.0151,-0.0129,-0.0104,-0.0082,-0.0071,-0.0066,-0.006,-0.0055,-0.0044,-0.0027,-0.0005,0.0011,0.0011,-0.0016,-0.0066,-0.0129,-0.0198,-0.0258,-0.0297,-0.031,-0.028,-0.0143,0.0077,0.0247,0.0396,0.0621,0.0967,0.1066,0.0868,0.072,-0.0239,-0.019,-0.0154,-0.0146,-0.0159,-0.0173,-0.0168,-0.0148,-0.0137,-0.0137,-0.0143,-0.0157,-0.0173,-0.0184,-0.0187,-0.0179,-0.0165,-0.014,-0.0113,-0.0085,-0.0063,-0.0052,-0.0047,-0.0049,-0.0052,-0.0049,-0.0041,-0.0019,0.0003,0.0003,-0.0033,-0.0096,-0.0179,-0.0269,-0.0382,-0.0547,-0.0742,-0.0777,-0.0497,-0.0033,0.0382,0.0791,0.0967,0.0832,0.0777,0.0689,0.0448,-0.0264,-0.022,-0.0176,-0.0143,-0.0135,-0.0146,-0.0159,-0.0168,-0.0173,-0.0187,-0.0201,-0.0211,-0.0217,-0.0211,-0.0195,-0.0176,-0.0154,-0.0129,-0.0099,-0.0066,-0.0041,-0.0022,-0.0019,-0.0025,-0.0033,-0.0036,-0.003,-0.0022,-0.0016,-0.003,-0.0077,-0.0146,-0.0228,-0.0332,-0.0508,-0.0755,-0.0898,-0.0665,-0.0261,0.0058,0.0445,0.0558,0.0522,0.058,0.0481,0.0288,0.0005,-0.0316,-0.0283,-0.0231,-0.0168,-0.011,-0.0085,-0.0104,-0.0148,-0.0187,-0.0209,-0.022,-0.022,-0.0217,-0.0206,-0.019,-0.0168,-0.0146,-0.0121,-0.0096,-0.0063,-0.0033,-0.0008,0.0003,-0.0003,-0.0014,-0.0019,-0.0022,-0.0027,-0.0049,-0.0091,-0.0146,-0.0206,-0.0264,-0.0302,-0.0319,-0.0286,-0.0165,0.0104,0.0264,0.006,-0.0016,0.0242,0.0439,0.0481,0.039,0.017,-0.0135,-0.0354,-0.0338,-0.0299,-0.0231,-0.0146,-0.008,-0.0074,-0.0115,-0.0168,-0.0198,-0.0206,-0.0203,-0.0195,-0.0192,-0.0184,-0.0165,-0.0146,-0.0126,-0.0104,-0.008,-0.0049,-0.0022,-0.0003,0.0003,-0.0005,-0.0016,-0.003,-0.0055,-0.0102,-0.017,-0.0242,-0.0297,-0.0316,-0.0286,-0.0168,0.0082,0.042,0.075,0.0821,0.0736,0.0692,0.0656,0.0667,0.0618,0.0483,0.0247,-0.0058,-0.0349,-0.0349,-0.0327,-0.028,-0.0209,-0.0135,-0.0096,-0.011,-0.0146,-0.0176,-0.019,-0.0192,-0.0192,-0.019,-0.0187,-0.0173,-0.0154,-0.0135,-0.0113,-0.0088,-0.0063,-0.0036,-0.0016,-0.0011,-0.0019,-0.0038,-0.0066,-0.0102,-0.0176,-0.0277,-0.0352,-0.0382,-0.0393,-0.0368,-0.0272,0.0071,0.0494,0.07,0.0934,0.1263,0.1318,0.1014,0.0747,0.0626,0.0481,0.0266,0.0047,-0.0299,-0.031,-0.0308,-0.0283,-0.0242,-0.0184,-0.0137,-0.0126,-0.0143,-0.0165,-0.0187,-0.0198,-0.0198,-0.0195,-0.019,-0.0179,-0.0162,-0.0137,-0.0107,-0.0071,-0.0041,-0.0019,-0.0011,-0.0016,-0.0036,-0.0069,-0.011,-0.0179,-0.0294,-0.0417,-0.0503,-0.0558,-0.0558,-0.0398,0.0005,0.011,0.028,0.0656,0.0788,0.0992,0.1209,0.1126,0.0808,0.0555,0.0305,0.0071,-0.0088,-0.0242,-0.0255,-0.0264,-0.0261,-0.0244,-0.0211,-0.0168,-0.014,-0.0146,-0.0165,-0.0184,-0.0195,-0.0195,-0.0192,-0.019,-0.0181,-0.0165,-0.0137,-0.0096,-0.0052,-0.0011,0.0014,0.0019,0.0003,-0.0027,-0.0077,-0.0148,-0.0272,-0.045,-0.0665,-0.0854,-0.0799,-0.0371,0.003,0.0173,0.0107,0.0146,0.0412,0.0607,0.0733,0.0923,0.1005,0.0805,0.0475,0.0126,-0.0165,-0.033,-0.0184,-0.0225,-0.0258,-0.0269,-0.0255,-0.0225,-0.0187,-0.0157,-0.0148,-0.0159,-0.0173,-0.0181,-0.0181,-0.0181,-0.0181,-0.0181,-0.017,-0.0143,-0.0099,-0.0047,0.0003,0.0036,0.0041,0.0025,-0.0003,-0.0052,-0.0168,-0.0409,-0.0766,-0.1126,-0.1008,-0.0478,-0.0154,-0.0027,-0.0005,-0.0016,0.0044,0.0157,0.0332,0.0434,0.0511,0.0626,0.0618,0.0401,0.0071,-0.017,-0.0258]},{"header":{"parameterUnit":"m.s-1","parameterCategory":2,"la1":30.8641,"la2":29.7642,"lo1":-88.4676,"lo2":-86.9344,"dx":0.0333,"dy":0.0333,"nx":47,"ny":34,"refTime":"2022-11-16T00:00:00:Z","depth":"0","parameterNumber":3,"parameterNumberName":"V-component_of_CURRENTS"},"data":[0,0,0,0,0,0,0,0,0,0,0,0,0,0,0,0,0,0,0,0,0,0,0,0,0,0,0,0,0,0,0,0,0,0,0,0,0,0,0,0,0,0,0,0,0,0,0,0,0,0,0,0,0,0,0,0,0,0,0,0,0,0,0,0,0,0,0,0,0,0,0,0,0,0,0,0,0,0,0,0,0,0,0,0,0,0,0,0,0,0,0,0,0,0,0,0,0,0,0,0,0,0,0,0,0,0,0,0,0,0,0,0,0,0,0,0,0,0,0,0,0,0,0,0,0,0,0,0,0,0,0,0,0,0,0,0,0,0,0,0,0,0,0,0,0,0,0,0,0,0,0,0,0,0,0,0,0,0,0,0,0,0,0,0,0,0,0,0,0,0,0,0,0,0,0,0,0,0,0,0,0,0,0,0,0,0,0,0,0,0,0,0,0,0,0,0,0,0,0,0,0,0,0,0,0,0,0,0,0,0,0,0,0,0,0,0,0,0,0,0,0,0,0,0,0,0,0,0,0,0,0,0,0,0,0,0,0,0,0,0,0,0,0,0,0,0,0,0,0,0,0,0,0,0,0,0,0,0,0,0,0,0,0,0,0,0,0,0,0,0,0,0,0,0,0,0,0,0,0,0,0,0,0,0,0,0,0,0,0,0,0,0,0,0,0,0,0.0371,-0.1664,0,0,0,0,0,0,0,0,0,0,0,0,0,0,0,0,0,0,0,0,0,0,0,0,0,0,0,0,0,0,0,0,0,0,0,0,0,0,0,0,0,0,0,0,-0.0645,-0.0522,-0.214,-0.1711,0,0,0,0,0,0,0,0,0,0,0,0,0,0,0,0,0,0,0,0,0,0,0,0,0,0,0,0,0,0,0,0,0,0,0,0,0,0,0,0,0,0,0,-0.0832,-0.1134,-0.2304,-0.1772,0,0,0,0,0,0,0,0,0,0,0,0,0,0,0,0,0,0,0,0,0,0,0,0,0,0,0,0,0,0,0,0,0,0,0,0,0,0,0,0,0,0,-0.0461,-0.0786,-0.0591,-0.1684,-0.1887,0,0,0,0,0,0,0,0,0,0,0,0,0,0,0,0,0,0,0,0,0,0,0,0,0,0,0,0,0,0,0,0,0,0,0,0,0,0,0,0,0,0,-0.0404,-0.036,-0.0277,-0.1351,-0.1805,0,0,0,0,0,0,0,0,0,0,0,0,0,0,0,0,0,0,0,0,0,0,0,0,0,0,0,0,0,0,0,0,0,0,0,0,0,0,0,0,0,0,-0.0299,-0.0022,-0.0269,-0.1313,-0.1546,0,0,0,0,0,0,0,0,0,0,0,0,0,0,0,0,0,0,0,0,0,0,0,0,0,0,0,0,0,0,0,0,0,0,0,0,0,0,0,0,0,0,-0.0192,0.0066,-0.0354,-0.1247,-0.145,0,0,0,0,0,0,0,0,0,0,0,0,0,0,0,0,0,0,0,0,0,0,0,0,0,0,-0.0041,0.0137,0,0,0,0,0,0,0,0,0,0,0,0,0,-0.0165,-0.0118,0.0063,-0.0327,-0.1107,-0.1596,0,0,0,0,0,0,0,0,0,0,0,0,0,0,0,0,0,0,0,0,0,0,-0.0428,-0.0302,0.0431,0.0,-0.0022,0.0069,0,0,0,0,0,0,0,0,0,0,0,0,0,-0.003,0.003,0.0253,-0.0222,-0.092,-0.1623,-0.1678,0,0,0,0,0,0,0,0,0,0,0,0,0,0,0,0,0,0,0,0,0.0547,-0.0214,-0.0151,0.0214,0,0,0,0,0,0,0,0,0.0231,0.0047,-0.0233,0,0,0,0,0,0.0047,0.0461,0.0437,-0.0187,-0.0764,-0.1524,-0.1615,0.0137,0,0,0,0,0,0,0,0,0,0,0,0,0,0,0,0,0,0,-0.0489,0.0275,0,0,0,0,0,0,0,0.0327,0,0.0269,0.0236,0.0266,-0.0005,-0.0591,0,0,0,0,0,0.0203,0.1035,0.0445,-0.0247,-0.0794,-0.1409,-0.12,0.0214,0.0308,0,0,0,0,0,0,0,0,0,0,0,0,0,0,0,0,0.0157,-0.0623,0,0,-0.0151,-0.0069,-0.0052,0.0025,0.0124,0.0211,0.028,0.0173,0.0283,0.0305,0.0255,-0.019,-0.095,-0.0797,-0.0695,0.0049,0.0,0.0,0.0179,0.1104,0.0412,-0.0379,-0.0871,-0.1198,-0.0629,0.0201,0.0244,0.0102,0,0,0,0,0,0,0,0,0,0,0,0,0.0297,0.0066,0.0195,-0.0409,-0.0588,0.0132,-0.0211,-0.0099,-0.003,0.0,0.008,0.0179,0.0253,0.0247,0.0154,0.0157,0.0305,-0.0047,-0.0489,-0.0478,-0.0398,0.0036,0.0225,0,0,0,0.0005,0.0651,-0.0222,-0.0428,-0.0549,-0.0206,0.0058,0.006,0.0049,0,0,0,0,0,0,0,0.0184,-0.0165,0.003,0.0049,0.0091,0.0187,-0.0005,-0.0115,-0.0393,-0.0217,0.0129,-0.0104,-0.0014,0.0025,0.0071,0.0159,0.0255,0.0302,0.0253,0.0069,0.0008,0.0508,-0.0148,-0.0349,0,0,0.0643,0.0225,-0.0448,-0.0423,-0.0349,-0.0442,0.0143,0,0,0,0,0,0,0,0,-0.0143,-0.0027,0.0003,0.0008,0.0036,0.0044,0.0135,-0.003,0.0055,0.0066,0.0088,0.0058,-0.0063,-0.0124,-0.0151,0.0011,0.0107,0.0036,0.0041,0.0055,0.0107,0.0201,0.028,0.0302,0.0244,0,0,0.0571,0.0077,0.0225,0.0346,0.0093,0.0206,-0.0003,-0.0412,-0.0437,-0.0357,0,-0.0808,-0.142,0.0203,-0.006,-0.0069,-0.0102,-0.0099,-0.0085,-0.0077,-0.011,-0.0011,0.0022,0.003,0.0049,0.0047,0.0033,0.0019,0.0066,0.0071,0.0066,0.0016,-0.0052,-0.008,-0.0049,0.0044,0.0102,0.0107,0.0093,0.0104,0.0151,0.022,0.0264,0.0264,0.0222,0.0033,0.0074,0.0244,0.0192,0.0426,0.031,0.0011,-0.0198,-0.0173,-0.0376,-0.0404,-0.0445,-0.0978,-0.1154,-0.095,0.0179,-0.0038,-0.0055,-0.0082,-0.008,-0.0066,-0.0058,-0.0049,0.0022,0.0049,0.0063,0.006,0.0047,0.0025,0.0022,0.0036,0.0038,0.0016,-0.0027,-0.0063,-0.006,-0.0005,0.0069,0.0126,0.0151,0.0157,0.0162,0.0179,0.0206,0.0214,0.0201,0.0217,0.0074,0.0107,0.014,0.0239,0.0302,0.0211,-0.0063,-0.0231,-0.0129,-0.0066,-0.0055,-0.0335,-0.0728,-0.0772,-0.0096,0.0129,0.0003,-0.0027,-0.0047,-0.0044,-0.0036,-0.0025,-0.0003,0.0041,0.0069,0.0074,0.006,0.0041,0.0022,0.0011,0.0,-0.0016,-0.0038,-0.0063,-0.0077,-0.0049,0.0014,0.0091,0.0148,0.0176,0.0184,0.0179,0.0151,0.0126,0.0137,0.0148,0.0217,0.014,0.0165,0.0187,0.0231,0.0217,0.0143,-0.0003,-0.0071,0.0115,0.0291,0.0286,0.0022,-0.0173,-0.0041,0.0239,0.0102,0.003,0.0,-0.0016,-0.0019,-0.0014,-0.0003,0.0016,0.0049,0.0069,0.0077,0.006,0.0038,0.0019,-0.0011,-0.0044,-0.0077,-0.0096,-0.0113,-0.0107,-0.0066,0.0019,0.0118,0.0181,0.0184,0.0157,0.0132,0.0074,0.0049,0.0093,0.0036,-0.0135,0.019,0.0203,0.0203,0.0192,0.0162,0.0124,0.0074,0.0077,0.0201,0.0302,0.028,0.0176,0.0124,0.0151,0.0154,0.0088,0.0047,0.0016,0.0003,-0.0003,-0.0003,0.0005,0.0022,0.0044,0.006,0.0069,0.006,0.0041,0.0014,-0.0038,-0.0099,-0.0148,-0.0179,-0.0187,-0.0159,-0.0071,0.0074,0.0222,0.0297,0.0255,0.0154,0.0093,0.0049,-0.0016,-0.019,-0.031,-0.0566,0.0231,0.0222,0.0192,0.0143,0.0104,0.0093,0.0099,0.0132,0.0195,0.0239,0.0206,0.0129,0.0091,0.0096,0.0099,0.0077,0.0052,0.003,0.0019,0.0014,0.0008,0.0008,0.0016,0.003,0.0044,0.0055,0.0055,0.0044,0.0005,-0.0074,-0.0168,-0.0233,-0.0269,-0.0266,-0.0201,-0.0049,0.0159,0.0365,0.0508,0.0478,0.0324,0.0297,0.0052,-0.0135,-0.0244,-0.0319,-0.0445,0.0272,0.025,0.0195,0.0121,0.0071,0.0069,0.0099,0.0137,0.0176,0.019,0.0151,0.0088,0.006,0.0071,0.0082,0.0074,0.006,0.0047,0.0041,0.003,0.0016,0.0008,0.0003,0.0008,0.0022,0.0036,0.0047,0.0038,-0.0022,-0.0132,-0.0247,-0.0324,-0.0357,-0.0341,-0.0261,-0.0129,0.008,0.0417,0.0736,0.0766,0.0464,0.0201,0.0135,0.0052,0.011,0.0014,-0.0173,0.0302,0.028,0.0225,0.0148,0.0091,0.0077,0.0096,0.0124,0.0146,0.0146,0.0115,0.0074,0.0055,0.0074,0.0085,0.008,0.0069,0.0063,0.006,0.0049,0.003,0.0005,-0.0014,-0.0019,-0.0005,0.0014,0.0036,0.0011,-0.0088,-0.0231,-0.0346,-0.0407,-0.0426,-0.0423,-0.0417,-0.0387,-0.0126,0.0503,0.0895,0.0884,0.0519,0.0146,0.0203,0.0299,0.0247,0.0135,-0.003,0.0308,0.0297,0.0264,0.0209,0.0151,0.0104,0.0082,0.0088,0.0107,0.011,0.0088,0.0069,0.0063,0.008,0.0091,0.0091,0.0082,0.0077,0.0077,0.0066,0.0044,0.0008,-0.0027,-0.0041,-0.003,-0.0003,0.0011,-0.0049,-0.0201,-0.036,-0.0431,-0.0448,-0.045,-0.0464,-0.0511,-0.0494,-0.008,0.0684,0.0978,0.1096,0.0901,0.0459,0.0121,0.0121,0.011,0.0047,-0.0008,0.0291,0.0294,0.0283,0.0258,0.0211,0.014,0.0071,0.0049,0.0066,0.008,0.0071,0.0063,0.0069,0.0088,0.0102,0.0104,0.0096,0.0091,0.0088,0.0077,0.0052,0.0005,-0.0038,-0.0058,-0.0049,-0.0025,-0.0038,-0.0148,-0.0349,-0.047,-0.0464,-0.0439,-0.0428,-0.042,-0.0357,-0.0071,0.0387,0.0849,0.0964,0.1074,0.0986,0.0335,-0.0184,-0.0385,-0.042,-0.0445,-0.0407,0.0261,0.0275,0.0283,0.0277,0.0244,0.0168,0.0077,0.003,0.0038,0.0055,0.006,0.0063,0.0074,0.0093,0.0113,0.0118,0.0113,0.0102,0.0093,0.008,0.0044,-0.0005,-0.0052,-0.0074,-0.0071,-0.0071,-0.0135,-0.0302,-0.0489,-0.0505,-0.0442,-0.0412,-0.0393,-0.0283,0.0027,0.0291,0.0706,0.0777,0.061,0.0464,0.0483,-0.0038,-0.0709,-0.1112,-0.1247,-0.1291,-0.1206,0.0231,0.0255,0.0269,0.0272,0.025,0.0181,0.0096,0.0036,0.0025,0.0038,0.0055,0.0066,0.0082,0.0104,0.0121,0.0126,0.0121,0.0113,0.0102,0.0082,0.0041,-0.0014,-0.0063,-0.0093,-0.0107,-0.0154,-0.0283,-0.0478,-0.056,-0.0503,-0.0437,-0.0354,-0.0176,-0.0005,0.0154,0.0228,0.0525,0.0615,0.0308,0.008,0.0132,-0.028,-0.1132,-0.178,-0.2046,-0.2126,-0.2024,0.0206,0.0239,0.0258,0.0261,0.0233,0.0176,0.0113,0.0055,0.0027,0.0033,0.0052,0.0069,0.0088,0.0104,0.0115,0.0121,0.0124,0.0124,0.0118,0.0096,0.0055,-0.0008,-0.0066,-0.0115,-0.0168,-0.0269,-0.0453,-0.0615,-0.0613,-0.0519,-0.0143,0.0143,0.0165,0.008,-0.0052,0.0146,0.0349,0.0582,0.0299,-0.0016,0.0,-0.0368,-0.1302,-0.2129,-0.2469,-0.2491,-0.2324,0.017,0.0211,0.0242,0.025,0.0217,0.0165,0.0118,0.0077,0.0044,0.0036,0.0055,0.0069,0.0082,0.0091,0.0093,0.0102,0.0118,0.0135,0.0143,0.0124,0.0082,0.0014,-0.006,-0.0137,-0.0247,-0.0407,-0.0626,-0.0775,-0.0766,-0.0341,0.0272,0.0332,0.0069,-0.0132,-0.0126,0.0011,0.0324,0.0566,0.028,-0.0093,-0.0113,-0.0423,-0.1313,-0.2195,-0.2585,-0.2532,-0.2296]}],[{"header":{"parameterUnit":"m.s-1","parameterCategory":2,"la1":30.8641,"la2":29.7642,"lo1":-88.4676,"lo2":-86.9344,"dx":0.0333,"dy":0.0333,"nx":47,"ny":34,"refTime":"2022-11-16T00:00:00:Z","depth":"2","parameterNumber":2,"parameterNumberName":"U-component_of_CURRENTS"},"data":[0,0,0,0,0,0,0,0,0,0,0,0,0,0,0,0,0,0,0,0,0,0,0,0,0,0,0,0,0,0,0,0,0,0,0,0,0,0,0,0,0,0,0,0,0,0,0,0,0,0,0,0,0,0,0,0,0,0,0,0,0,0,0,0,0,0,0,0,0,0,0,0,0,0,0,0,0,0,0,0,0,0,0,0,0,0,0,0,0,0,0,0,0,0,0,0,0,0,0,0,0,0,0,0,0,0,0,0,0,0,0,0,0,0,0,0,0,0,0,0,0,0,0,0,0,0,0,0,0,0,0,0,0,0,0,0,0,0,0,0,0,0,0,0,0,0,0,0,0,0,0,0,0,0,0,0,0,0,0,0,0,0,0,0,0,0,0,0,0,0,0,0,0,0,0,0,0,0,0,0,0,0,0,0,0,0,0,0,0,0,0,0,0,0,0,0,0,0,0,0,0,0,0,0,0,0,0,0,0,0,0,0,0,0,0,0,0,0,0,0,0,0,0,0,0,0,0,0,0,0,0,0,0,0,0,0,0,0,0,0,0,0,0,0,0,0,0,0,0,0,0,0,0,0,0,0,0,0,0,0,0,0,0,0,0,0,0,0,0,0,0,0,0,0,0,0,0,0,0,0,0,0,0,0,0,0,0,0,0,0,0,0,0,0,0,0,0.0593,0.1184,0,0,0,0,0,0,0,0,0,0,0,0,0,0,0,0,0,0,0,0,0,0,0,0,0,0,0,0,0,0,0,0,0,0,0,0,0,0,0,0,0,0,0,0,-0.0019,0.0294,0.0541,0.0453,0,0,0,0,0,0,0,0,0,0,0,0,0,0,0,0,0,0,0,0,0,0,0,0,0,0,0,0,0,0,0,0,0,0,0,0,0,0,0,0,0,0,0,-0.0225,-0.0299,0.0055,0.0261,0,0,0,0,0,0,0,0,0,0,0,0,0,0,0,0,0,0,0,0,0,0,0,0,0,0,0,0,0,0,0,0,0,0,0,0,0,0,0,0,0,0,-0.0124,-0.0365,-0.0596,-0.0437,-0.0165,0,0,0,0,0,0,0,0,0,0,0,0,0,0,0,0,0,0,0,0,0,0,0,0,0,0,0,0,0,0,0,0,0,0,0,0,0,0,0,0,0,0,-0.0113,-0.0417,-0.061,-0.0508,-0.0407,0,0,0,0,0,0,0,0,0,0,0,0,0,0,0,0,0,0,0,0,0,0,0,0,0,0,0,0,0,0,0,0,0,0,0,0,0,0,0,0,0,0,-0.0038,-0.0341,-0.0613,-0.0461,-0.0299,0,0,0,0,0,0,0,0,0,0,0,0,0,0,0,0,0,0,0,0,0,0,0,0,0,0,0,0,0,0,0,0,0,0,0,0,0,0,0,0,0,0,-0.0088,-0.0478,-0.0623,-0.0407,-0.0206,0,0,0,0,0,0,0,0,0,0,0,0,0,0,0,0,0,0,0,0,0,0,0,0,0,0,-0.0041,-0.008,0,0,0,0,0,0,0,0,0,0,0,0,0,-0.0091,-0.0338,-0.0508,-0.053,-0.0308,-0.0077,0,0,0,0,0,0,0,0,0,0,0,0,0,0,0,0,0,0,0,0,0,0,-0.0181,-0.0615,-0.0563,0.0308,0.0591,0.0305,0,0,0,0,0,0,0,0,0,0,0,0,0,-0.0052,-0.0266,-0.0459,-0.0519,-0.0247,0.0396,0.0742,0,0,0,0,0,0,0,0,0,0,0,0,0,0,0,0,0,0,0,0,0.0302,0.0544,0.0541,0.0599,0,0,0,0,0,0,0,0,0.0085,0.0179,0.019,0,0,0,0,0,0.0016,-0.0091,-0.0297,-0.0437,-0.0233,0.0206,-0.0038,-0.0357,0,0,0,0,0,0,0,0,0,0,0,0,0,0,0,0,0,0,0.0448,0.033,0,0,0,0,0,0,0,0.0198,0,0.0115,0.0349,0.0445,0.0283,0.014,0,0,0,0,0,0.008,0.0074,-0.0126,-0.0291,-0.0157,0.011,-0.0014,-0.0135,-0.0055,0,0,0,0,0,0,0,0,0,0,0,0,0,0,0,0,0.0096,-0.0324,0,0,-0.0107,-0.0077,0.0,0.0107,0.0288,0.0555,0.0698,0.0168,0.0244,0.0225,0.0192,0.0088,0.0258,0.0747,0.1241,0.1802,0.1849,0.1522,0.0931,0.0137,-0.0129,-0.0165,-0.0077,0.0203,0.0335,0.022,0.0005,-0.0121,0,0,0,0,0,0,0,0,0,0,0,0,0.0209,0.0544,0.0412,-0.008,-0.0146,0.0069,0.0107,0.0146,0.022,0.0297,0.0385,0.0481,0.0582,0.0662,0.0025,-0.0242,-0.0577,-0.084,-0.0862,-0.0272,-0.0033,-0.0209,-0.0148,0,0,0,-0.0173,-0.042,-0.0417,-0.0154,0.0417,0.0835,0.0706,0.0401,0.0258,0,0,0,0,0,0,0,0.0036,0.014,0.0266,0.0401,0.0591,0.0634,0.0503,0.0374,0.0283,0.0272,0.0291,0.0354,0.0448,0.05,0.0541,0.0591,0.0637,0.0676,0.0695,-0.0176,-0.0588,-0.0851,-0.0681,-0.0481,0,0,-0.0349,-0.1016,-0.1222,-0.0503,0.0239,0.095,0.1519,0,0,0,0,0,0,0,0,-0.003,-0.0047,-0.0003,0.0069,0.0159,0.028,0.0288,0.0253,0.0299,0.033,0.0338,0.033,0.0327,0.0341,0.0374,0.0412,0.0426,0.0481,0.0571,0.0623,0.0654,0.0665,0.0665,0.0662,0.0667,0,0,-0.0286,-0.0744,-0.0802,-0.0461,-0.0201,-0.033,-0.0566,-0.0426,0.0137,0.05,0,0.006,-0.0244,-0.0445,-0.0236,-0.019,-0.0162,-0.014,-0.0102,-0.0058,-0.0016,0.0014,0.0041,0.0082,0.0118,0.014,0.0151,0.0165,0.0176,0.0181,0.0192,0.0201,0.0211,0.0244,0.0302,0.0365,0.0409,0.0448,0.0486,0.0525,0.056,0.058,0.058,0.056,0.0547,-0.0181,-0.0014,-0.003,-0.017,-0.0233,-0.0332,-0.0582,-0.0829,-0.0917,-0.0906,-0.1014,-0.131,-0.139,-0.0695,-0.017,-0.0236,-0.0209,-0.019,-0.0168,-0.014,-0.0107,-0.0077,-0.0041,-0.0003,0.0033,0.0069,0.0096,0.0107,0.0113,0.0118,0.0118,0.0113,0.0104,0.0104,0.0121,0.0157,0.0203,0.0236,0.0255,0.0277,0.0324,0.039,0.0434,0.0445,0.0423,0.039,0.0393,-0.0236,-0.0195,-0.0165,-0.0135,-0.0135,-0.0198,-0.0511,-0.092,-0.1121,-0.1156,-0.1236,-0.1458,-0.145,-0.1011,-0.0456,-0.0214,-0.0206,-0.0192,-0.0173,-0.0148,-0.0121,-0.0093,-0.0058,-0.0022,0.0008,0.0041,0.0066,0.008,0.0085,0.0082,0.0069,0.0044,0.0016,-0.0003,-0.0005,0.0008,0.0036,0.0077,0.0124,0.0168,0.0198,0.0211,0.0203,0.0159,0.0099,0.0011,0.0033,-0.0266,-0.0209,-0.0148,-0.011,-0.0115,-0.0121,-0.0088,-0.0071,-0.0102,-0.011,-0.0107,-0.0192,-0.0308,-0.025,-0.0187,-0.0211,-0.0201,-0.0184,-0.0162,-0.0137,-0.0115,-0.0093,-0.0071,-0.0049,-0.0022,0.0003,0.0027,0.0044,0.0052,0.0044,0.0016,-0.0022,-0.0066,-0.0099,-0.0118,-0.011,-0.0074,-0.0019,0.0041,0.0085,0.0104,0.0099,0.0066,0.0014,0.0173,0.042,0.0525,-0.0247,-0.0173,-0.0118,-0.0099,-0.0107,-0.0115,-0.0088,-0.0027,0.0014,0.0008,-0.0016,-0.0036,-0.0055,-0.0102,-0.0165,-0.0198,-0.019,-0.0168,-0.0146,-0.0121,-0.0104,-0.0091,-0.0077,-0.006,-0.0044,-0.003,-0.0008,0.0008,0.0019,0.0014,-0.0014,-0.006,-0.0115,-0.0162,-0.0192,-0.0187,-0.014,-0.0055,0.0052,0.0154,0.0217,0.0242,0.0258,0.0387,0.0703,0.0928,0.0937,-0.0236,-0.017,-0.0129,-0.0118,-0.0129,-0.0143,-0.0137,-0.0107,-0.0077,-0.0063,-0.0066,-0.0085,-0.0115,-0.0154,-0.0181,-0.0187,-0.0176,-0.0157,-0.0132,-0.0107,-0.0088,-0.0077,-0.0071,-0.0066,-0.006,-0.0049,-0.0033,-0.0014,0.0003,0.0003,-0.0027,-0.0077,-0.014,-0.0209,-0.0266,-0.0305,-0.0313,-0.0277,-0.014,0.008,0.025,0.0398,0.0626,0.097,0.1071,0.0871,0.0725,-0.0233,-0.0187,-0.0151,-0.0143,-0.0157,-0.017,-0.0165,-0.0148,-0.0137,-0.0137,-0.0146,-0.0159,-0.0176,-0.0187,-0.019,-0.0181,-0.0168,-0.0143,-0.0118,-0.0091,-0.0069,-0.0055,-0.0052,-0.0055,-0.0058,-0.0055,-0.0047,-0.0027,-0.0008,-0.0011,-0.0047,-0.011,-0.019,-0.028,-0.0387,-0.0547,-0.0739,-0.0769,-0.0492,-0.0027,0.0387,0.0797,0.0972,0.0835,0.0783,0.0692,0.0453,-0.0255,-0.0214,-0.0173,-0.0143,-0.0132,-0.014,-0.0154,-0.0162,-0.017,-0.0187,-0.0203,-0.0214,-0.0217,-0.0211,-0.0195,-0.0179,-0.0157,-0.0129,-0.0102,-0.0071,-0.0044,-0.0027,-0.0025,-0.003,-0.0038,-0.0041,-0.0036,-0.0027,-0.0027,-0.0044,-0.0091,-0.0159,-0.0236,-0.0341,-0.0511,-0.0753,-0.089,-0.0659,-0.0255,0.0066,0.0453,0.0563,0.053,0.0585,0.0486,0.0297,0.0011,-0.0308,-0.0275,-0.0225,-0.0165,-0.0107,-0.0082,-0.0099,-0.0143,-0.0181,-0.0206,-0.0217,-0.022,-0.0214,-0.0206,-0.0187,-0.0168,-0.0146,-0.0124,-0.0096,-0.0066,-0.0036,-0.0014,-0.0003,-0.0008,-0.0019,-0.0025,-0.0027,-0.0036,-0.006,-0.0104,-0.0159,-0.022,-0.0272,-0.0308,-0.0321,-0.0286,-0.0162,0.011,0.0272,0.0074,-0.0005,0.025,0.0448,0.0486,0.0398,0.0179,-0.0126,-0.0343,-0.0327,-0.0291,-0.0222,-0.014,-0.0077,-0.0069,-0.011,-0.0162,-0.0192,-0.0203,-0.0198,-0.0192,-0.0187,-0.0181,-0.0165,-0.0146,-0.0126,-0.0104,-0.008,-0.0055,-0.0027,-0.0011,-0.0005,-0.0011,-0.0025,-0.0038,-0.0066,-0.0115,-0.0184,-0.0255,-0.0305,-0.0321,-0.0288,-0.017,0.0082,0.0423,0.0753,0.0827,0.0747,0.0703,0.0667,0.0678,0.0629,0.0492,0.0255,-0.0047,-0.0335,-0.0335,-0.0313,-0.0269,-0.0201,-0.0129,-0.0093,-0.0104,-0.014,-0.0168,-0.0184,-0.0187,-0.0187,-0.0187,-0.0181,-0.017,-0.0151,-0.0132,-0.0113,-0.0088,-0.0063,-0.0041,-0.0022,-0.0016,-0.0025,-0.0047,-0.0074,-0.0115,-0.0192,-0.0291,-0.0363,-0.0387,-0.0396,-0.0368,-0.0269,0.0074,0.0497,0.0706,0.0937,0.1269,0.1329,0.1025,0.0758,0.0637,0.0492,0.0277,0.0058,-0.0286,-0.0294,-0.0291,-0.0269,-0.0228,-0.0176,-0.0132,-0.0118,-0.0135,-0.0157,-0.0176,-0.0187,-0.019,-0.019,-0.0184,-0.0176,-0.0157,-0.0135,-0.0104,-0.0071,-0.0044,-0.0022,-0.0016,-0.0022,-0.0041,-0.0077,-0.0124,-0.0195,-0.031,-0.0428,-0.0508,-0.056,-0.0558,-0.0398,0.0005,0.0113,0.0286,0.0659,0.0794,0.1,0.1217,0.114,0.0824,0.0569,0.0316,0.0082,-0.0077,-0.0225,-0.0239,-0.0244,-0.0242,-0.0228,-0.0198,-0.0159,-0.0135,-0.0137,-0.0154,-0.0173,-0.0184,-0.0187,-0.0184,-0.0181,-0.0176,-0.0159,-0.0132,-0.0093,-0.0049,-0.0014,0.0011,0.0014,0.0,-0.0033,-0.0085,-0.0165,-0.0286,-0.0464,-0.0673,-0.0854,-0.0799,-0.0371,0.0027,0.0173,0.011,0.0151,0.0417,0.0613,0.0742,0.0931,0.1019,0.0821,0.0489,0.014,-0.0151,-0.0316,-0.017,-0.0209,-0.0236,-0.0247,-0.0236,-0.0206,-0.0173,-0.0146,-0.0137,-0.0146,-0.0159,-0.0168,-0.017,-0.017,-0.0173,-0.0173,-0.0165,-0.0137,-0.0093,-0.0044,0.0,0.0033,0.0038,0.0022,-0.0008,-0.0063,-0.0184,-0.0423,-0.0772,-0.1126,-0.1005,-0.0478,-0.0154,-0.003,-0.0008,-0.0014,0.0049,0.0165,0.0338,0.0439,0.0519,0.0637,0.0634,0.042,0.0088,-0.0154,-0.0242]},{"header":{"parameterUnit":"m.s-1","parameterCategory":2,"la1":30.8641,"la2":29.7642,"lo1":-88.4676,"lo2":-86.9344,"dx":0.0333,"dy":0.0333,"nx":47,"ny":34,"refTime":"2022-11-16T00:00:00:Z","depth":"2","parameterNumber":3,"parameterNumberName":"V-component_of_CURRENTS"},"data":[0,0,0,0,0,0,0,0,0,0,0,0,0,0,0,0,0,0,0,0,0,0,0,0,0,0,0,0,0,0,0,0,0,0,0,0,0,0,0,0,0,0,0,0,0,0,0,0,0,0,0,0,0,0,0,0,0,0,0,0,0,0,0,0,0,0,0,0,0,0,0,0,0,0,0,0,0,0,0,0,0,0,0,0,0,0,0,0,0,0,0,0,0,0,0,0,0,0,0,0,0,0,0,0,0,0,0,0,0,0,0,0,0,0,0,0,0,0,0,0,0,0,0,0,0,0,0,0,0,0,0,0,0,0,0,0,0,0,0,0,0,0,0,0,0,0,0,0,0,0,0,0,0,0,0,0,0,0,0,0,0,0,0,0,0,0,0,0,0,0,0,0,0,0,0,0,0,0,0,0,0,0,0,0,0,0,0,0,0,0,0,0,0,0,0,0,0,0,0,0,0,0,0,0,0,0,0,0,0,0,0,0,0,0,0,0,0,0,0,0,0,0,0,0,0,0,0,0,0,0,0,0,0,0,0,0,0,0,0,0,0,0,0,0,0,0,0,0,0,0,0,0,0,0,0,0,0,0,0,0,0,0,0,0,0,0,0,0,0,0,0,0,0,0,0,0,0,0,0,0,0,0,0,0,0,0,0,0,0,0,0,0,0,0,0,0,0.0887,-0.1327,0,0,0,0,0,0,0,0,0,0,0,0,0,0,0,0,0,0,0,0,0,0,0,0,0,0,0,0,0,0,0,0,0,0,0,0,0,0,0,0,0,0,0,0,-0.0239,0.0341,-0.136,-0.0816,0,0,0,0,0,0,0,0,0,0,0,0,0,0,0,0,0,0,0,0,0,0,0,0,0,0,0,0,0,0,0,0,0,0,0,0,0,0,0,0,0,0,0,-0.0368,-0.0275,-0.1423,-0.1244,0,0,0,0,0,0,0,0,0,0,0,0,0,0,0,0,0,0,0,0,0,0,0,0,0,0,0,0,0,0,0,0,0,0,0,0,0,0,0,0,0,0,-0.0393,-0.0401,-0.0222,-0.1299,-0.1752,0,0,0,0,0,0,0,0,0,0,0,0,0,0,0,0,0,0,0,0,0,0,0,0,0,0,0,0,0,0,0,0,0,0,0,0,0,0,0,0,0,0,-0.033,-0.0173,-0.0093,-0.117,-0.1692,0,0,0,0,0,0,0,0,0,0,0,0,0,0,0,0,0,0,0,0,0,0,0,0,0,0,0,0,0,0,0,0,0,0,0,0,0,0,0,0,0,0,-0.0201,0.0099,-0.0137,-0.1178,-0.1431,0,0,0,0,0,0,0,0,0,0,0,0,0,0,0,0,0,0,0,0,0,0,0,0,0,0,0,0,0,0,0,0,0,0,0,0,0,0,0,0,0,0,-0.0071,0.0187,-0.0225,-0.1115,-0.1305,0,0,0,0,0,0,0,0,0,0,0,0,0,0,0,0,0,0,0,0,0,0,0,0,0,0,0.0038,0.0192,0,0,0,0,0,0,0,0,0,0,0,0,0,-0.006,0.0011,0.0203,-0.0187,-0.097,-0.1291,0,0,0,0,0,0,0,0,0,0,0,0,0,0,0,0,0,0,0,0,0,0,-0.0332,-0.019,0.0549,0.0,0.0019,0.0096,0,0,0,0,0,0,0,0,0,0,0,0,0,0.0074,0.0165,0.0401,-0.0077,-0.0772,-0.1181,-0.1066,0,0,0,0,0,0,0,0,0,0,0,0,0,0,0,0,0,0,0,0,0.0662,-0.0168,-0.0093,0.0275,0,0,0,0,0,0,0,0,0.0299,0.0115,-0.0162,0,0,0,0,0,0.0157,0.0585,0.058,-0.0036,-0.0599,-0.1187,-0.1217,0.0239,0,0,0,0,0,0,0,0,0,0,0,0,0,0,0,0,0,0,-0.0368,0.0332,0,0,0,0,0,0,0,0.0404,0,0.0357,0.0327,0.0346,0.0071,-0.0508,0,0,0,0,0,0.0319,0.1148,0.0582,-0.0099,-0.0632,-0.122,-0.1049,0.0305,0.0382,0,0,0,0,0,0,0,0,0,0,0,0,0,0,0,0,0.0255,-0.0483,0,0,-0.0044,0.0036,0.0052,0.0126,0.0222,0.0305,0.0363,0.028,0.0379,0.0407,0.0354,-0.0085,-0.0843,-0.0665,-0.0563,0.0192,0.0,0.0,0.0236,0.1231,0.056,-0.0228,-0.0733,-0.1063,-0.0522,0.0294,0.033,0.019,0,0,0,0,0,0,0,0,0,0,0,0,0.0396,0.0173,0.0294,-0.0286,-0.0448,0.0236,-0.0107,0.0003,0.0071,0.0102,0.0181,0.0277,0.0349,0.0341,0.0261,0.0266,0.0428,0.0085,-0.0343,-0.0415,-0.0332,0.0165,0.0415,0,0,0,0.033,0.0923,-0.0146,-0.0371,-0.0489,-0.0157,0.0104,0.0107,0.0093,0,0,0,0,0,0,0,0.0269,-0.0066,0.0135,0.0157,0.0195,0.0283,0.0096,-0.0011,-0.028,-0.011,0.0228,-0.0003,0.0088,0.0129,0.0179,0.0266,0.036,0.0404,0.0354,0.0124,0.0066,0.0643,0.0005,-0.0187,0,0,0.0775,0.0492,-0.0019,0.0211,0.0305,-0.0187,0.0522,0,0,0,0,0,0,0,0,-0.0049,0.0055,0.0082,0.0085,0.0118,0.0132,0.0228,0.0069,0.0154,0.0165,0.0184,0.0154,0.0036,-0.0025,-0.0049,0.011,0.0209,0.0137,0.0146,0.0162,0.0214,0.0305,0.0385,0.0407,0.0349,0,0,0.0703,0.0228,0.0368,0.0459,0.0206,0.0352,0.0244,-0.0058,0.0036,0.0082,0,-0.0459,-0.1195,0.0305,0.0049,0.0041,0.0008,0.0011,0.0025,0.0027,-0.0014,0.0077,0.0104,0.0113,0.0132,0.0137,0.0129,0.0118,0.0165,0.017,0.0162,0.0115,0.0047,0.0022,0.0052,0.0151,0.0209,0.0214,0.0201,0.0209,0.0255,0.0327,0.0371,0.0371,0.0327,0.0151,0.019,0.0363,0.031,0.053,0.0417,0.0124,-0.0063,-0.0019,-0.0195,-0.0211,-0.0258,-0.0772,-0.0901,-0.0791,0.028,0.0071,0.0055,0.0025,0.003,0.0041,0.0047,0.0052,0.0115,0.0143,0.0154,0.0154,0.0143,0.0124,0.0121,0.0137,0.0137,0.0118,0.0077,0.0044,0.0049,0.0104,0.0179,0.0236,0.0261,0.0264,0.0272,0.0288,0.0316,0.0327,0.031,0.0324,0.0187,0.0217,0.025,0.0341,0.0404,0.0316,0.0049,-0.0104,0.0005,0.0071,0.008,-0.0192,-0.0566,-0.061,0.0025,0.0233,0.011,0.0082,0.006,0.0063,0.0071,0.008,0.0099,0.0143,0.0165,0.0173,0.0159,0.014,0.0121,0.0113,0.0104,0.0091,0.0069,0.0044,0.0036,0.0063,0.0126,0.0203,0.0261,0.0288,0.0294,0.0291,0.0266,0.0239,0.025,0.0261,0.0327,0.025,0.0272,0.0291,0.0335,0.0324,0.025,0.0104,0.0041,0.0228,0.0401,0.0396,0.014,-0.0052,0.0077,0.0346,0.0206,0.0137,0.0104,0.0088,0.0085,0.0091,0.0102,0.0121,0.0151,0.017,0.0179,0.0165,0.0143,0.0121,0.0096,0.0063,0.0033,0.0014,0.0,0.0008,0.0052,0.0137,0.0236,0.0299,0.0302,0.0272,0.0247,0.0192,0.0165,0.0206,0.0148,-0.0025,0.0299,0.0313,0.0313,0.0302,0.0272,0.0233,0.0184,0.0184,0.0308,0.0407,0.0387,0.0283,0.0231,0.0255,0.0258,0.0192,0.0151,0.0121,0.0107,0.0102,0.0102,0.011,0.0126,0.0148,0.0162,0.0173,0.0165,0.0146,0.0118,0.0069,0.0011,-0.0036,-0.0063,-0.0069,-0.0038,0.0049,0.0195,0.0341,0.0415,0.0374,0.0269,0.0209,0.0168,0.0099,-0.0077,-0.0198,-0.0456,0.0341,0.0332,0.0302,0.0255,0.0217,0.0203,0.0209,0.0239,0.0302,0.0346,0.0316,0.0239,0.0198,0.0203,0.0203,0.0181,0.0157,0.0135,0.0124,0.0118,0.0113,0.0113,0.0121,0.0135,0.0148,0.0159,0.0162,0.0151,0.011,0.0036,-0.0052,-0.0118,-0.0151,-0.0146,-0.0077,0.0071,0.0275,0.0478,0.0621,0.0591,0.0439,0.0412,0.0168,-0.0019,-0.0135,-0.0209,-0.0341,0.0379,0.0357,0.0305,0.0231,0.0181,0.0181,0.0211,0.0247,0.0286,0.0299,0.0261,0.0198,0.0168,0.0179,0.0187,0.0179,0.0165,0.0151,0.0143,0.0135,0.0124,0.0113,0.011,0.0115,0.0129,0.0143,0.0157,0.0148,0.0088,-0.0019,-0.0132,-0.0206,-0.0236,-0.0217,-0.014,-0.0011,0.0195,0.053,0.0851,0.0884,0.0582,0.0319,0.025,0.0168,0.0222,0.0124,-0.0066,0.0409,0.0387,0.0332,0.0255,0.0201,0.0187,0.0206,0.0233,0.0255,0.0255,0.0225,0.0181,0.0162,0.0179,0.019,0.0184,0.0176,0.0168,0.0165,0.0154,0.0137,0.0113,0.0093,0.0091,0.0104,0.0126,0.0146,0.0124,0.003,-0.011,-0.0225,-0.0283,-0.0302,-0.0299,-0.0297,-0.0266,-0.0003,0.0626,0.1022,0.1008,0.064,0.0266,0.0324,0.0417,0.0363,0.0244,0.008,0.0417,0.0404,0.0368,0.0313,0.0255,0.0211,0.0192,0.0201,0.022,0.022,0.0201,0.0176,0.017,0.019,0.0201,0.0201,0.019,0.0187,0.0184,0.0176,0.0154,0.0115,0.0082,0.0069,0.0082,0.011,0.0126,0.0069,-0.008,-0.0233,-0.0305,-0.0321,-0.0327,-0.0341,-0.0387,-0.0368,0.0047,0.0808,0.1101,0.1217,0.1025,0.0582,0.0242,0.0239,0.0222,0.0159,0.0104,0.0404,0.0404,0.0393,0.0365,0.0319,0.0247,0.0181,0.0162,0.0181,0.0192,0.0184,0.0176,0.0181,0.0198,0.0214,0.0217,0.0209,0.0203,0.0201,0.019,0.0162,0.0118,0.0074,0.0055,0.0066,0.0091,0.008,-0.0025,-0.022,-0.0341,-0.0335,-0.0313,-0.0305,-0.0297,-0.0236,0.0049,0.0505,0.0967,0.1085,0.1195,0.1107,0.0459,-0.0066,-0.0269,-0.0308,-0.033,-0.0291,0.0376,0.039,0.0396,0.0393,0.0357,0.028,0.019,0.0143,0.0154,0.0173,0.0179,0.0179,0.019,0.0211,0.0228,0.0233,0.0228,0.0217,0.0211,0.0195,0.0162,0.0113,0.0066,0.0044,0.0047,0.0049,-0.0011,-0.0173,-0.0357,-0.0374,-0.0316,-0.0288,-0.0272,-0.0162,0.0146,0.0407,0.0821,0.0895,0.0728,0.0585,0.0602,0.0082,-0.0593,-0.1,-0.1134,-0.1176,-0.109,0.0349,0.0374,0.0387,0.0393,0.0368,0.0297,0.0211,0.0151,0.0143,0.0159,0.0176,0.0184,0.0203,0.0222,0.0239,0.0244,0.0242,0.0233,0.0222,0.0203,0.0162,0.0107,0.0058,0.003,0.0016,-0.0027,-0.0154,-0.0346,-0.0426,-0.0371,-0.031,-0.0233,-0.0058,0.0113,0.0272,0.0346,0.0645,0.0736,0.0428,0.0201,0.0247,-0.0162,-0.1016,-0.1664,-0.1931,-0.2008,-0.1906,0.0324,0.036,0.0379,0.0382,0.0354,0.0297,0.0231,0.0176,0.0148,0.0157,0.0176,0.0192,0.0211,0.0228,0.0239,0.0244,0.0247,0.0247,0.0244,0.0222,0.0181,0.0118,0.006,0.0014,-0.0038,-0.014,-0.0319,-0.0478,-0.0481,-0.0393,-0.0022,0.0261,0.0283,0.0198,0.0069,0.0264,0.047,0.07,0.0417,0.0102,0.0113,-0.0253,-0.1184,-0.2011,-0.2351,-0.237,-0.22,0.0288,0.0332,0.0365,0.0374,0.0343,0.0291,0.0242,0.0203,0.0168,0.0162,0.0181,0.0198,0.0211,0.022,0.0222,0.0231,0.0247,0.0264,0.0272,0.025,0.0211,0.0143,0.0071,-0.0005,-0.0113,-0.0272,-0.0489,-0.0637,-0.0637,-0.0217,0.0396,0.0456,0.0192,-0.0011,-0.0005,0.0132,0.0442,0.0681,0.0393,0.0022,0.0,-0.031,-0.1195,-0.2076,-0.2461,-0.2409,-0.2167]}],[{"header":{"parameterUnit":"m.s-1","parameterCategory":2,"la1":30.8641,"la2":29.7642,"lo1":-88.4676,"lo2":-86.9344,"dx":0.0333,"dy":0.0333,"nx":47,"ny":34,"refTime":"2022-11-16T00:00:00:Z","depth":"4","parameterNumber":2,"parameterNumberName":"U-component_of_CURRENTS"},"data":[0,0,0,0,0,0,0,0,0,0,0,0,0,0,0,0,0,0,0,0,0,0,0,0,0,0,0,0,0,0,0,0,0,0,0,0,0,0,0,0,0,0,0,0,0,0,0,0,0,0,0,0,0,0,0,0,0,0,0,0,0,0,0,0,0,0,0,0,0,0,0,0,0,0,0,0,0,0,0,0,0,0,0,0,0,0,0,0,0,0,0,0,0,0,0,0,0,0,0,0,0,0,0,0,0,0,0,0,0,0,0,0,0,0,0,0,0,0,0,0,0,0,0,0,0,0,0,0,0,0,0,0,0,0,0,0,0,0,0,0,0,0,0,0,0,0,0,0,0,0,0,0,0,0,0,0,0,0,0,0,0,0,0,0,0,0,0,0,0,0,0,0,0,0,0,0,0,0,0,0,0,0,0,0,0,0,0,0,0,0,0,0,0,0,0,0,0,0,0,0,0,0,0,0,0,0,0,0,0,0,0,0,0,0,0,0,0,0,0,0,0,0,0,0,0,0,0,0,0,0,0,0,0,0,0,0,0,0,0,0,0,0,0,0,0,0,0,0,0,0,0,0,0,0,0,0,0,0,0,0,0,0,0,0,0,0,0,0,0,0,0,0,0,0,0,0,0,0,0,0,0,0,0,0,0,0,0,0,0,0,0,0,0,0,0,0,0.0011,0.0019,0,0,0,0,0,0,0,0,0,0,0,0,0,0,0,0,0,0,0,0,0,0,0,0,0,0,0,0,0,0,0,0,0,0,0,0,0,0,0,0,0,0,0,0,0.0291,0.0275,-0.0019,0.0005,0,0,0,0,0,0,0,0,0,0,0,0,0,0,0,0,0,0,0,0,0,0,0,0,0,0,0,0,0,0,0,0,0,0,0,0,0,0,0,0,0,0,0,0.0135,0.0319,0.0396,0.0431,0,0,0,0,0,0,0,0,0,0,0,0,0,0,0,0,0,0,0,0,0,0,0,0,0,0,0,0,0,0,0,0,0,0,0,0,0,0,0,0,0,0,0.0091,0.0044,-0.0233,-0.0217,-0.0055,0,0,0,0,0,0,0,0,0,0,0,0,0,0,0,0,0,0,0,0,0,0,0,0,0,0,0,0,0,0,0,0,0,0,0,0,0,0,0,0,0,0,-0.0102,-0.0233,-0.0321,-0.0363,-0.0343,0,0,0,0,0,0,0,0,0,0,0,0,0,0,0,0,0,0,0,0,0,0,0,0,0,0,0,0,0,0,0,0,0,0,0,0,0,0,0,0,0,0,-0.0047,-0.0228,-0.039,-0.033,-0.0236,0,0,0,0,0,0,0,0,0,0,0,0,0,0,0,0,0,0,0,0,0,0,0,0,0,0,0,0,0,0,0,0,0,0,0,0,0,0,0,0,0,0,0.0104,-0.0264,-0.0431,-0.0288,-0.0132,0,0,0,0,0,0,0,0,0,0,0,0,0,0,0,0,0,0,0,0,0,0,0,0,0,0,-0.0036,-0.0071,0,0,0,0,0,0,0,0,0,0,0,0,0,-0.0058,-0.0201,-0.0305,-0.0354,-0.019,0.0005,0,0,0,0,0,0,0,0,0,0,0,0,0,0,0,0,0,0,0,0,0,0,-0.0173,-0.0063,0.0505,0.0522,0.0275,0.0299,0,0,0,0,0,0,0,0,0,0,0,0,0,-0.0058,-0.0187,-0.0266,-0.0327,-0.0143,0.0264,0.0423,0,0,0,0,0,0,0,0,0,0,0,0,0,0,0,0,0,0,0,0,0.0352,0.0593,0.0541,0.0582,0,0,0,0,0,0,0,0,0.0085,0.0181,0.0195,0,0,0,0,0,0.0005,-0.0016,-0.0102,-0.0239,-0.0146,0.011,-0.0184,-0.0396,0,0,0,0,0,0,0,0,0,0,0,0,0,0,0,0,0,0,0.0687,0.0797,0,0,0,0,0,0,0,0.0195,0,0.0115,0.0343,0.0439,0.0291,0.0159,0,0,0,0,0,0.0082,0.0135,0.0022,-0.0115,-0.0099,0.0025,-0.0066,-0.0129,-0.0055,0,0,0,0,0,0,0,0,0,0,0,0,0,0,0,0,0.0181,-0.0151,0,0,-0.0107,-0.0077,0.0,0.0107,0.0286,0.0552,0.0695,0.0159,0.0233,0.0233,0.0222,0.0137,0.0291,0.067,0.0994,0.1437,0.159,0.1431,0.0931,0.0231,0.0016,-0.0033,-0.0025,0.0165,0.0302,0.0217,0.0,-0.0124,0,0,0,0,0,0,0,0,0,0,0,0,0.0206,0.0527,0.0407,-0.006,-0.0159,0.0055,0.0107,0.0146,0.022,0.0297,0.0382,0.0478,0.058,0.0659,0.0019,-0.0231,-0.0489,-0.0626,-0.0615,-0.0297,-0.025,-0.0258,-0.0066,0,0,0,-0.0071,-0.0058,-0.0165,-0.0159,0.0409,0.0824,0.0692,0.039,0.0253,0,0,0,0,0,0,0,0.0036,0.0137,0.0264,0.0393,0.058,0.0621,0.0492,0.0368,0.028,0.0272,0.0288,0.0352,0.0445,0.0497,0.0538,0.0588,0.0634,0.0673,0.0692,-0.0184,-0.0577,-0.0766,-0.0492,-0.0253,0,0,-0.0261,-0.0475,-0.0033,0.0615,0.1222,0.1706,0.1772,0,0,0,0,0,0,0,0,-0.0033,-0.0049,-0.0003,0.0069,0.0157,0.0275,0.0283,0.0247,0.0294,0.0324,0.0332,0.0324,0.0321,0.0335,0.0371,0.0412,0.0423,0.0478,0.0569,0.0621,0.0648,0.0662,0.0662,0.0659,0.0662,0,0,-0.0272,-0.0689,-0.0791,-0.0464,-0.0184,-0.0214,-0.0233,0.0143,0.064,0.0838,0,-0.047,-0.0742,-0.0426,-0.0239,-0.019,-0.0165,-0.0143,-0.0104,-0.006,-0.0019,0.0011,0.0041,0.008,0.0115,0.0137,0.0148,0.0162,0.0173,0.0179,0.019,0.0198,0.0209,0.0239,0.0299,0.036,0.0404,0.0442,0.0481,0.0522,0.0558,0.058,0.058,0.0558,0.0544,-0.0184,-0.0016,-0.0036,-0.0176,-0.0233,-0.0327,-0.0552,-0.0764,-0.084,-0.0821,-0.0851,-0.0854,-0.0829,-0.0514,-0.0283,-0.0228,-0.0209,-0.019,-0.017,-0.014,-0.011,-0.008,-0.0041,-0.0003,0.0033,0.0069,0.0093,0.0104,0.011,0.0115,0.0118,0.0113,0.0102,0.0099,0.0115,0.0151,0.0198,0.0231,0.025,0.0275,0.0324,0.0387,0.0434,0.0442,0.042,0.039,0.039,-0.0236,-0.0195,-0.0165,-0.0135,-0.0135,-0.0198,-0.0503,-0.0898,-0.109,-0.1126,-0.1173,-0.131,-0.1296,-0.095,-0.045,-0.0211,-0.0209,-0.0192,-0.0173,-0.0148,-0.0121,-0.0091,-0.0058,-0.0025,0.0008,0.0038,0.0063,0.0077,0.0085,0.0082,0.0069,0.0044,0.0014,-0.0008,-0.0011,0.0005,0.0033,0.0074,0.0121,0.0168,0.0198,0.0211,0.0203,0.0157,0.0099,0.0011,0.0036,-0.0266,-0.0209,-0.0146,-0.011,-0.0115,-0.0124,-0.0091,-0.0074,-0.0102,-0.011,-0.011,-0.0192,-0.0299,-0.0244,-0.0187,-0.0211,-0.0201,-0.0184,-0.0162,-0.0137,-0.0115,-0.0093,-0.0071,-0.0047,-0.0022,0.0003,0.0027,0.0044,0.0049,0.0041,0.0016,-0.0025,-0.0069,-0.0104,-0.0121,-0.0113,-0.008,-0.0022,0.0041,0.0088,0.0107,0.0099,0.0066,0.0014,0.0173,0.042,0.0525,-0.0247,-0.017,-0.0118,-0.0099,-0.011,-0.0115,-0.0091,-0.003,0.0014,0.0008,-0.0019,-0.0041,-0.006,-0.0104,-0.0168,-0.0198,-0.019,-0.0168,-0.0146,-0.0121,-0.0104,-0.0091,-0.0077,-0.006,-0.0044,-0.003,-0.0011,0.0008,0.0019,0.0011,-0.0016,-0.0066,-0.0118,-0.0168,-0.0198,-0.0192,-0.0143,-0.0055,0.0055,0.0157,0.022,0.0244,0.0261,0.039,0.0706,0.0931,0.0937,-0.0233,-0.017,-0.0129,-0.0118,-0.0129,-0.0143,-0.0137,-0.0107,-0.0077,-0.0066,-0.0071,-0.0091,-0.0121,-0.0157,-0.0181,-0.0187,-0.0176,-0.0157,-0.0132,-0.0107,-0.0088,-0.0077,-0.0069,-0.0066,-0.006,-0.0049,-0.0033,-0.0014,0.0,-0.0003,-0.003,-0.0082,-0.0146,-0.0214,-0.0272,-0.0308,-0.0313,-0.0275,-0.0137,0.0085,0.0253,0.0401,0.0626,0.0972,0.1071,0.0873,0.0728,-0.0233,-0.0187,-0.0154,-0.0146,-0.0157,-0.0168,-0.0162,-0.0146,-0.0135,-0.0137,-0.0148,-0.0165,-0.0179,-0.0187,-0.019,-0.0181,-0.0165,-0.0143,-0.0115,-0.0091,-0.0069,-0.0055,-0.0052,-0.0055,-0.0058,-0.0055,-0.0047,-0.0027,-0.0011,-0.0016,-0.0055,-0.0118,-0.0198,-0.0286,-0.039,-0.0547,-0.0731,-0.0761,-0.0486,-0.0025,0.039,0.0799,0.0975,0.0838,0.0783,0.0695,0.0456,-0.0255,-0.0214,-0.0176,-0.0146,-0.0132,-0.014,-0.0151,-0.0159,-0.017,-0.0187,-0.0203,-0.0214,-0.0217,-0.0211,-0.0195,-0.0176,-0.0154,-0.0129,-0.0102,-0.0071,-0.0044,-0.0027,-0.0025,-0.003,-0.0038,-0.0041,-0.0036,-0.0027,-0.003,-0.0055,-0.0102,-0.0168,-0.0244,-0.0343,-0.0508,-0.0747,-0.0882,-0.0654,-0.0247,0.0077,0.0461,0.0569,0.0533,0.0588,0.0489,0.0299,0.0014,-0.0305,-0.0272,-0.0228,-0.0168,-0.011,-0.0082,-0.0099,-0.014,-0.0181,-0.0206,-0.0217,-0.022,-0.0214,-0.0203,-0.0187,-0.0168,-0.0146,-0.0121,-0.0096,-0.0066,-0.0036,-0.0014,-0.0003,-0.0008,-0.0019,-0.0025,-0.0027,-0.0038,-0.0069,-0.0115,-0.017,-0.0228,-0.0275,-0.0308,-0.0321,-0.0283,-0.0157,0.0113,0.028,0.0085,0.0005,0.0258,0.0453,0.0492,0.0401,0.0181,-0.0121,-0.0338,-0.0324,-0.0288,-0.0222,-0.0143,-0.0082,-0.0071,-0.011,-0.0159,-0.019,-0.0201,-0.0198,-0.019,-0.0187,-0.0179,-0.0162,-0.0143,-0.0124,-0.0102,-0.008,-0.0052,-0.003,-0.0011,-0.0005,-0.0014,-0.0025,-0.0041,-0.0074,-0.0124,-0.0195,-0.0264,-0.0308,-0.0321,-0.0288,-0.017,0.0082,0.0426,0.0755,0.0832,0.0755,0.0714,0.0676,0.0684,0.0634,0.0497,0.0261,-0.0044,-0.033,-0.033,-0.0308,-0.0264,-0.0201,-0.0132,-0.0096,-0.0107,-0.0137,-0.0168,-0.0181,-0.0184,-0.0184,-0.0184,-0.0179,-0.0168,-0.0148,-0.0129,-0.011,-0.0088,-0.0063,-0.0041,-0.0025,-0.0019,-0.0027,-0.0049,-0.008,-0.0126,-0.0203,-0.0302,-0.0365,-0.039,-0.0396,-0.0365,-0.0266,0.0077,0.05,0.0709,0.0939,0.1272,0.1335,0.1035,0.0769,0.0645,0.0497,0.028,0.006,-0.028,-0.0286,-0.0283,-0.0264,-0.0225,-0.0179,-0.0135,-0.0121,-0.0135,-0.0154,-0.0173,-0.0184,-0.0187,-0.0187,-0.0181,-0.017,-0.0154,-0.0132,-0.0102,-0.0071,-0.0044,-0.0025,-0.0019,-0.0025,-0.0044,-0.008,-0.0132,-0.0206,-0.0321,-0.0434,-0.0508,-0.0558,-0.0555,-0.0396,0.0008,0.0115,0.0288,0.0665,0.0797,0.1003,0.1222,0.1148,0.0832,0.0577,0.0324,0.0085,-0.0074,-0.022,-0.0233,-0.0236,-0.0236,-0.0222,-0.0195,-0.0159,-0.0135,-0.0137,-0.0154,-0.017,-0.0179,-0.0181,-0.0181,-0.0179,-0.0173,-0.0157,-0.0132,-0.0093,-0.0049,-0.0014,0.0008,0.0014,-0.0003,-0.0036,-0.0093,-0.0176,-0.0299,-0.0472,-0.0673,-0.0854,-0.0797,-0.0371,0.0027,0.0173,0.0113,0.0154,0.0423,0.0615,0.0744,0.0937,0.1027,0.0832,0.05,0.0148,-0.0146,-0.031,-0.0165,-0.0201,-0.0228,-0.0236,-0.0228,-0.0203,-0.0173,-0.0146,-0.0137,-0.0143,-0.0157,-0.0165,-0.0165,-0.0165,-0.017,-0.017,-0.0162,-0.0135,-0.0093,-0.0044,0.0,0.003,0.0036,0.0022,-0.0014,-0.0074,-0.0198,-0.0431,-0.0775,-0.1121,-0.1003,-0.0478,-0.0154,-0.003,-0.0008,-0.0014,0.0052,0.0168,0.0338,0.0439,0.0525,0.0645,0.0645,0.0431,0.0099,-0.0148,-0.0239]},{"header":{"parameterUnit":"m.s-1","parameterCategory":2,"la1":30.8641,"la2":29.7642,"lo1":-88.4676,"lo2":-86.9344,"dx":0.0333,"dy":0.0333,"nx":47,"ny":34,"refTime":"2022-11-16T00:00:00:Z","depth":"4","parameterNumber":3,"parameterNumberName":"V-component_of_CURRENTS"},"data":[0,0,0,0,0,0,0,0,0,0,0,0,0,0,0,0,0,0,0,0,0,0,0,0,0,0,0,0,0,0,0,0,0,0,0,0,0,0,0,0,0,0,0,0,0,0,0,0,0,0,0,0,0,0,0,0,0,0,0,0,0,0,0,0,0,0,0,0,0,0,0,0,0,0,0,0,0,0,0,0,0,0,0,0,0,0,0,0,0,0,0,0,0,0,0,0,0,0,0,0,0,0,0,0,0,0,0,0,0,0,0,0,0,0,0,0,0,0,0,0,0,0,0,0,0,0,0,0,0,0,0,0,0,0,0,0,0,0,0,0,0,0,0,0,0,0,0,0,0,0,0,0,0,0,0,0,0,0,0,0,0,0,0,0,0,0,0,0,0,0,0,0,0,0,0,0,0,0,0,0,0,0,0,0,0,0,0,0,0,0,0,0,0,0,0,0,0,0,0,0,0,0,0,0,0,0,0,0,0,0,0,0,0,0,0,0,0,0,0,0,0,0,0,0,0,0,0,0,0,0,0,0,0,0,0,0,0,0,0,0,0,0,0,0,0,0,0,0,0,0,0,0,0,0,0,0,0,0,0,0,0,0,0,0,0,0,0,0,0,0,0,0,0,0,0,0,0,0,0,0,0,0,0,0,0,0,0,0,0,0,0,0,0,0,0,0,0.0236,-0.0393,0,0,0,0,0,0,0,0,0,0,0,0,0,0,0,0,0,0,0,0,0,0,0,0,0,0,0,0,0,0,0,0,0,0,0,0,0,0,0,0,0,0,0,0,0.0228,0.0423,-0.0275,-0.0217,0,0,0,0,0,0,0,0,0,0,0,0,0,0,0,0,0,0,0,0,0,0,0,0,0,0,0,0,0,0,0,0,0,0,0,0,0,0,0,0,0,0,0,0.0338,0.072,-0.0297,-0.0591,0,0,0,0,0,0,0,0,0,0,0,0,0,0,0,0,0,0,0,0,0,0,0,0,0,0,0,0,0,0,0,0,0,0,0,0,0,0,0,0,0,0,0.0137,0.0371,0.0632,-0.0475,-0.1101,0,0,0,0,0,0,0,0,0,0,0,0,0,0,0,0,0,0,0,0,0,0,0,0,0,0,0,0,0,0,0,0,0,0,0,0,0,0,0,0,0,0,0.0102,0.0321,0.0338,-0.0634,-0.1145,0,0,0,0,0,0,0,0,0,0,0,0,0,0,0,0,0,0,0,0,0,0,0,0,0,0,0,0,0,0,0,0,0,0,0,0,0,0,0,0,0,0,0.0247,0.0439,0.0168,-0.0662,-0.0816,0,0,0,0,0,0,0,0,0,0,0,0,0,0,0,0,0,0,0,0,0,0,0,0,0,0,0,0,0,0,0,0,0,0,0,0,0,0,0,0,0,0,0.042,0.0483,0.0058,-0.0525,-0.0494,0,0,0,0,0,0,0,0,0,0,0,0,0,0,0,0,0,0,0,0,0,0,0,0,0,0,0.0066,0.0209,0,0,0,0,0,0,0,0,0,0,0,0,0,0.0338,0.0387,0.0508,0.0085,-0.0472,-0.0478,0,0,0,0,0,0,0,0,0,0,0,0,0,0,0,0,0,0,0,0,0,0,-0.0258,-0.0113,0.0599,0.0,0.0033,0.0104,0,0,0,0,0,0,0,0,0,0,0,0,0,0.0192,0.0437,0.0687,0.0181,-0.0398,-0.0508,-0.0176,0,0,0,0,0,0,0,0,0,0,0,0,0,0,0,0,0,0,0,0,0.0865,-0.0129,-0.0058,0.0299,0,0,0,0,0,0,0,0,0.0324,0.0151,-0.0118,0,0,0,0,0,0.0316,0.0777,0.0813,0.0225,-0.0261,-0.0698,-0.064,0.0291,0,0,0,0,0,0,0,0,0,0,0,0,0,0,0,0,0,0,0.0102,0.0431,0,0,0,0,0,0,0,0.0423,0,0.039,0.0379,0.0374,0.011,-0.0423,0,0,0,0,0,0.0489,0.1321,0.0799,0.017,-0.031,-0.0909,-0.0849,0.0346,0.0398,0,0,0,0,0,0,0,0,0,0,0,0,0,0,0,0,0.0354,-0.008,0,0,-0.0019,0.0066,0.008,0.0154,0.025,0.033,0.0387,0.0324,0.042,0.0486,0.0489,0.006,-0.0626,-0.0288,0.0088,0.0816,0.0,0.0,0.0299,0.1464,0.0893,0.0082,-0.0505,-0.0898,-0.0439,0.0321,0.0354,0.022,0,0,0,0,0,0,0,0,0,0,0,0,0.0428,0.0211,0.0335,-0.0135,-0.025,0.0269,-0.008,0.003,0.0102,0.0132,0.0211,0.0308,0.0379,0.0371,0.0305,0.033,0.0596,0.0461,0.0211,-0.0261,-0.0143,0.0634,0.097,0,0,0,0.1003,0.1673,0.003,-0.0294,-0.0442,-0.0132,0.0121,0.0121,0.011,0,0,0,0,0,0,0,0.0297,-0.0033,0.017,0.019,0.0225,0.0316,0.0129,0.0022,-0.0225,-0.0066,0.0255,0.0022,0.0115,0.0159,0.0209,0.0297,0.039,0.0434,0.0385,0.0143,0.0104,0.0838,0.0558,0.0687,0,0,0.1016,0.1046,0.0904,0.1203,0.1686,0.0341,0.1917,0,0,0,0,0,0,0,0,-0.0016,0.0082,0.011,0.0113,0.0146,0.0159,0.0258,0.0102,0.0187,0.0195,0.0211,0.0179,0.006,0.0,-0.0025,0.0135,0.0236,0.0165,0.0176,0.0192,0.0244,0.0335,0.0412,0.0434,0.0376,0,0,0.0835,0.061,0.0824,0.0505,0.0261,0.0588,0.0797,0.0799,0.111,0.1263,0,0.1145,-0.0165,0.0324,0.0091,0.008,0.0047,0.0049,0.006,0.0063,0.0019,0.0104,0.0132,0.014,0.0159,0.0165,0.0159,0.0146,0.0192,0.0198,0.019,0.014,0.0071,0.0047,0.008,0.0179,0.0239,0.0244,0.0231,0.0239,0.0283,0.0352,0.0398,0.0398,0.0354,0.019,0.0225,0.0415,0.0365,0.0563,0.0456,0.0187,0.0113,0.0272,0.0217,0.0467,0.0563,0.0148,0.0173,-0.0192,0.0302,0.011,0.0093,0.0063,0.0066,0.0077,0.008,0.0085,0.0146,0.017,0.0181,0.0181,0.017,0.0151,0.0151,0.0165,0.0168,0.0148,0.0107,0.0074,0.008,0.0135,0.0211,0.0266,0.0288,0.0291,0.0297,0.0316,0.0343,0.0354,0.0341,0.0352,0.0222,0.025,0.0283,0.0371,0.0431,0.0346,0.0099,-0.0005,0.0135,0.0233,0.0286,0.0124,-0.0099,-0.0222,0.0176,0.0258,0.0146,0.0118,0.0096,0.0096,0.0104,0.0113,0.0132,0.0173,0.0195,0.0201,0.0187,0.0168,0.0151,0.014,0.0135,0.0121,0.0102,0.008,0.0069,0.0096,0.0162,0.0239,0.0294,0.0319,0.0324,0.0319,0.0297,0.0269,0.028,0.0288,0.0354,0.028,0.0302,0.0321,0.0365,0.0354,0.028,0.014,0.0085,0.0272,0.0442,0.0437,0.0225,0.0055,0.0159,0.0379,0.0233,0.017,0.0137,0.0121,0.0118,0.0121,0.0132,0.0151,0.0181,0.0201,0.0206,0.0192,0.017,0.0151,0.0124,0.0093,0.0066,0.0047,0.0036,0.0044,0.0091,0.0176,0.0275,0.0335,0.0335,0.0308,0.028,0.0222,0.0198,0.0236,0.0176,0.0005,0.033,0.0346,0.0346,0.0335,0.0305,0.0266,0.0214,0.0217,0.0338,0.0437,0.0415,0.0316,0.0264,0.0288,0.0288,0.0222,0.0181,0.0151,0.0137,0.0132,0.0132,0.014,0.0154,0.0179,0.0192,0.0201,0.0192,0.0173,0.0146,0.0099,0.0041,-0.0003,-0.0025,-0.003,0.0,0.0091,0.0233,0.0376,0.0448,0.0404,0.0302,0.0242,0.0198,0.0132,-0.0047,-0.0168,-0.0428,0.0374,0.0365,0.0338,0.0291,0.0253,0.0239,0.0242,0.0272,0.0335,0.0379,0.0346,0.0269,0.0228,0.0231,0.0233,0.0211,0.0187,0.0162,0.0151,0.0146,0.014,0.014,0.0148,0.0165,0.0179,0.019,0.0192,0.0179,0.014,0.0066,-0.0019,-0.0082,-0.0113,-0.0104,-0.0038,0.0107,0.0308,0.0505,0.0645,0.0618,0.0467,0.0439,0.0198,0.0008,-0.0104,-0.0181,-0.031,0.0409,0.0387,0.0335,0.0264,0.0217,0.0217,0.0244,0.028,0.0316,0.033,0.0294,0.0228,0.0198,0.0206,0.0214,0.0206,0.0192,0.0176,0.017,0.0162,0.0148,0.014,0.0137,0.0143,0.0157,0.0173,0.0187,0.0176,0.0121,0.0014,-0.0096,-0.0168,-0.0195,-0.0179,-0.0104,0.0022,0.0222,0.0558,0.0882,0.0915,0.061,0.0349,0.028,0.0198,0.0253,0.0154,-0.0036,0.0437,0.0415,0.0357,0.0283,0.0228,0.0217,0.0236,0.0266,0.0288,0.0288,0.0255,0.0211,0.0192,0.0206,0.0217,0.0211,0.0203,0.0195,0.019,0.0181,0.0162,0.014,0.0121,0.0121,0.0135,0.0157,0.0176,0.0157,0.0063,-0.0071,-0.0184,-0.0242,-0.0264,-0.0264,-0.0261,-0.0233,0.003,0.0662,0.1057,0.1041,0.0673,0.0299,0.0357,0.045,0.0396,0.0277,0.0113,0.0445,0.0431,0.0393,0.0338,0.028,0.0236,0.022,0.0231,0.025,0.025,0.0231,0.0206,0.0198,0.0217,0.0228,0.0225,0.0217,0.0214,0.0211,0.0203,0.0181,0.0143,0.011,0.0099,0.0113,0.014,0.0159,0.0104,-0.0038,-0.0192,-0.0261,-0.028,-0.0288,-0.0308,-0.0352,-0.0332,0.008,0.084,0.1134,0.125,0.1057,0.0618,0.0277,0.0272,0.0255,0.0192,0.0137,0.0431,0.0434,0.042,0.0393,0.0343,0.0272,0.0209,0.0192,0.0211,0.0222,0.0214,0.0206,0.0209,0.0228,0.0242,0.0247,0.0236,0.0231,0.0228,0.0217,0.0192,0.0148,0.0104,0.0085,0.0096,0.0121,0.0115,0.0014,-0.0179,-0.0294,-0.0291,-0.0275,-0.0269,-0.0264,-0.0206,0.0077,0.0536,0.0994,0.1112,0.1222,0.1143,0.0494,-0.003,-0.0236,-0.0275,-0.0297,-0.0255,0.0409,0.0423,0.0428,0.042,0.0385,0.0305,0.0217,0.0173,0.0184,0.0203,0.0209,0.0209,0.022,0.0242,0.0258,0.0264,0.0255,0.0247,0.0239,0.0225,0.0192,0.0146,0.0099,0.0077,0.008,0.0082,0.0027,-0.0132,-0.031,-0.033,-0.0275,-0.0253,-0.0239,-0.0135,0.0173,0.0434,0.0851,0.0923,0.0758,0.0618,0.0634,0.0121,-0.0558,-0.0964,-0.1101,-0.114,-0.1055,0.0382,0.0407,0.0423,0.0426,0.0398,0.0327,0.0239,0.0181,0.0173,0.0192,0.0206,0.0217,0.0233,0.0255,0.0272,0.0277,0.0272,0.0264,0.0255,0.0233,0.0195,0.0143,0.0093,0.0063,0.0052,0.0008,-0.0113,-0.0299,-0.0382,-0.033,-0.0272,-0.0201,-0.003,0.014,0.0299,0.0376,0.0676,0.0766,0.0461,0.0233,0.0277,-0.0126,-0.0978,-0.1629,-0.1895,-0.1972,-0.187,0.0357,0.0393,0.0415,0.0417,0.0387,0.033,0.0264,0.0206,0.0181,0.019,0.0209,0.0225,0.0244,0.0261,0.0272,0.0277,0.028,0.028,0.0277,0.0255,0.0214,0.0154,0.0096,0.0049,-0.0003,-0.0099,-0.0275,-0.0434,-0.0439,-0.036,0.0008,0.0288,0.0308,0.0225,0.0096,0.0297,0.05,0.0733,0.045,0.0137,0.0146,-0.0217,-0.1143,-0.1969,-0.231,-0.2332,-0.2159,0.0321,0.0365,0.0401,0.0409,0.0379,0.0327,0.0275,0.0233,0.0201,0.0195,0.0211,0.0231,0.0244,0.0253,0.0258,0.0266,0.0283,0.0299,0.0308,0.0286,0.0244,0.0179,0.011,0.003,-0.0077,-0.0231,-0.0445,-0.0596,-0.0602,-0.019,0.0426,0.0486,0.022,0.0019,0.0025,0.0165,0.0472,0.0714,0.0428,0.0055,0.0036,-0.0272,-0.1156,-0.2033,-0.2417,-0.2365,-0.2118]}],[{"header":{"parameterUnit":"m.s-1","parameterCategory":2,"la1":30.8641,"la2":29.7642,"lo1":-88.4676,"lo2":-86.9344,"dx":0.0333,"dy":0.0333,"nx":47,"ny":34,"refTime":"2022-11-16T00:00:00:Z","depth":"6","parameterNumber":2,"parameterNumberName":"U-component_of_CURRENTS"},"data":[0,0,0,0,0,0,0,0,0,0,0,0,0,0,0,0,0,0,0,0,0,0,0,0,0,0,0,0,0,0,0,0,0,0,0,0,0,0,0,0,0,0,0,0,0,0,0,0,0,0,0,0,0,0,0,0,0,0,0,0,0,0,0,0,0,0,0,0,0,0,0,0,0,0,0,0,0,0,0,0,0,0,0,0,0,0,0,0,0,0,0,0,0,0,0,0,0,0,0,0,0,0,0,0,0,0,0,0,0,0,0,0,0,0,0,0,0,0,0,0,0,0,0,0,0,0,0,0,0,0,0,0,0,0,0,0,0,0,0,0,0,0,0,0,0,0,0,0,0,0,0,0,0,0,0,0,0,0,0,0,0,0,0,0,0,0,0,0,0,0,0,0,0,0,0,0,0,0,0,0,0,0,0,0,0,0,0,0,0,0,0,0,0,0,0,0,0,0,0,0,0,0,0,0,0,0,0,0,0,0,0,0,0,0,0,0,0,0,0,0,0,0,0,0,0,0,0,0,0,0,0,0,0,0,0,0,0,0,0,0,0,0,0,0,0,0,0,0,0,0,0,0,0,0,0,0,0,0,0,0,0,0,0,0,0,0,0,0,0,0,0,0,0,0,0,0,0,0,0,0,0,0,0,0,0,0,0,0,0,0,0,0,0,0,0,0,-0.011,-0.0217,0,0,0,0,0,0,0,0,0,0,0,0,0,0,0,0,0,0,0,0,0,0,0,0,0,0,0,0,0,0,0,0,0,0,0,0,0,0,0,0,0,0,0,0,0.0258,0.0277,-0.0003,-0.0052,0,0,0,0,0,0,0,0,0,0,0,0,0,0,0,0,0,0,0,0,0,0,0,0,0,0,0,0,0,0,0,0,0,0,0,0,0,0,0,0,0,0,0,0.0665,0.1294,0.114,0.1022,0,0,0,0,0,0,0,0,0,0,0,0,0,0,0,0,0,0,0,0,0,0,0,0,0,0,0,0,0,0,0,0,0,0,0,0,0,0,0,0,0,0,0.0448,0.086,0.0777,0.0563,0.0385,0,0,0,0,0,0,0,0,0,0,0,0,0,0,0,0,0,0,0,0,0,0,0,0,0,0,0,0,0,0,0,0,0,0,0,0,0,0,0,0,0,0,0.0121,0.0481,0.0591,0.0275,0.0088,0,0,0,0,0,0,0,0,0,0,0,0,0,0,0,0,0,0,0,0,0,0,0,0,0,0,0,0,0,0,0,0,0,0,0,0,0,0,0,0,0,0,0.0157,0.0456,0.0445,0.0272,0.0242,0,0,0,0,0,0,0,0,0,0,0,0,0,0,0,0,0,0,0,0,0,0,0,0,0,0,0,0,0,0,0,0,0,0,0,0,0,0,0,0,0,0,0.0591,0.0439,0.0286,0.0168,0.0135,0,0,0,0,0,0,0,0,0,0,0,0,0,0,0,0,0,0,0,0,0,0,0,0,0,0,-0.003,-0.006,0,0,0,0,0,0,0,0,0,0,0,0,0,0.0063,0.0162,0.0203,0.0225,0.0236,0.0222,0,0,0,0,0,0,0,0,0,0,0,0,0,0,0,0,0,0,0,0,0,0,0.0143,0.0525,0.1014,0.0731,0.025,0.0294,0,0,0,0,0,0,0,0,0,0,0,0,0,-0.0008,0.0102,0.0214,0.0209,0.0321,0.0233,0.003,0,0,0,0,0,0,0,0,0,0,0,0,0,0,0,0,0,0,0,0,0.0541,0.1008,0.0747,0.056,0,0,0,0,0,0,0,0,0.0085,0.0187,0.0203,0,0,0,0,0,0.0011,0.0264,0.0434,0.0294,0.0239,-0.0058,-0.0481,-0.0409,0,0,0,0,0,0,0,0,0,0,0,0,0,0,0,0,0,0,0.0972,0.1365,0,0,0,0,0,0,0,0.0195,0,0.0113,0.0335,0.0431,0.0407,0.0396,0,0,0,0,0,0.022,0.056,0.0618,0.0434,0.014,-0.0151,-0.0137,-0.0052,-0.0055,0,0,0,0,0,0,0,0,0,0,0,0,0,0,0,0,0.0602,0.0698,0,0,-0.0104,-0.0077,0.0,0.0107,0.0286,0.0549,0.0692,0.0151,0.0225,0.0283,0.0407,0.0426,0.0489,0.0442,0.0297,0.0643,0.1118,0.1236,0.1143,0.0865,0.0827,0.0709,0.0291,0.0137,0.0228,0.0217,-0.0003,-0.0126,0,0,0,0,0,0,0,0,0,0,0,0,0.0203,0.0511,0.0431,0.0055,-0.0214,0.0008,0.011,0.0146,0.0222,0.0297,0.0382,0.0475,0.0577,0.0656,0.0011,-0.017,-0.0266,-0.0217,-0.0085,-0.0168,-0.0439,-0.019,0.0135,0,0,0,0.0124,0.0824,0.0989,0.0387,0.0503,0.0805,0.0676,0.0382,0.0247,0,0,0,0,0,0,0,0.0033,0.0135,0.0258,0.0387,0.0569,0.0607,0.0483,0.0363,0.028,0.0275,0.0291,0.0352,0.0445,0.0497,0.0538,0.0585,0.0632,0.0667,0.0687,-0.0192,-0.0541,-0.0541,-0.0154,0.0033,0,0,-0.0102,0.0093,0.0549,0.0813,0.1697,0.1371,0.0217,0,0,0,0,0,0,0,0,-0.0033,-0.0052,-0.0003,0.0066,0.0154,0.0272,0.0277,0.0244,0.0291,0.0321,0.0327,0.0319,0.0316,0.0332,0.0371,0.0409,0.042,0.0472,0.0563,0.0618,0.0645,0.0659,0.0659,0.0656,0.0656,0,0,-0.0217,-0.0519,-0.0678,-0.0486,-0.0165,-0.0011,0.019,0.072,0.0799,0.0552,0,-0.0341,-0.0626,-0.0417,-0.0239,-0.019,-0.0165,-0.0143,-0.0107,-0.006,-0.0022,0.0011,0.0038,0.008,0.0115,0.0137,0.0148,0.0162,0.0173,0.0179,0.019,0.0195,0.0206,0.0239,0.0297,0.0357,0.0398,0.0437,0.0478,0.0519,0.0555,0.0577,0.0577,0.0558,0.0541,-0.0184,-0.0016,-0.0044,-0.0184,-0.0233,-0.0324,-0.0505,-0.0637,-0.0643,-0.0599,-0.0563,-0.0277,-0.0041,-0.0115,-0.0398,-0.0222,-0.0211,-0.0187,-0.0168,-0.014,-0.0107,-0.008,-0.0041,-0.0003,0.0033,0.0069,0.0093,0.0104,0.011,0.0115,0.0118,0.0113,0.0102,0.0099,0.0113,0.0148,0.0192,0.0228,0.0247,0.0272,0.0321,0.0387,0.0434,0.0442,0.042,0.0387,0.0387,-0.0236,-0.0195,-0.0165,-0.0135,-0.0135,-0.0201,-0.0475,-0.0821,-0.0989,-0.1025,-0.1003,-0.0972,-0.0923,-0.075,-0.0407,-0.0211,-0.0209,-0.0192,-0.0173,-0.0146,-0.0118,-0.0091,-0.0058,-0.0022,0.0008,0.0041,0.0063,0.0077,0.0082,0.0082,0.0069,0.0041,0.0011,-0.0008,-0.0014,0.0003,0.003,0.0071,0.0121,0.0165,0.0198,0.0211,0.0203,0.0157,0.0096,0.0011,0.0036,-0.0264,-0.0209,-0.0146,-0.011,-0.0118,-0.0126,-0.0093,-0.0074,-0.0099,-0.011,-0.0118,-0.0179,-0.0255,-0.0217,-0.0187,-0.0211,-0.0203,-0.0184,-0.0162,-0.0135,-0.0113,-0.0091,-0.0069,-0.0047,-0.0022,0.0003,0.0027,0.0044,0.0049,0.0041,0.0014,-0.0027,-0.0071,-0.0107,-0.0124,-0.0118,-0.0082,-0.0022,0.0041,0.0088,0.0107,0.0099,0.0066,0.0014,0.0176,0.0423,0.0527,-0.0244,-0.017,-0.0118,-0.0102,-0.011,-0.0118,-0.0091,-0.003,0.0011,0.0005,-0.0022,-0.0047,-0.0063,-0.0104,-0.0168,-0.0198,-0.019,-0.0168,-0.0143,-0.0121,-0.0102,-0.0088,-0.0074,-0.0058,-0.0041,-0.0027,-0.0011,0.0008,0.0016,0.0011,-0.0019,-0.0066,-0.0121,-0.017,-0.0201,-0.0195,-0.0146,-0.0055,0.0058,0.0162,0.0225,0.025,0.0264,0.0393,0.0709,0.0931,0.0937,-0.0233,-0.017,-0.0129,-0.0118,-0.0129,-0.0143,-0.0137,-0.0107,-0.0077,-0.0066,-0.0074,-0.0096,-0.0124,-0.0157,-0.0181,-0.0187,-0.0176,-0.0157,-0.0132,-0.0107,-0.0085,-0.0074,-0.0069,-0.0063,-0.0058,-0.0049,-0.0033,-0.0014,0.0,-0.0005,-0.0036,-0.0088,-0.0151,-0.022,-0.0277,-0.031,-0.0313,-0.0269,-0.0132,0.0088,0.0255,0.0404,0.0629,0.0972,0.1074,0.0876,0.0731,-0.0233,-0.0187,-0.0154,-0.0146,-0.0157,-0.0168,-0.0162,-0.0146,-0.0135,-0.014,-0.0151,-0.0168,-0.0181,-0.019,-0.0187,-0.0181,-0.0165,-0.0143,-0.0115,-0.0088,-0.0066,-0.0055,-0.0049,-0.0052,-0.0055,-0.0055,-0.0044,-0.0025,-0.0011,-0.0022,-0.006,-0.0124,-0.0203,-0.0291,-0.0393,-0.0544,-0.0725,-0.0755,-0.0481,-0.0022,0.0393,0.0799,0.0975,0.084,0.0786,0.0695,0.0456,-0.0255,-0.0217,-0.0179,-0.0148,-0.0135,-0.0137,-0.0148,-0.0159,-0.017,-0.0187,-0.0206,-0.0217,-0.022,-0.0211,-0.0195,-0.0176,-0.0154,-0.0129,-0.0099,-0.0069,-0.0044,-0.0027,-0.0025,-0.003,-0.0036,-0.0038,-0.0036,-0.0027,-0.0033,-0.006,-0.011,-0.0176,-0.025,-0.0346,-0.0508,-0.0742,-0.0876,-0.0648,-0.0242,0.0085,0.0467,0.0574,0.0536,0.0591,0.0492,0.0299,0.0016,-0.0302,-0.0272,-0.0228,-0.017,-0.0113,-0.0085,-0.0099,-0.014,-0.0179,-0.0203,-0.0217,-0.022,-0.0214,-0.0203,-0.0187,-0.0165,-0.0143,-0.0121,-0.0093,-0.0066,-0.0036,-0.0014,-0.0005,-0.0008,-0.0019,-0.0025,-0.0027,-0.0041,-0.0071,-0.0124,-0.0179,-0.0233,-0.0277,-0.031,-0.0319,-0.028,-0.0154,0.0118,0.0288,0.0096,0.0014,0.0264,0.0459,0.0494,0.0404,0.0184,-0.0121,-0.0335,-0.0321,-0.0286,-0.0222,-0.0146,-0.0085,-0.0074,-0.011,-0.0157,-0.019,-0.0201,-0.0198,-0.019,-0.0187,-0.0179,-0.0162,-0.0143,-0.0121,-0.0102,-0.0077,-0.0052,-0.003,-0.0014,-0.0008,-0.0014,-0.0025,-0.0044,-0.0077,-0.0132,-0.0203,-0.0272,-0.0313,-0.0321,-0.0288,-0.017,0.0085,0.0428,0.0758,0.0835,0.0764,0.0725,0.0684,0.0689,0.064,0.05,0.0264,-0.0041,-0.0327,-0.0324,-0.0305,-0.0264,-0.0201,-0.0137,-0.0102,-0.0107,-0.0137,-0.0165,-0.0179,-0.0184,-0.0184,-0.0181,-0.0179,-0.0165,-0.0148,-0.0129,-0.0107,-0.0085,-0.0063,-0.0044,-0.0027,-0.0019,-0.0027,-0.0049,-0.0085,-0.0135,-0.0214,-0.031,-0.0371,-0.039,-0.0393,-0.0363,-0.0264,0.008,0.0503,0.0711,0.0942,0.1274,0.134,0.1044,0.0775,0.0651,0.05,0.0283,0.0063,-0.0277,-0.0283,-0.0277,-0.0258,-0.0222,-0.0179,-0.014,-0.0124,-0.0135,-0.0154,-0.0173,-0.0181,-0.0184,-0.0184,-0.0179,-0.017,-0.0154,-0.0129,-0.0102,-0.0071,-0.0044,-0.0025,-0.0019,-0.0025,-0.0047,-0.0082,-0.0137,-0.0217,-0.0332,-0.0439,-0.0508,-0.0555,-0.0552,-0.0393,0.0011,0.0118,0.0294,0.0667,0.0799,0.1005,0.1225,0.1156,0.084,0.0585,0.0327,0.0088,-0.0071,-0.0217,-0.0228,-0.0231,-0.0228,-0.0217,-0.0195,-0.0162,-0.014,-0.0137,-0.0151,-0.0168,-0.0179,-0.0179,-0.0179,-0.0176,-0.017,-0.0157,-0.0129,-0.0091,-0.0049,-0.0016,0.0008,0.0011,-0.0003,-0.0038,-0.0099,-0.0184,-0.031,-0.0481,-0.0676,-0.0851,-0.0794,-0.0368,0.003,0.0173,0.0115,0.0159,0.0426,0.0618,0.0744,0.0939,0.1033,0.084,0.0508,0.0154,-0.014,-0.0308,-0.0162,-0.0198,-0.0222,-0.0231,-0.022,-0.0198,-0.0173,-0.0148,-0.0137,-0.0143,-0.0154,-0.0162,-0.0162,-0.0165,-0.0168,-0.0168,-0.0159,-0.0132,-0.0091,-0.0044,-0.0003,0.0027,0.0036,0.0019,-0.0016,-0.0082,-0.0209,-0.0442,-0.0775,-0.1118,-0.0997,-0.0475,-0.0154,-0.0033,-0.0011,-0.0014,0.0055,0.0173,0.0341,0.0442,0.0527,0.0651,0.0654,0.0442,0.0107,-0.0143,-0.0236]},{"header":{"parameterUnit":"m.s-1","parameterCategory":2,"la1":30.8641,"la2":29.7642,"lo1":-88.4676,"lo2":-86.9344,"dx":0.0333,"dy":0.0333,"nx":47,"ny":34,"refTime":"2022-11-16T00:00:00:Z","depth":"6","parameterNumber":3,"parameterNumberName":"V-component_of_CURRENTS"},"data":[0,0,0,0,0,0,0,0,0,0,0,0,0,0,0,0,0,0,0,0,0,0,0,0,0,0,0,0,0,0,0,0,0,0,0,0,0,0,0,0,0,0,0,0,0,0,0,0,0,0,0,0,0,0,0,0,0,0,0,0,0,0,0,0,0,0,0,0,0,0,0,0,0,0,0,0,0,0,0,0,0,0,0,0,0,0,0,0,0,0,0,0,0,0,0,0,0,0,0,0,0,0,0,0,0,0,0,0,0,0,0,0,0,0,0,0,0,0,0,0,0,0,0,0,0,0,0,0,0,0,0,0,0,0,0,0,0,0,0,0,0,0,0,0,0,0,0,0,0,0,0,0,0,0,0,0,0,0,0,0,0,0,0,0,0,0,0,0,0,0,0,0,0,0,0,0,0,0,0,0,0,0,0,0,0,0,0,0,0,0,0,0,0,0,0,0,0,0,0,0,0,0,0,0,0,0,0,0,0,0,0,0,0,0,0,0,0,0,0,0,0,0,0,0,0,0,0,0,0,0,0,0,0,0,0,0,0,0,0,0,0,0,0,0,0,0,0,0,0,0,0,0,0,0,0,0,0,0,0,0,0,0,0,0,0,0,0,0,0,0,0,0,0,0,0,0,0,0,0,0,0,0,0,0,0,0,0,0,0,0,0,0,0,0,0,0,0.0121,0.0371,0,0,0,0,0,0,0,0,0,0,0,0,0,0,0,0,0,0,0,0,0,0,0,0,0,0,0,0,0,0,0,0,0,0,0,0,0,0,0,0,0,0,0,0,0.0797,0.0409,0.0179,0.0467,0,0,0,0,0,0,0,0,0,0,0,0,0,0,0,0,0,0,0,0,0,0,0,0,0,0,0,0,0,0,0,0,0,0,0,0,0,0,0,0,0,0,0,0.1195,0.1148,0.0283,0.0206,0,0,0,0,0,0,0,0,0,0,0,0,0,0,0,0,0,0,0,0,0,0,0,0,0,0,0,0,0,0,0,0,0,0,0,0,0,0,0,0,0,0,0.106,0.1302,0.1217,0.0533,-0.0099,0,0,0,0,0,0,0,0,0,0,0,0,0,0,0,0,0,0,0,0,0,0,0,0,0,0,0,0,0,0,0,0,0,0,0,0,0,0,0,0,0,0,0.1107,0.1126,0.0667,0.0327,0.0011,0,0,0,0,0,0,0,0,0,0,0,0,0,0,0,0,0,0,0,0,0,0,0,0,0,0,0,0,0,0,0,0,0,0,0,0,0,0,0,0,0,0,0.122,0.1112,0.0461,0.0187,0.0173,0,0,0,0,0,0,0,0,0,0,0,0,0,0,0,0,0,0,0,0,0,0,0,0,0,0,0,0,0,0,0,0,0,0,0,0,0,0,0,0,0,0,0.1082,0.0904,0.0412,0.0288,0.0247,0,0,0,0,0,0,0,0,0,0,0,0,0,0,0,0,0,0,0,0,0,0,0,0,0,0,0.0077,0.0217,0,0,0,0,0,0,0,0,0,0,0,0,0,0.0876,0.0912,0.0871,0.0448,0.0275,0.0464,0,0,0,0,0,0,0,0,0,0,0,0,0,0,0,0,0,0,0,0,0,0,0.0316,0.0404,0.0615,0.0,0.0038,0.011,0,0,0,0,0,0,0,0,0,0,0,0,0,0.0788,0.097,0.1005,0.0492,0.0275,0.0637,0.0475,0,0,0,0,0,0,0,0,0,0,0,0,0,0,0,0,0,0,0,0,0.1316,0.0157,0.0201,0.0308,0,0,0,0,0,0,0,0,0.0341,0.0184,-0.0077,0,0,0,0,0,0.0843,0.1214,0.1066,0.0525,0.0374,0.0277,0.008,0.0505,0,0,0,0,0,0,0,0,0,0,0,0,0,0,0,0,0,0,0.0893,0.0656,0,0,0,0,0,0,0,0.0437,0,0.0409,0.042,0.0387,0.0195,-0.0195,0,0,0,0,0,0.1003,0.1544,0.109,0.0558,0.0294,-0.0272,-0.0349,0.0456,0.0401,0,0,0,0,0,0,0,0,0,0,0,0,0,0,0,0,0.0618,0.0755,0,0,-0.0011,0.0082,0.0096,0.017,0.0266,0.0346,0.0401,0.0349,0.0445,0.0582,0.064,0.0349,-0.0074,0.0621,0.1132,0.1483,0.0,0.0,0.056,0.1277,0.1434,0.0637,0.0129,-0.05,-0.0294,0.0335,0.0363,0.0236,0,0,0,0,0,0,0,0,0,0,0,0,0.045,0.0236,0.036,0.0253,0.0266,0.0283,-0.0069,0.0041,0.0118,0.0148,0.0228,0.0324,0.0393,0.0387,0.0327,0.0412,0.0829,0.0917,0.0948,0.0082,0.031,0.1231,0.1387,0,0,0,0.1274,0.2206,0.0346,0.0044,-0.0269,-0.0104,0.0129,0.0129,0.0118,0,0,0,0,0,0,0,0.0316,-0.0008,0.0192,0.0211,0.0247,0.0332,0.0148,0.0047,-0.0132,-0.0008,0.0269,0.0033,0.0129,0.0173,0.0225,0.0313,0.0407,0.045,0.0401,0.0154,0.017,0.1121,0.1211,0.1566,0,0,0.1162,0.1252,0.0906,0.0972,0.1772,0.078,0.2101,0,0,0,0,0,0,0,0,0.0005,0.0102,0.0129,0.0132,0.0162,0.0179,0.0277,0.0124,0.0206,0.0211,0.0228,0.0192,0.0071,0.0011,-0.0011,0.0146,0.0247,0.0179,0.0192,0.0209,0.0261,0.0352,0.0428,0.0448,0.039,0,0,0.1003,0.1041,0.1214,0.0519,0.0288,0.0832,0.1167,0.1214,0.1354,0.1486,0,0.1277,0.0514,0.033,0.0118,0.0104,0.0074,0.0077,0.0085,0.0088,0.0041,0.0124,0.0151,0.0157,0.0176,0.0181,0.0179,0.0162,0.0209,0.0211,0.0203,0.0154,0.0085,0.006,0.0093,0.0195,0.0255,0.0261,0.0247,0.0253,0.0297,0.0365,0.0412,0.0412,0.0368,0.0214,0.0247,0.0483,0.0486,0.0574,0.047,0.0242,0.0379,0.0651,0.0813,0.1123,0.1055,0.0846,0.1027,0.0407,0.0308,0.0137,0.0118,0.0088,0.0091,0.0099,0.0102,0.0107,0.0165,0.0187,0.0198,0.0198,0.0187,0.0168,0.0168,0.0181,0.0184,0.0165,0.0126,0.0091,0.0099,0.0154,0.0228,0.0283,0.0305,0.0308,0.031,0.0327,0.0357,0.0368,0.0354,0.0365,0.0242,0.0269,0.0305,0.0387,0.0445,0.036,0.0151,0.0137,0.0338,0.0483,0.056,0.0547,0.0475,0.0297,0.0316,0.0266,0.017,0.0137,0.0118,0.0118,0.0124,0.0132,0.0148,0.019,0.0211,0.0217,0.0203,0.0184,0.0168,0.0157,0.0151,0.0137,0.0121,0.0099,0.0088,0.0115,0.0181,0.0258,0.0313,0.0335,0.0341,0.0335,0.031,0.0286,0.0294,0.0305,0.0368,0.0297,0.0319,0.0338,0.0382,0.0371,0.0297,0.0162,0.0118,0.0316,0.0478,0.0486,0.0357,0.0233,0.0288,0.0393,0.0244,0.019,0.0154,0.0137,0.0135,0.014,0.0151,0.0168,0.0198,0.0217,0.0222,0.0209,0.0187,0.0165,0.014,0.011,0.0082,0.0066,0.0058,0.0066,0.0113,0.0201,0.0297,0.0357,0.0357,0.0324,0.0297,0.0242,0.0214,0.0253,0.0192,0.0022,0.0346,0.0363,0.0363,0.0354,0.0324,0.0286,0.0233,0.0233,0.0354,0.045,0.0431,0.033,0.0277,0.0302,0.0302,0.0239,0.0198,0.0168,0.0154,0.0146,0.0148,0.0157,0.017,0.0195,0.0209,0.0217,0.0209,0.019,0.0162,0.0115,0.006,0.0016,-0.0005,-0.0005,0.0027,0.0115,0.0258,0.0398,0.0464,0.042,0.0319,0.0258,0.0214,0.0148,-0.003,-0.0154,-0.0412,0.039,0.0385,0.0357,0.031,0.0275,0.0261,0.0261,0.0288,0.0352,0.0396,0.0363,0.0286,0.0242,0.0244,0.0247,0.0225,0.0201,0.0176,0.0165,0.0159,0.0154,0.0154,0.0165,0.0179,0.0192,0.0206,0.0206,0.0192,0.0157,0.0082,0.0,-0.006,-0.0088,-0.008,-0.0014,0.0132,0.0327,0.0519,0.0656,0.0629,0.0481,0.0456,0.0211,0.0025,-0.0091,-0.0168,-0.0297,0.0426,0.0404,0.0352,0.0283,0.0236,0.0236,0.0261,0.0297,0.0335,0.0349,0.031,0.0247,0.0211,0.022,0.0231,0.022,0.0203,0.019,0.0184,0.0173,0.0162,0.0154,0.0151,0.0159,0.0173,0.019,0.0201,0.0192,0.0137,0.0033,-0.0074,-0.0143,-0.017,-0.0157,-0.0082,0.0038,0.0233,0.0571,0.0895,0.0931,0.0626,0.0363,0.0294,0.0211,0.0266,0.0168,-0.0022,0.045,0.0426,0.0371,0.0297,0.0242,0.0233,0.0253,0.0283,0.0305,0.0305,0.0272,0.0225,0.0206,0.022,0.0231,0.0225,0.0214,0.0209,0.0203,0.0195,0.0176,0.0154,0.0137,0.0135,0.0148,0.0173,0.0192,0.0173,0.0082,-0.0049,-0.0159,-0.0217,-0.0239,-0.0242,-0.0242,-0.0214,0.0047,0.0681,0.1079,0.106,0.0692,0.0319,0.0374,0.0467,0.0412,0.0294,0.0129,0.0459,0.0445,0.0407,0.0349,0.0291,0.025,0.0236,0.0247,0.0266,0.0266,0.0244,0.022,0.0211,0.0231,0.0242,0.0239,0.0231,0.0228,0.0225,0.0214,0.0192,0.0157,0.0124,0.0113,0.0126,0.0157,0.0176,0.0124,-0.0014,-0.0165,-0.0236,-0.0255,-0.0266,-0.0286,-0.0332,-0.0313,0.0099,0.086,0.1154,0.1266,0.1074,0.0637,0.0294,0.0291,0.0275,0.0209,0.0154,0.0448,0.0448,0.0434,0.0404,0.0352,0.0283,0.0222,0.0206,0.0228,0.0239,0.0231,0.022,0.0225,0.0242,0.0255,0.0261,0.025,0.0244,0.0242,0.0231,0.0206,0.0162,0.0118,0.0102,0.0113,0.0137,0.0132,0.0036,-0.0148,-0.0264,-0.0266,-0.0253,-0.025,-0.0244,-0.019,0.0091,0.0549,0.1008,0.1126,0.1239,0.1159,0.0516,-0.0014,-0.0217,-0.0255,-0.0277,-0.0239,0.0426,0.0439,0.0445,0.0437,0.0398,0.0319,0.0228,0.0187,0.0198,0.022,0.0225,0.0225,0.0236,0.0255,0.0272,0.028,0.0272,0.0261,0.0255,0.0242,0.0209,0.0162,0.0115,0.0093,0.0099,0.0102,0.0047,-0.0107,-0.0283,-0.0299,-0.0253,-0.0233,-0.0222,-0.0118,0.0184,0.0448,0.0862,0.0937,0.0772,0.0632,0.0651,0.014,-0.0538,-0.0945,-0.1082,-0.1123,-0.1035,0.0398,0.0426,0.0439,0.0442,0.0415,0.0343,0.0255,0.0195,0.019,0.0209,0.0222,0.0233,0.025,0.0269,0.0286,0.0291,0.0288,0.0277,0.0269,0.0253,0.0214,0.0162,0.0113,0.0082,0.0069,0.003,-0.0088,-0.0272,-0.0354,-0.0308,-0.0253,-0.0187,-0.0019,0.0154,0.0313,0.0393,0.0689,0.0783,0.0475,0.0253,0.0294,-0.0104,-0.0956,-0.1607,-0.1876,-0.1953,-0.1851,0.0374,0.0412,0.0434,0.0437,0.0407,0.0346,0.0277,0.0222,0.0195,0.0206,0.0225,0.0242,0.0258,0.0277,0.0288,0.0294,0.0297,0.0299,0.0294,0.0275,0.0233,0.0173,0.0118,0.0069,0.0019,-0.0077,-0.0247,-0.0404,-0.0415,-0.0343,0.0022,0.0299,0.0319,0.0239,0.011,0.031,0.0516,0.075,0.0467,0.0154,0.0162,-0.0198,-0.1121,-0.1947,-0.2291,-0.231,-0.2137,0.0341,0.0385,0.042,0.0428,0.0398,0.0343,0.0294,0.025,0.0217,0.0211,0.0228,0.0247,0.0261,0.0269,0.0277,0.0286,0.0302,0.0319,0.0324,0.0305,0.0264,0.0198,0.0129,0.0052,-0.0055,-0.0209,-0.0417,-0.0569,-0.0582,-0.0176,0.0439,0.05,0.0236,0.0033,0.0038,0.0181,0.0489,0.0731,0.0445,0.0074,0.0052,-0.0253,-0.1134,-0.2008,-0.2395,-0.234,-0.209]}],[{"header":{"parameterUnit":"m.s-1","parameterCategory":2,"la1":30.8641,"la2":29.7642,"lo1":-88.4676,"lo2":-86.9344,"dx":0.0333,"dy":0.0333,"nx":47,"ny":34,"refTime":"2022-11-16T00:00:00:Z","depth":"8","parameterNumber":2,"parameterNumberName":"U-component_of_CURRENTS"},"data":[0,0,0,0,0,0,0,0,0,0,0,0,0,0,0,0,0,0,0,0,0,0,0,0,0,0,0,0,0,0,0,0,0,0,0,0,0,0,0,0,0,0,0,0,0,0,0,0,0,0,0,0,0,0,0,0,0,0,0,0,0,0,0,0,0,0,0,0,0,0,0,0,0,0,0,0,0,0,0,0,0,0,0,0,0,0,0,0,0,0,0,0,0,0,0,0,0,0,0,0,0,0,0,0,0,0,0,0,0,0,0,0,0,0,0,0,0,0,0,0,0,0,0,0,0,0,0,0,0,0,0,0,0,0,0,0,0,0,0,0,0,0,0,0,0,0,0,0,0,0,0,0,0,0,0,0,0,0,0,0,0,0,0,0,0,0,0,0,0,0,0,0,0,0,0,0,0,0,0,0,0,0,0,0,0,0,0,0,0,0,0,0,0,0,0,0,0,0,0,0,0,0,0,0,0,0,0,0,0,0,0,0,0,0,0,0,0,0,0,0,0,0,0,0,0,0,0,0,0,0,0,0,0,0,0,0,0,0,0,0,0,0,0,0,0,0,0,0,0,0,0,0,0,0,0,0,0,0,0,0,0,0,0,0,0,0,0,0,0,0,0,0,0,0,0,0,0,0,0,0,0,0,0,0,0,0,0,0,0,0,0,0,0,0,0,0,-0.0129,-0.0258,0,0,0,0,0,0,0,0,0,0,0,0,0,0,0,0,0,0,0,0,0,0,0,0,0,0,0,0,0,0,0,0,0,0,0,0,0,0,0,0,0,0,0,0,0.0027,-0.0159,-0.0299,-0.022,0,0,0,0,0,0,0,0,0,0,0,0,0,0,0,0,0,0,0,0,0,0,0,0,0,0,0,0,0,0,0,0,0,0,0,0,0,0,0,0,0,0,0,0.0126,0.0291,0.0173,0.0014,0,0,0,0,0,0,0,0,0,0,0,0,0,0,0,0,0,0,0,0,0,0,0,0,0,0,0,0,0,0,0,0,0,0,0,0,0,0,0,0,0,0,0.0258,0.0549,0.0533,0.0305,0.0129,0,0,0,0,0,0,0,0,0,0,0,0,0,0,0,0,0,0,0,0,0,0,0,0,0,0,0,0,0,0,0,0,0,0,0,0,0,0,0,0,0,0,0.0058,0.0374,0.0508,0.0228,0.0074,0,0,0,0,0,0,0,0,0,0,0,0,0,0,0,0,0,0,0,0,0,0,0,0,0,0,0,0,0,0,0,0,0,0,0,0,0,0,0,0,0,0,0.0148,0.0472,0.0511,0.0168,-0.0038,0,0,0,0,0,0,0,0,0,0,0,0,0,0,0,0,0,0,0,0,0,0,0,0,0,0,0,0,0,0,0,0,0,0,0,0,0,0,0,0,0,0,0.0376,0.0577,0.0591,0.0206,-0.0069,0,0,0,0,0,0,0,0,0,0,0,0,0,0,0,0,0,0,0,0,0,0,0,0,0,0,-0.0025,-0.0049,0,0,0,0,0,0,0,0,0,0,0,0,0,0.0025,0.0272,0.0629,0.086,0.0396,-0.0154,0,0,0,0,0,0,0,0,0,0,0,0,0,0,0,0,0,0,0,0,0,0,0.0308,0.0574,0.0709,0.056,0.0258,0.0286,0,0,0,0,0,0,0,0,0,0,0,0,0,0.0022,0.0297,0.0799,0.1211,0.0802,-0.011,-0.0426,0,0,0,0,0,0,0,0,0,0,0,0,0,0,0,0,0,0,0,0,0.0516,0.0992,0.0731,0.0516,0,0,0,0,0,0,0,0,0.0085,0.019,0.0211,0,0,0,0,0,-0.0063,0.025,0.0917,0.1447,0.1274,0.0206,-0.0349,-0.0231,0,0,0,0,0,0,0,0,0,0,0,0,0,0,0,0,0,0,0.0755,0.095,0,0,0,0,0,0,0,0.0192,0,0.011,0.0327,0.042,0.0514,0.0618,0,0,0,0,0,0.0005,0.031,0.0851,0.1382,0.1129,-0.008,-0.0266,0.0088,-0.0052,0,0,0,0,0,0,0,0,0,0,0,0,0,0,0,0,0.0434,0.0385,0,0,-0.0104,-0.0074,0.0,0.0107,0.0286,0.0549,0.0689,0.014,0.0217,0.0299,0.0508,0.064,0.0374,-0.0049,-0.0033,0.0437,0.0937,0.1121,0.0928,0.0566,0.0618,0.125,0.1318,0.0456,0.0115,0.0217,-0.0005,-0.0124,0,0,0,0,0,0,0,0,0,0,0,0,0.0198,0.0481,0.0448,0.0343,-0.0088,-0.0082,0.011,0.0148,0.0222,0.0297,0.0382,0.0475,0.0574,0.0654,0.0,0.0011,0.0239,0.0376,0.0514,0.0052,-0.0538,-0.0148,0.0198,0,0,0,-0.0203,0.0302,0.1118,0.139,0.1195,0.0829,0.0643,0.0365,0.0239,0,0,0,0,0,0,0,0.0033,0.0132,0.0253,0.0379,0.0552,0.0591,0.0472,0.0357,0.0283,0.0277,0.0291,0.0349,0.0445,0.0494,0.0536,0.0582,0.0629,0.0665,0.0681,-0.0198,-0.0387,-0.0085,0.0063,-0.0137,0,0,0.0154,0.0423,0.0492,0.047,0.1011,0.0651,-0.0225,0,0,0,0,0,0,0,0,-0.0036,-0.0052,-0.0003,0.0066,0.0151,0.0269,0.0275,0.0239,0.0286,0.0316,0.0324,0.0313,0.0313,0.033,0.0368,0.0409,0.0417,0.047,0.056,0.0613,0.0643,0.0656,0.0656,0.0651,0.0654,0,0,-0.006,-0.0211,-0.0486,-0.0459,-0.0066,0.0481,0.0596,0.0525,0.0286,0.0129,0,-0.0308,-0.0566,-0.0398,-0.0239,-0.019,-0.0162,-0.0143,-0.0107,-0.0063,-0.0022,0.0008,0.0038,0.008,0.0115,0.0135,0.0146,0.0159,0.017,0.0176,0.0187,0.0192,0.0203,0.0236,0.0294,0.0352,0.0393,0.0434,0.0475,0.0516,0.0555,0.0577,0.0577,0.0555,0.0538,-0.0184,-0.0019,-0.0047,-0.019,-0.0233,-0.0316,-0.0404,-0.0398,-0.033,-0.0203,0.0222,0.0253,0.0332,-0.0121,-0.0407,-0.0217,-0.0211,-0.0187,-0.0168,-0.014,-0.0107,-0.0077,-0.0041,-0.0003,0.0033,0.0069,0.0093,0.0104,0.011,0.0115,0.0118,0.0113,0.0102,0.0096,0.011,0.0146,0.019,0.0225,0.0244,0.0272,0.0321,0.0385,0.0431,0.0439,0.0417,0.0385,0.0387,-0.0236,-0.0195,-0.0165,-0.0135,-0.0137,-0.0201,-0.0415,-0.0676,-0.0819,-0.0851,-0.0766,-0.0585,-0.0478,-0.0434,-0.0299,-0.0209,-0.0209,-0.019,-0.017,-0.0146,-0.0118,-0.0088,-0.0055,-0.0022,0.0011,0.0041,0.0063,0.0077,0.0082,0.0082,0.0069,0.0041,0.0011,-0.0011,-0.0016,0.0,0.0027,0.0069,0.0118,0.0165,0.0198,0.0211,0.0201,0.0154,0.0096,0.0011,0.0038,-0.0264,-0.0206,-0.0146,-0.011,-0.0118,-0.0126,-0.0093,-0.0071,-0.0091,-0.0107,-0.0126,-0.0157,-0.0192,-0.0181,-0.0184,-0.0211,-0.0203,-0.0184,-0.0159,-0.0135,-0.011,-0.0091,-0.0069,-0.0044,-0.0019,0.0005,0.0027,0.0044,0.0049,0.0041,0.0014,-0.0027,-0.0071,-0.0107,-0.0126,-0.0121,-0.0085,-0.0025,0.0041,0.0091,0.011,0.0099,0.0066,0.0016,0.0176,0.0423,0.0527,-0.0244,-0.017,-0.0118,-0.0102,-0.011,-0.0118,-0.0093,-0.0033,0.0011,0.0005,-0.0025,-0.0049,-0.0066,-0.0104,-0.0168,-0.0198,-0.019,-0.0168,-0.0143,-0.0118,-0.0102,-0.0085,-0.0071,-0.0055,-0.0041,-0.0027,-0.0008,0.0008,0.0016,0.0008,-0.0022,-0.0069,-0.0124,-0.0173,-0.0206,-0.0201,-0.0148,-0.0055,0.006,0.0165,0.0228,0.025,0.0264,0.0393,0.0709,0.0934,0.0939,-0.0233,-0.017,-0.0129,-0.0118,-0.0132,-0.0146,-0.0137,-0.0107,-0.0074,-0.0066,-0.0077,-0.0099,-0.0129,-0.0157,-0.0181,-0.0187,-0.0176,-0.0157,-0.0132,-0.0104,-0.0085,-0.0074,-0.0066,-0.006,-0.0055,-0.0047,-0.0033,-0.0014,0.0,-0.0008,-0.0038,-0.0091,-0.0157,-0.0225,-0.028,-0.031,-0.031,-0.0266,-0.0129,0.0091,0.0258,0.0407,0.0632,0.0972,0.1074,0.0876,0.0731,-0.0233,-0.0187,-0.0157,-0.0148,-0.0157,-0.0165,-0.0159,-0.0143,-0.0135,-0.014,-0.0154,-0.017,-0.0181,-0.019,-0.0187,-0.0179,-0.0165,-0.0143,-0.0115,-0.0088,-0.0066,-0.0052,-0.0049,-0.0052,-0.0055,-0.0052,-0.0044,-0.0025,-0.0014,-0.0025,-0.0066,-0.0132,-0.0209,-0.0294,-0.0396,-0.0541,-0.072,-0.0747,-0.0475,-0.0019,0.0396,0.0802,0.0978,0.084,0.0786,0.0698,0.0459,-0.0253,-0.0217,-0.0181,-0.0151,-0.0135,-0.0137,-0.0148,-0.0157,-0.017,-0.0187,-0.0206,-0.022,-0.022,-0.0209,-0.0195,-0.0176,-0.0154,-0.0126,-0.0099,-0.0069,-0.0044,-0.0027,-0.0022,-0.0027,-0.0036,-0.0038,-0.0033,-0.0027,-0.0036,-0.0066,-0.0118,-0.0181,-0.0255,-0.0349,-0.0508,-0.0736,-0.0868,-0.0645,-0.0236,0.0093,0.0475,0.0577,0.0538,0.0591,0.0492,0.0302,0.0019,-0.0302,-0.0272,-0.0231,-0.0173,-0.0115,-0.0088,-0.0099,-0.014,-0.0179,-0.0203,-0.0217,-0.0222,-0.0214,-0.0203,-0.0184,-0.0165,-0.0143,-0.0118,-0.0093,-0.0066,-0.0036,-0.0014,-0.0005,-0.0008,-0.0019,-0.0025,-0.0027,-0.0041,-0.0077,-0.0129,-0.019,-0.0239,-0.028,-0.031,-0.0319,-0.0277,-0.0148,0.0121,0.0294,0.0107,0.0022,0.0269,0.0464,0.0497,0.0404,0.0187,-0.0118,-0.0332,-0.0319,-0.0286,-0.0225,-0.0148,-0.0091,-0.0077,-0.0113,-0.0157,-0.0187,-0.0201,-0.0198,-0.019,-0.0184,-0.0176,-0.0162,-0.014,-0.0121,-0.0099,-0.0077,-0.0052,-0.003,-0.0014,-0.0008,-0.0014,-0.0025,-0.0044,-0.0082,-0.014,-0.0211,-0.0277,-0.0316,-0.0324,-0.0288,-0.0168,0.0085,0.0431,0.0761,0.0838,0.0772,0.0733,0.0692,0.0695,0.0643,0.0503,0.0264,-0.0038,-0.0324,-0.0321,-0.0302,-0.0261,-0.0203,-0.014,-0.0104,-0.011,-0.0137,-0.0165,-0.0179,-0.0184,-0.0184,-0.0181,-0.0176,-0.0165,-0.0146,-0.0126,-0.0107,-0.0085,-0.0063,-0.0044,-0.0027,-0.0022,-0.003,-0.0052,-0.0088,-0.0143,-0.0222,-0.0316,-0.0374,-0.039,-0.0393,-0.0363,-0.0261,0.0082,0.0505,0.0711,0.0945,0.1274,0.1346,0.1052,0.0783,0.0656,0.0503,0.0286,0.0063,-0.0275,-0.028,-0.0275,-0.0255,-0.0222,-0.0181,-0.0143,-0.0129,-0.0135,-0.0154,-0.017,-0.0181,-0.0184,-0.0181,-0.0179,-0.0168,-0.0151,-0.0129,-0.0099,-0.0071,-0.0044,-0.0027,-0.0022,-0.0027,-0.0047,-0.0085,-0.0146,-0.0228,-0.0341,-0.0445,-0.0511,-0.0555,-0.0549,-0.039,0.0014,0.0121,0.0297,0.0667,0.0802,0.1005,0.1231,0.1162,0.0849,0.0591,0.0332,0.0091,-0.0071,-0.0214,-0.0225,-0.0228,-0.0225,-0.0214,-0.0195,-0.0165,-0.0143,-0.014,-0.0151,-0.0168,-0.0176,-0.0179,-0.0176,-0.0173,-0.0168,-0.0154,-0.0126,-0.0091,-0.0049,-0.0016,0.0005,0.0011,-0.0003,-0.0038,-0.0104,-0.0192,-0.0321,-0.0486,-0.0676,-0.0849,-0.0791,-0.0368,0.003,0.0176,0.0115,0.0162,0.0428,0.0618,0.0747,0.0942,0.1041,0.0846,0.0514,0.0159,-0.0137,-0.0305,-0.0162,-0.0195,-0.022,-0.0225,-0.0217,-0.0198,-0.0173,-0.0151,-0.014,-0.0143,-0.0154,-0.0159,-0.0159,-0.0162,-0.0165,-0.0168,-0.0157,-0.0132,-0.0091,-0.0044,-0.0003,0.0025,0.0033,0.0019,-0.0019,-0.0088,-0.022,-0.045,-0.0777,-0.1112,-0.0992,-0.0472,-0.0154,-0.0033,-0.0011,-0.0014,0.0058,0.0176,0.0341,0.0442,0.053,0.0656,0.0662,0.045,0.0113,-0.0137,-0.0236]},{"header":{"parameterUnit":"m.s-1","parameterCategory":2,"la1":30.8641,"la2":29.7642,"lo1":-88.4676,"lo2":-86.9344,"dx":0.0333,"dy":0.0333,"nx":47,"ny":34,"refTime":"2022-11-16T00:00:00:Z","depth":"8","parameterNumber":3,"parameterNumberName":"V-component_of_CURRENTS"},"data":[0,0,0,0,0,0,0,0,0,0,0,0,0,0,0,0,0,0,0,0,0,0,0,0,0,0,0,0,0,0,0,0,0,0,0,0,0,0,0,0,0,0,0,0,0,0,0,0,0,0,0,0,0,0,0,0,0,0,0,0,0,0,0,0,0,0,0,0,0,0,0,0,0,0,0,0,0,0,0,0,0,0,0,0,0,0,0,0,0,0,0,0,0,0,0,0,0,0,0,0,0,0,0,0,0,0,0,0,0,0,0,0,0,0,0,0,0,0,0,0,0,0,0,0,0,0,0,0,0,0,0,0,0,0,0,0,0,0,0,0,0,0,0,0,0,0,0,0,0,0,0,0,0,0,0,0,0,0,0,0,0,0,0,0,0,0,0,0,0,0,0,0,0,0,0,0,0,0,0,0,0,0,0,0,0,0,0,0,0,0,0,0,0,0,0,0,0,0,0,0,0,0,0,0,0,0,0,0,0,0,0,0,0,0,0,0,0,0,0,0,0,0,0,0,0,0,0,0,0,0,0,0,0,0,0,0,0,0,0,0,0,0,0,0,0,0,0,0,0,0,0,0,0,0,0,0,0,0,0,0,0,0,0,0,0,0,0,0,0,0,0,0,0,0,0,0,0,0,0,0,0,0,0,0,0,0,0,0,0,0,0,0,0,0,0,0,0.0242,0.0291,0,0,0,0,0,0,0,0,0,0,0,0,0,0,0,0,0,0,0,0,0,0,0,0,0,0,0,0,0,0,0,0,0,0,0,0,0,0,0,0,0,0,0,0,0.0387,0.0481,0.0412,0.039,0,0,0,0,0,0,0,0,0,0,0,0,0,0,0,0,0,0,0,0,0,0,0,0,0,0,0,0,0,0,0,0,0,0,0,0,0,0,0,0,0,0,0,0.0676,0.0681,0.0519,0.0396,0,0,0,0,0,0,0,0,0,0,0,0,0,0,0,0,0,0,0,0,0,0,0,0,0,0,0,0,0,0,0,0,0,0,0,0,0,0,0,0,0,0,0.0709,0.086,0.0563,0.0519,0.0453,0,0,0,0,0,0,0,0,0,0,0,0,0,0,0,0,0,0,0,0,0,0,0,0,0,0,0,0,0,0,0,0,0,0,0,0,0,0,0,0,0,0,0.0802,0.0742,0.0407,0.0492,0.0566,0,0,0,0,0,0,0,0,0,0,0,0,0,0,0,0,0,0,0,0,0,0,0,0,0,0,0,0,0,0,0,0,0,0,0,0,0,0,0,0,0,0,0.0964,0.0596,0.0264,0.0426,0.0574,0,0,0,0,0,0,0,0,0,0,0,0,0,0,0,0,0,0,0,0,0,0,0,0,0,0,0,0,0,0,0,0,0,0,0,0,0,0,0,0,0,0,0.0794,0.0431,0.0165,0.0483,0.0522,0,0,0,0,0,0,0,0,0,0,0,0,0,0,0,0,0,0,0,0,0,0,0,0,0,0,0.0077,0.0222,0,0,0,0,0,0,0,0,0,0,0,0,0,0.0742,0.0632,0.0412,0.0146,0.0453,0.0582,0,0,0,0,0,0,0,0,0,0,0,0,0,0,0,0,0,0,0,0,0,0,0.072,0.0489,0.0607,0.0,0.0038,0.0113,0,0,0,0,0,0,0,0,0,0,0,0,0,0.0854,0.0687,0.0434,0.0201,0.0374,0.0819,0.05,0,0,0,0,0,0,0,0,0,0,0,0,0,0,0,0,0,0,0,0,0.1082,0.036,0.0244,0.0302,0,0,0,0,0,0,0,0,0.0349,0.0217,-0.0036,0,0,0,0,0,0.0731,0.0667,0.0442,0.0261,0.0593,0.1156,0.0492,0.0327,0,0,0,0,0,0,0,0,0,0,0,0,0,0,0,0,0,0,0.0733,0.0541,0,0,0,0,0,0,0,0.0445,0,0.042,0.0445,0.0393,0.0319,0.0225,0,0,0,0,0,0.0747,0.0623,0.0508,0.0404,0.0865,0.0923,0.0294,0.0363,0.0401,0,0,0,0,0,0,0,0,0,0,0,0,0,0,0,0,0.0654,0.075,0,0,0.0,0.0096,0.011,0.0184,0.0277,0.0357,0.0412,0.0382,0.0456,0.0621,0.0552,0.0533,0.0698,0.1137,0.1285,0.1096,0.0,0.0,0.0423,0.0393,0.0739,0.0541,0.0799,0.0483,0.0093,0.0335,0.0365,0.0247,0,0,0,0,0,0,0,0,0,0,0,0,0.0461,0.0255,0.0387,0.0486,0.0604,0.0291,-0.0063,0.0047,0.0129,0.0159,0.0239,0.0335,0.0407,0.0401,0.0354,0.0511,0.0843,0.0898,0.0959,0.0453,0.0569,0.109,0.0895,0,0,0,0.0733,0.1217,0.0266,0.033,0.0206,0.0038,0.0135,0.0135,0.0124,0,0,0,0,0,0,0,0.0327,0.0016,0.0211,0.0231,0.0264,0.0346,0.0162,0.0063,-0.0041,0.0069,0.0275,0.0038,0.0137,0.0187,0.0239,0.0324,0.0417,0.0461,0.0415,0.0165,0.0264,0.0959,0.111,0.1203,0,0,0.075,0.0717,0.0497,0.0588,0.1178,0.0634,0.134,0,0,0,0,0,0,0,0,0.0027,0.0118,0.0143,0.0148,0.0179,0.0192,0.0291,0.014,0.022,0.0222,0.0239,0.0203,0.008,0.0016,-0.0003,0.0151,0.0255,0.019,0.0203,0.022,0.0272,0.036,0.0437,0.0456,0.0398,0,0,0.0857,0.0898,0.0923,0.0563,0.0407,0.0879,0.1025,0.0753,0.0777,0.092,0,0.0945,0.0566,0.0338,0.014,0.0126,0.0096,0.0099,0.0107,0.0107,0.006,0.014,0.0165,0.017,0.019,0.0195,0.0192,0.0176,0.022,0.022,0.0211,0.0162,0.0093,0.0069,0.0102,0.0206,0.0266,0.0272,0.0258,0.0264,0.0305,0.0374,0.042,0.042,0.0376,0.0236,0.0264,0.0505,0.0541,0.0582,0.0483,0.0343,0.0634,0.1025,0.1351,0.1365,0.0956,0.0928,0.0788,0.0486,0.0313,0.0157,0.0137,0.011,0.011,0.0118,0.0121,0.0124,0.0179,0.0201,0.0209,0.0209,0.0198,0.0181,0.0179,0.0192,0.0195,0.0179,0.0137,0.0104,0.0113,0.0168,0.0242,0.0297,0.0316,0.0316,0.0321,0.0338,0.0365,0.0379,0.0365,0.0374,0.0258,0.028,0.0321,0.0398,0.045,0.0368,0.0203,0.0308,0.0574,0.0747,0.0802,0.0816,0.081,0.0681,0.0431,0.0272,0.0187,0.0157,0.0135,0.0135,0.014,0.0148,0.0162,0.0201,0.0222,0.0228,0.0214,0.0195,0.0179,0.0168,0.0162,0.0151,0.0135,0.0113,0.0104,0.0132,0.0198,0.0272,0.0327,0.0349,0.0352,0.0346,0.0321,0.0297,0.0305,0.0313,0.0376,0.0308,0.033,0.0349,0.039,0.0382,0.0308,0.0179,0.0165,0.0376,0.0525,0.0522,0.0456,0.0404,0.0385,0.0401,0.0253,0.0203,0.0168,0.0151,0.0148,0.0154,0.0162,0.0181,0.0209,0.0228,0.0233,0.022,0.0198,0.0176,0.0151,0.0124,0.0096,0.0082,0.0071,0.0082,0.0132,0.022,0.0316,0.0374,0.0371,0.0338,0.0308,0.0253,0.0225,0.0264,0.0203,0.0033,0.0357,0.0374,0.0376,0.0368,0.0338,0.0299,0.0247,0.0247,0.0365,0.0461,0.0439,0.0338,0.0286,0.0313,0.031,0.0247,0.0209,0.0179,0.0165,0.0159,0.0159,0.0168,0.0181,0.0203,0.022,0.0228,0.022,0.0201,0.0173,0.0126,0.0071,0.0033,0.0011,0.0011,0.0047,0.0137,0.0277,0.0412,0.0478,0.0434,0.0332,0.0269,0.0228,0.0159,-0.0019,-0.0143,-0.0404,0.0404,0.0398,0.0371,0.0327,0.0288,0.0275,0.0275,0.0302,0.0363,0.0407,0.0376,0.0297,0.025,0.0255,0.0258,0.0236,0.0211,0.0187,0.0176,0.0168,0.0165,0.0165,0.0173,0.019,0.0203,0.0214,0.0217,0.0203,0.0165,0.0093,0.0014,-0.0044,-0.0069,-0.006,0.0005,0.0148,0.0338,0.0527,0.0662,0.0634,0.0489,0.0464,0.0222,0.0033,-0.0082,-0.0157,-0.0288,0.0437,0.0415,0.0363,0.0294,0.025,0.025,0.0275,0.031,0.0346,0.0363,0.0324,0.0258,0.0222,0.0231,0.0239,0.0228,0.0211,0.0198,0.019,0.0181,0.017,0.0162,0.0162,0.0168,0.0184,0.0201,0.0211,0.0203,0.0148,0.0047,-0.0058,-0.0126,-0.0151,-0.0137,-0.0069,0.0049,0.0242,0.0577,0.0906,0.0939,0.0637,0.0371,0.0305,0.0222,0.0275,0.0176,-0.0014,0.0459,0.0434,0.0379,0.0305,0.0253,0.0242,0.0266,0.0297,0.0319,0.0316,0.0283,0.0236,0.0214,0.0228,0.0239,0.0233,0.0222,0.0214,0.0211,0.0201,0.0184,0.0162,0.0146,0.0146,0.0159,0.0184,0.0206,0.0187,0.0099,-0.0033,-0.014,-0.0198,-0.022,-0.0225,-0.0228,-0.0203,0.006,0.0692,0.1096,0.1074,0.0703,0.033,0.0385,0.0478,0.0423,0.0302,0.0137,0.0467,0.045,0.0412,0.0354,0.0297,0.0255,0.0244,0.0258,0.0277,0.0277,0.0255,0.0228,0.022,0.0239,0.025,0.0247,0.0239,0.0236,0.0233,0.0222,0.0201,0.0165,0.0135,0.0124,0.0137,0.017,0.0187,0.014,0.0003,-0.0143,-0.0214,-0.0236,-0.025,-0.0272,-0.0321,-0.0299,0.0113,0.0873,0.1167,0.1277,0.1085,0.0651,0.0308,0.0305,0.0286,0.0222,0.0168,0.0459,0.0459,0.0442,0.0409,0.036,0.0288,0.0228,0.0217,0.0239,0.025,0.0242,0.0231,0.0233,0.025,0.0266,0.0269,0.0261,0.0253,0.025,0.0239,0.0214,0.017,0.0129,0.011,0.0124,0.0151,0.0146,0.0052,-0.0126,-0.0242,-0.0244,-0.0236,-0.0233,-0.0233,-0.0179,0.0102,0.0558,0.1016,0.1137,0.1247,0.117,0.053,0.0,-0.0206,-0.0244,-0.0266,-0.0225,0.0437,0.0453,0.0456,0.0445,0.0407,0.0327,0.0236,0.0195,0.0209,0.0231,0.0236,0.0236,0.0247,0.0266,0.0283,0.0288,0.028,0.0269,0.0264,0.025,0.022,0.0173,0.0126,0.0104,0.011,0.0113,0.0063,-0.0085,-0.0258,-0.0277,-0.0233,-0.0217,-0.0209,-0.011,0.0192,0.0456,0.0871,0.0945,0.078,0.0643,0.0662,0.0157,-0.0525,-0.0934,-0.1071,-0.111,-0.1025,0.0412,0.0439,0.0453,0.0456,0.0426,0.0352,0.0264,0.0203,0.0201,0.0217,0.0233,0.0244,0.0258,0.028,0.0297,0.0302,0.0297,0.0288,0.028,0.0264,0.0225,0.0173,0.0126,0.0096,0.0082,0.0044,-0.0069,-0.025,-0.0332,-0.0288,-0.0239,-0.0179,-0.0011,0.0159,0.0321,0.0401,0.07,0.0794,0.0486,0.0264,0.0302,-0.0091,-0.0942,-0.1593,-0.1865,-0.1942,-0.1838,0.0387,0.0426,0.0448,0.045,0.042,0.0357,0.0288,0.0231,0.0206,0.0214,0.0236,0.0253,0.0269,0.0286,0.0299,0.0305,0.0308,0.031,0.0305,0.0286,0.0244,0.0187,0.0132,0.0082,0.0033,-0.006,-0.0225,-0.0382,-0.0396,-0.033,0.003,0.0308,0.0324,0.0247,0.0118,0.0321,0.0527,0.0761,0.0478,0.0168,0.017,-0.0184,-0.1107,-0.1931,-0.2274,-0.2296,-0.212,0.0352,0.0398,0.0434,0.0442,0.0412,0.0357,0.0305,0.0261,0.0225,0.0222,0.0239,0.0258,0.0272,0.0283,0.0288,0.0297,0.0313,0.0332,0.0338,0.0316,0.0275,0.0211,0.0143,0.0066,-0.0038,-0.0192,-0.0398,-0.0549,-0.0571,-0.0168,0.0445,0.0511,0.0244,0.0041,0.0049,0.0192,0.05,0.0742,0.0456,0.0085,0.0066,-0.0242,-0.1118,-0.1991,-0.2376,-0.2321,-0.2068]}],[{"header":{"parameterUnit":"m.s-1","parameterCategory":2,"la1":30.8641,"la2":29.7642,"lo1":-88.4676,"lo2":-86.9344,"dx":0.0333,"dy":0.0333,"nx":47,"ny":34,"refTime":"2022-11-16T00:00:00:Z","depth":"10","parameterNumber":2,"parameterNumberName":"U-component_of_CURRENTS"},"data":[0,0,0,0,0,0,0,0,0,0,0,0,0,0,0,0,0,0,0,0,0,0,0,0,0,0,0,0,0,0,0,0,0,0,0,0,0,0,0,0,0,0,0,0,0,0,0,0,0,0,0,0,0,0,0,0,0,0,0,0,0,0,0,0,0,0,0,0,0,0,0,0,0,0,0,0,0,0,0,0,0,0,0,0,0,0,0,0,0,0,0,0,0,0,0,0,0,0,0,0,0,0,0,0,0,0,0,0,0,0,0,0,0,0,0,0,0,0,0,0,0,0,0,0,0,0,0,0,0,0,0,0,0,0,0,0,0,0,0,0,0,0,0,0,0,0,0,0,0,0,0,0,0,0,0,0,0,0,0,0,0,0,0,0,0,0,0,0,0,0,0,0,0,0,0,0,0,0,0,0,0,0,0,0,0,0,0,0,0,0,0,0,0,0,0,0,0,0,0,0,0,0,0,0,0,0,0,0,0,0,0,0,0,0,0,0,0,0,0,0,0,0,0,0,0,0,0,0,0,0,0,0,0,0,0,0,0,0,0,0,0,0,0,0,0,0,0,0,0,0,0,0,0,0,0,0,0,0,0,0,0,0,0,0,0,0,0,0,0,0,0,0,0,0,0,0,0,0,0,0,0,0,0,0,0,0,0,0,0,0,0,0,0,0,0,0,-0.0124,-0.0247,0,0,0,0,0,0,0,0,0,0,0,0,0,0,0,0,0,0,0,0,0,0,0,0,0,0,0,0,0,0,0,0,0,0,0,0,0,0,0,0,0,0,0,0,0.0022,-0.0077,-0.0203,-0.0206,0,0,0,0,0,0,0,0,0,0,0,0,0,0,0,0,0,0,0,0,0,0,0,0,0,0,0,0,0,0,0,0,0,0,0,0,0,0,0,0,0,0,0,0.0019,0.0121,0.0088,-0.003,0,0,0,0,0,0,0,0,0,0,0,0,0,0,0,0,0,0,0,0,0,0,0,0,0,0,0,0,0,0,0,0,0,0,0,0,0,0,0,0,0,0,0.0168,0.0371,0.0341,0.0179,0.0085,0,0,0,0,0,0,0,0,0,0,0,0,0,0,0,0,0,0,0,0,0,0,0,0,0,0,0,0,0,0,0,0,0,0,0,0,0,0,0,0,0,0,0.0027,0.0222,0.0338,0.0165,0.0041,0,0,0,0,0,0,0,0,0,0,0,0,0,0,0,0,0,0,0,0,0,0,0,0,0,0,0,0,0,0,0,0,0,0,0,0,0,0,0,0,0,0,0.0044,0.0258,0.036,0.0118,-0.0055,0,0,0,0,0,0,0,0,0,0,0,0,0,0,0,0,0,0,0,0,0,0,0,0,0,0,0,0,0,0,0,0,0,0,0,0,0,0,0,0,0,0,0.0266,0.036,0.0371,0.0115,-0.0082,0,0,0,0,0,0,0,0,0,0,0,0,0,0,0,0,0,0,0,0,0,0,0,0,0,0,-0.0019,-0.0041,0,0,0,0,0,0,0,0,0,0,0,0,0,0.0008,0.0176,0.0434,0.047,0.0113,-0.0176,0,0,0,0,0,0,0,0,0,0,0,0,0,0,0,0,0,0,0,0,0,0,0.0211,0.0445,0.0602,0.0492,0.0261,0.0275,0,0,0,0,0,0,0,0,0,0,0,0,0,-0.0008,0.0187,0.0505,0.0544,0.0113,-0.031,-0.0376,0,0,0,0,0,0,0,0,0,0,0,0,0,0,0,0,0,0,0,0,0.0393,0.0761,0.0596,0.0456,0,0,0,0,0,0,0,0,0.0082,0.019,0.0211,0,0,0,0,0,-0.006,0.0179,0.0549,0.0519,0.0233,-0.0184,-0.0335,-0.022,0,0,0,0,0,0,0,0,0,0,0,0,0,0,0,0,0,0,0.0676,0.0829,0,0,0,0,0,0,0,0.0192,0,0.0107,0.0313,0.0401,0.0404,0.0417,0,0,0,0,0,0.0003,0.0264,0.0555,0.0527,0.0231,-0.0159,-0.0041,0.0088,-0.0049,0,0,0,0,0,0,0,0,0,0,0,0,0,0,0,0,0.0393,0.0332,0,0,-0.0099,-0.0071,0.0,0.0107,0.0283,0.0547,0.0684,0.0132,0.0206,0.0203,0.0233,0.0305,0.017,-0.0132,-0.0071,0.0382,0.0827,0.0989,0.0832,0.0503,0.0439,0.0549,0.0354,0.0011,0.0088,0.0211,-0.0005,-0.0124,0,0,0,0,0,0,0,0,0,0,0,0,0.019,0.0439,0.0382,0.0231,-0.0038,-0.0104,0.0113,0.0148,0.0222,0.0297,0.0379,0.0472,0.0571,0.0651,-0.0003,-0.0003,0.0074,0.0085,0.017,-0.0099,-0.0453,-0.0173,0.008,0,0,0,-0.0173,0.0165,0.0615,0.045,0.0231,0.0233,0.0396,0.0335,0.0231,0,0,0,0,0,0,0,0.003,0.0126,0.0242,0.0363,0.0525,0.0549,0.0439,0.0338,0.0294,0.0283,0.0291,0.0349,0.0442,0.0492,0.0533,0.058,0.0626,0.0662,0.0678,-0.0198,-0.0357,-0.0096,0.0025,-0.0143,0,0,0.0129,0.0143,0.0173,0.0363,0.072,0.0396,-0.0242,0,0,0,0,0,0,0,0,-0.0038,-0.0052,0.0,0.0063,0.0148,0.0264,0.0264,0.0231,0.028,0.031,0.0319,0.0308,0.0308,0.0327,0.0368,0.0409,0.0415,0.0467,0.0558,0.061,0.064,0.0654,0.0656,0.0648,0.0648,0,0,-0.0052,-0.019,-0.0434,-0.0376,0.0264,0.0445,0.0319,0.0288,0.0162,0.0049,0,-0.0277,-0.0511,-0.0368,-0.0233,-0.0184,-0.0159,-0.014,-0.0107,-0.0063,-0.0025,0.0008,0.0038,0.0077,0.0115,0.0135,0.0143,0.0159,0.017,0.0176,0.0187,0.019,0.0201,0.0233,0.0291,0.0349,0.039,0.0428,0.0472,0.0514,0.0555,0.0577,0.0574,0.0552,0.0536,-0.0184,-0.0019,-0.0049,-0.019,-0.0228,-0.0266,-0.0217,-0.0022,0.0242,0.0294,0.017,0.0135,0.0242,-0.0121,-0.0382,-0.0203,-0.0209,-0.0181,-0.0165,-0.0137,-0.0104,-0.0077,-0.0041,-0.0003,0.0033,0.0069,0.0093,0.0104,0.011,0.0115,0.0118,0.0113,0.0099,0.0093,0.0107,0.014,0.0184,0.022,0.0242,0.0269,0.0319,0.0385,0.0431,0.0439,0.0415,0.0385,0.0385,-0.0236,-0.0195,-0.0162,-0.0135,-0.0137,-0.0198,-0.033,-0.0481,-0.058,-0.0555,-0.0382,-0.0192,-0.0113,-0.0211,-0.0247,-0.0206,-0.0209,-0.019,-0.0168,-0.0143,-0.0115,-0.0088,-0.0055,-0.0019,0.0011,0.0041,0.0063,0.0077,0.0082,0.0082,0.0069,0.0041,0.0008,-0.0014,-0.0016,-0.0003,0.0025,0.0066,0.0118,0.0165,0.0195,0.0211,0.0201,0.0154,0.0096,0.0011,0.0038,-0.0264,-0.0206,-0.0146,-0.011,-0.0118,-0.0129,-0.0096,-0.0066,-0.0077,-0.0104,-0.014,-0.0137,-0.0126,-0.0143,-0.0181,-0.0211,-0.0201,-0.0181,-0.0159,-0.0132,-0.011,-0.0088,-0.0066,-0.0041,-0.0016,0.0005,0.0027,0.0044,0.0049,0.0041,0.0014,-0.0027,-0.0074,-0.011,-0.0129,-0.0124,-0.0088,-0.0025,0.0041,0.0093,0.0113,0.0102,0.0066,0.0016,0.0176,0.0423,0.053,-0.0244,-0.017,-0.0118,-0.0102,-0.0113,-0.0118,-0.0093,-0.0033,0.0011,0.0005,-0.0027,-0.0052,-0.0069,-0.0107,-0.0165,-0.0198,-0.019,-0.0168,-0.0143,-0.0118,-0.0099,-0.0085,-0.0069,-0.0055,-0.0038,-0.0025,-0.0008,0.0008,0.0016,0.0008,-0.0022,-0.0071,-0.0126,-0.0179,-0.0209,-0.0203,-0.0151,-0.0055,0.0063,0.0168,0.0233,0.0253,0.0266,0.0396,0.0711,0.0934,0.0939,-0.0233,-0.017,-0.0132,-0.0121,-0.0132,-0.0146,-0.0137,-0.0107,-0.0074,-0.0066,-0.008,-0.0104,-0.0132,-0.0159,-0.0181,-0.0187,-0.0176,-0.0154,-0.0129,-0.0104,-0.0082,-0.0071,-0.0063,-0.0058,-0.0055,-0.0047,-0.0033,-0.0014,-0.0003,-0.0008,-0.0044,-0.0096,-0.0159,-0.0228,-0.0286,-0.0313,-0.031,-0.0264,-0.0124,0.0093,0.0261,0.0409,0.0632,0.0975,0.1074,0.0879,0.0733,-0.0231,-0.019,-0.0157,-0.0148,-0.0157,-0.0165,-0.0159,-0.0143,-0.0135,-0.014,-0.0157,-0.0173,-0.0184,-0.019,-0.0187,-0.0179,-0.0165,-0.014,-0.0113,-0.0085,-0.0066,-0.0052,-0.0047,-0.0049,-0.0052,-0.0049,-0.0041,-0.0025,-0.0014,-0.003,-0.0074,-0.0137,-0.0214,-0.0299,-0.0398,-0.0538,-0.0711,-0.0742,-0.0472,-0.0016,0.0398,0.0805,0.0978,0.084,0.0786,0.0698,0.0459,-0.0253,-0.022,-0.0184,-0.0154,-0.0137,-0.0137,-0.0146,-0.0157,-0.0168,-0.0187,-0.0209,-0.022,-0.022,-0.0209,-0.0192,-0.0173,-0.0151,-0.0126,-0.0099,-0.0069,-0.0041,-0.0025,-0.0022,-0.0027,-0.0036,-0.0036,-0.003,-0.0027,-0.0038,-0.0074,-0.0126,-0.019,-0.0258,-0.0352,-0.0505,-0.0731,-0.086,-0.064,-0.0233,0.0102,0.0481,0.0582,0.0544,0.0593,0.0494,0.0302,0.0019,-0.0299,-0.0275,-0.0233,-0.0176,-0.0121,-0.0091,-0.0102,-0.0137,-0.0179,-0.0203,-0.022,-0.0222,-0.0214,-0.0201,-0.0184,-0.0165,-0.0143,-0.0118,-0.0093,-0.0063,-0.0036,-0.0014,-0.0005,-0.0008,-0.0016,-0.0022,-0.0027,-0.0041,-0.0082,-0.0137,-0.0198,-0.0247,-0.0283,-0.031,-0.0319,-0.0275,-0.0146,0.0126,0.0302,0.0118,0.003,0.0275,0.0467,0.05,0.0407,0.0187,-0.0115,-0.0332,-0.0319,-0.0286,-0.0225,-0.0151,-0.0093,-0.0082,-0.0113,-0.0157,-0.0187,-0.0198,-0.0198,-0.019,-0.0184,-0.0176,-0.0159,-0.014,-0.0118,-0.0099,-0.0077,-0.0052,-0.003,-0.0016,-0.0011,-0.0014,-0.0025,-0.0047,-0.0088,-0.0148,-0.022,-0.0283,-0.0319,-0.0324,-0.0288,-0.0168,0.0088,0.0434,0.0764,0.084,0.0783,0.0747,0.07,0.07,0.0645,0.0505,0.0266,-0.0038,-0.0321,-0.0319,-0.0299,-0.0261,-0.0203,-0.0143,-0.011,-0.0113,-0.0137,-0.0165,-0.0179,-0.0181,-0.0181,-0.0181,-0.0176,-0.0162,-0.0146,-0.0126,-0.0104,-0.0085,-0.0063,-0.0044,-0.003,-0.0022,-0.003,-0.0052,-0.0093,-0.0151,-0.0233,-0.0324,-0.0376,-0.039,-0.0393,-0.036,-0.0258,0.0085,0.0508,0.0714,0.0948,0.1277,0.1351,0.1063,0.0791,0.0662,0.0505,0.0286,0.0066,-0.0272,-0.0277,-0.0272,-0.0253,-0.0222,-0.0184,-0.0148,-0.0132,-0.0137,-0.0154,-0.017,-0.0179,-0.0181,-0.0181,-0.0176,-0.0168,-0.0151,-0.0126,-0.0099,-0.0071,-0.0044,-0.0027,-0.0022,-0.0027,-0.0047,-0.0088,-0.0151,-0.0236,-0.0349,-0.0448,-0.0511,-0.0552,-0.0547,-0.0387,0.0014,0.0124,0.0299,0.067,0.0802,0.1008,0.1233,0.117,0.0857,0.0596,0.0335,0.0093,-0.0071,-0.0214,-0.0222,-0.0225,-0.022,-0.0211,-0.0195,-0.017,-0.0146,-0.0143,-0.0151,-0.0165,-0.0173,-0.0176,-0.0176,-0.0173,-0.0168,-0.0154,-0.0126,-0.0091,-0.0052,-0.0016,0.0003,0.0008,-0.0005,-0.0041,-0.011,-0.0203,-0.033,-0.0494,-0.0678,-0.0846,-0.0788,-0.0365,0.003,0.0176,0.0118,0.0165,0.0431,0.0618,0.0747,0.0945,0.1046,0.0854,0.0522,0.0165,-0.0132,-0.0305,-0.0162,-0.0192,-0.0214,-0.022,-0.0211,-0.0195,-0.0176,-0.0154,-0.0143,-0.0146,-0.0154,-0.0157,-0.0159,-0.0159,-0.0165,-0.0165,-0.0157,-0.0129,-0.0088,-0.0044,-0.0005,0.0022,0.0033,0.0019,-0.0022,-0.0096,-0.0231,-0.0459,-0.0777,-0.1107,-0.0986,-0.047,-0.0154,-0.0033,-0.0014,-0.0016,0.006,0.0179,0.0341,0.0442,0.053,0.0659,0.0667,0.0459,0.0121,-0.0135,-0.0233]},{"header":{"parameterUnit":"m.s-1","parameterCategory":2,"la1":30.8641,"la2":29.7642,"lo1":-88.4676,"lo2":-86.9344,"dx":0.0333,"dy":0.0333,"nx":47,"ny":34,"refTime":"2022-11-16T00:00:00:Z","depth":"10","parameterNumber":3,"parameterNumberName":"V-component_of_CURRENTS"},"data":[0,0,0,0,0,0,0,0,0,0,0,0,0,0,0,0,0,0,0,0,0,0,0,0,0,0,0,0,0,0,0,0,0,0,0,0,0,0,0,0,0,0,0,0,0,0,0,0,0,0,0,0,0,0,0,0,0,0,0,0,0,0,0,0,0,0,0,0,0,0,0,0,0,0,0,0,0,0,0,0,0,0,0,0,0,0,0,0,0,0,0,0,0,0,0,0,0,0,0,0,0,0,0,0,0,0,0,0,0,0,0,0,0,0,0,0,0,0,0,0,0,0,0,0,0,0,0,0,0,0,0,0,0,0,0,0,0,0,0,0,0,0,0,0,0,0,0,0,0,0,0,0,0,0,0,0,0,0,0,0,0,0,0,0,0,0,0,0,0,0,0,0,0,0,0,0,0,0,0,0,0,0,0,0,0,0,0,0,0,0,0,0,0,0,0,0,0,0,0,0,0,0,0,0,0,0,0,0,0,0,0,0,0,0,0,0,0,0,0,0,0,0,0,0,0,0,0,0,0,0,0,0,0,0,0,0,0,0,0,0,0,0,0,0,0,0,0,0,0,0,0,0,0,0,0,0,0,0,0,0,0,0,0,0,0,0,0,0,0,0,0,0,0,0,0,0,0,0,0,0,0,0,0,0,0,0,0,0,0,0,0,0,0,0,0,0,0.0121,0.0269,0,0,0,0,0,0,0,0,0,0,0,0,0,0,0,0,0,0,0,0,0,0,0,0,0,0,0,0,0,0,0,0,0,0,0,0,0,0,0,0,0,0,0,0,0.0291,0.0277,0.0316,0.0365,0,0,0,0,0,0,0,0,0,0,0,0,0,0,0,0,0,0,0,0,0,0,0,0,0,0,0,0,0,0,0,0,0,0,0,0,0,0,0,0,0,0,0,0.047,0.0439,0.0363,0.036,0,0,0,0,0,0,0,0,0,0,0,0,0,0,0,0,0,0,0,0,0,0,0,0,0,0,0,0,0,0,0,0,0,0,0,0,0,0,0,0,0,0,0.0475,0.0596,0.0415,0.0368,0.0396,0,0,0,0,0,0,0,0,0,0,0,0,0,0,0,0,0,0,0,0,0,0,0,0,0,0,0,0,0,0,0,0,0,0,0,0,0,0,0,0,0,0,0.0497,0.0492,0.033,0.0365,0.0445,0,0,0,0,0,0,0,0,0,0,0,0,0,0,0,0,0,0,0,0,0,0,0,0,0,0,0,0,0,0,0,0,0,0,0,0,0,0,0,0,0,0,0.0555,0.0363,0.0217,0.0338,0.0415,0,0,0,0,0,0,0,0,0,0,0,0,0,0,0,0,0,0,0,0,0,0,0,0,0,0,0,0,0,0,0,0,0,0,0,0,0,0,0,0,0,0,0.0494,0.0288,0.0137,0.0277,0.0409,0,0,0,0,0,0,0,0,0,0,0,0,0,0,0,0,0,0,0,0,0,0,0,0,0,0,0.0077,0.0222,0,0,0,0,0,0,0,0,0,0,0,0,0,0.0541,0.0431,0.0302,0.0126,0.0244,0.0439,0,0,0,0,0,0,0,0,0,0,0,0,0,0,0,0,0,0,0,0,0,0,0.0574,0.0335,0.0566,0.0,0.0038,0.0113,0,0,0,0,0,0,0,0,0,0,0,0,0,0.0544,0.0497,0.0305,0.0165,0.0297,0.0426,0.0478,0,0,0,0,0,0,0,0,0,0,0,0,0,0,0,0,0,0,0,0,0.0926,0.0288,0.0168,0.0283,0,0,0,0,0,0,0,0,0.0349,0.0225,-0.0011,0,0,0,0,0,0.0563,0.0558,0.0291,0.022,0.0363,0.0442,0.0467,0.0319,0,0,0,0,0,0,0,0,0,0,0,0,0,0,0,0,0,0,0.0634,0.0464,0,0,0,0,0,0,0,0.045,0,0.0417,0.0434,0.0387,0.0269,0.0211,0,0,0,0,0,0.0687,0.0555,0.0357,0.0316,0.0374,0.0428,0.0332,0.0354,0.039,0,0,0,0,0,0,0,0,0,0,0,0,0,0,0,0,0.0566,0.0643,0,0,0.0011,0.0107,0.0121,0.0192,0.0288,0.0368,0.042,0.0387,0.045,0.0448,0.0437,0.0409,0.053,0.0819,0.0945,0.0898,0.0,0.0,0.039,0.0357,0.0571,0.0382,0.0354,0.0374,0.0228,0.033,0.036,0.0253,0,0,0,0,0,0,0,0,0,0,0,0,0.0453,0.0264,0.0385,0.0461,0.0558,0.0297,-0.0055,0.0055,0.014,0.017,0.025,0.0346,0.0415,0.0412,0.036,0.0492,0.058,0.0588,0.0722,0.0313,0.0409,0.0851,0.0613,0,0,0,0.0494,0.0986,0.0187,0.017,0.0184,0.0124,0.0135,0.0135,0.0126,0,0,0,0,0,0,0,0.033,0.0027,0.0225,0.0247,0.0275,0.0349,0.0176,0.0104,0.0124,0.0165,0.0277,0.0041,0.0143,0.0195,0.0247,0.0335,0.0426,0.047,0.0423,0.0165,0.025,0.0802,0.0838,0.0959,0,0,0.0637,0.0398,0.0297,0.0503,0.0879,0.0404,0.111,0,0,0,0,0,0,0,0,0.0041,0.0126,0.0151,0.0157,0.019,0.0206,0.0299,0.0157,0.0231,0.0233,0.0247,0.0209,0.0085,0.0022,0.0,0.0154,0.0261,0.0195,0.0211,0.0228,0.0283,0.0368,0.0445,0.0464,0.0407,0,0,0.0786,0.0816,0.0832,0.0613,0.0588,0.0527,0.0549,0.0492,0.0626,0.0722,0,0.0813,0.0544,0.0341,0.0162,0.0148,0.0118,0.0118,0.0129,0.0129,0.008,0.0151,0.0176,0.0184,0.0201,0.0206,0.0203,0.0187,0.0228,0.0225,0.0217,0.0168,0.0099,0.0074,0.011,0.0214,0.0275,0.028,0.0264,0.0269,0.0313,0.0379,0.0426,0.0426,0.0382,0.0253,0.0277,0.0511,0.0558,0.0607,0.0514,0.0497,0.0865,0.134,0.1261,0.0865,0.0623,0.0629,0.0709,0.0478,0.0324,0.0176,0.0157,0.0129,0.0132,0.0137,0.0137,0.0137,0.019,0.0211,0.022,0.022,0.0209,0.019,0.0187,0.0201,0.0203,0.0187,0.0148,0.0115,0.0121,0.0179,0.0253,0.0305,0.0324,0.0321,0.0327,0.0343,0.0371,0.0387,0.0374,0.0379,0.0272,0.0291,0.033,0.0407,0.0456,0.0379,0.0297,0.047,0.0805,0.095,0.0917,0.0882,0.0838,0.0709,0.0439,0.028,0.0201,0.017,0.0148,0.0148,0.0154,0.0159,0.0176,0.0211,0.0231,0.0236,0.0225,0.0206,0.0187,0.0179,0.0173,0.0162,0.0146,0.0124,0.0115,0.0146,0.0209,0.0283,0.0338,0.0357,0.036,0.0352,0.033,0.0305,0.0313,0.0321,0.0382,0.0316,0.0338,0.0357,0.0398,0.0393,0.0316,0.0192,0.022,0.0439,0.0563,0.0547,0.0514,0.0511,0.0439,0.0409,0.0258,0.0214,0.0179,0.0162,0.0159,0.0162,0.0173,0.019,0.022,0.0236,0.0242,0.0228,0.0206,0.0187,0.0162,0.0132,0.0107,0.0093,0.0085,0.0096,0.0146,0.0233,0.033,0.0387,0.0382,0.0349,0.0316,0.0261,0.0233,0.0272,0.0211,0.0041,0.0368,0.0385,0.0387,0.0379,0.0349,0.031,0.0258,0.0258,0.0374,0.0467,0.0445,0.0343,0.0291,0.0319,0.0319,0.0255,0.022,0.0187,0.0173,0.0168,0.0168,0.0176,0.019,0.0214,0.0228,0.0236,0.0228,0.0209,0.0181,0.0135,0.0082,0.0044,0.0027,0.0027,0.0063,0.0154,0.0291,0.0426,0.0489,0.0442,0.0341,0.028,0.0236,0.0168,-0.0011,-0.0135,-0.0396,0.0415,0.0409,0.0382,0.0338,0.0302,0.0288,0.0286,0.031,0.0371,0.0417,0.0385,0.0305,0.0258,0.0261,0.0264,0.0244,0.0217,0.0195,0.0181,0.0176,0.017,0.0173,0.0181,0.0198,0.0211,0.0222,0.0225,0.0211,0.0173,0.0104,0.0025,-0.003,-0.0052,-0.0044,0.0022,0.0162,0.0349,0.0533,0.0665,0.064,0.0497,0.047,0.0231,0.0041,-0.0077,-0.0151,-0.0283,0.0445,0.0423,0.0374,0.0305,0.0261,0.0261,0.0286,0.0321,0.0357,0.0371,0.0335,0.0266,0.0231,0.0236,0.0244,0.0233,0.022,0.0203,0.0198,0.019,0.0179,0.017,0.0168,0.0176,0.0192,0.0209,0.022,0.0211,0.0157,0.0058,-0.0044,-0.011,-0.0137,-0.0124,-0.0055,0.006,0.0247,0.0582,0.0912,0.0948,0.0643,0.0379,0.031,0.0228,0.028,0.0184,-0.0008,0.0464,0.0439,0.0385,0.031,0.0258,0.025,0.0275,0.0305,0.0327,0.0327,0.0291,0.0244,0.0222,0.0233,0.0244,0.0236,0.0228,0.022,0.0217,0.0206,0.019,0.0168,0.0151,0.0154,0.0168,0.0192,0.0214,0.0195,0.011,-0.0019,-0.0124,-0.0181,-0.0206,-0.0211,-0.0217,-0.0192,0.0069,0.0703,0.1107,0.1085,0.0711,0.0338,0.0396,0.0486,0.0431,0.031,0.0146,0.0472,0.0456,0.0417,0.0357,0.0299,0.0261,0.0253,0.0266,0.0286,0.0286,0.0264,0.0236,0.0228,0.0244,0.0255,0.0253,0.0244,0.0242,0.0239,0.0228,0.0206,0.0173,0.014,0.0132,0.0146,0.0179,0.0198,0.0151,0.0019,-0.0124,-0.0195,-0.022,-0.0236,-0.0261,-0.031,-0.0291,0.0124,0.0884,0.1176,0.1285,0.1093,0.0662,0.0316,0.0313,0.0294,0.0231,0.0176,0.0467,0.0464,0.0448,0.0415,0.0363,0.0291,0.0233,0.0222,0.0244,0.0258,0.0247,0.0236,0.0239,0.0258,0.0272,0.0275,0.0266,0.0258,0.0255,0.0247,0.022,0.0179,0.0135,0.0118,0.0132,0.0159,0.0157,0.0066,-0.011,-0.022,-0.0225,-0.0222,-0.0222,-0.0222,-0.017,0.0107,0.0563,0.1022,0.1143,0.1252,0.1178,0.0541,0.0008,-0.0198,-0.0236,-0.0258,-0.0217,0.0448,0.0461,0.0464,0.0453,0.0412,0.0332,0.0242,0.0203,0.0217,0.0239,0.0244,0.0244,0.0253,0.0272,0.0288,0.0294,0.0286,0.0277,0.0272,0.0258,0.0228,0.0181,0.0137,0.0113,0.0118,0.0124,0.0077,-0.0069,-0.0239,-0.0258,-0.022,-0.0206,-0.0201,-0.0104,0.0198,0.0459,0.0876,0.095,0.0788,0.0648,0.0667,0.0168,-0.0514,-0.0926,-0.1063,-0.1101,-0.1014,0.0423,0.045,0.0464,0.0464,0.0434,0.036,0.0269,0.0211,0.0206,0.0225,0.0242,0.0253,0.0266,0.0286,0.0302,0.0308,0.0305,0.0297,0.0288,0.0272,0.0236,0.0184,0.0137,0.0107,0.0093,0.0058,-0.0052,-0.0231,-0.0313,-0.0272,-0.0225,-0.017,-0.0008,0.0165,0.0327,0.0409,0.0706,0.0799,0.0494,0.0272,0.0305,-0.008,-0.0931,-0.1582,-0.1854,-0.1931,-0.1827,0.0398,0.0437,0.0459,0.0461,0.0428,0.0365,0.0297,0.0239,0.0214,0.0222,0.0242,0.0258,0.0277,0.0294,0.0308,0.0313,0.0316,0.0319,0.0316,0.0294,0.0255,0.0198,0.0143,0.0093,0.0044,-0.0047,-0.0209,-0.0363,-0.0382,-0.0321,0.0036,0.031,0.0327,0.025,0.0126,0.0327,0.0533,0.0766,0.0486,0.0176,0.0176,-0.0173,-0.1093,-0.1917,-0.2263,-0.2285,-0.2107,0.0363,0.0409,0.0445,0.0453,0.042,0.0365,0.0313,0.0266,0.0233,0.0231,0.0247,0.0264,0.028,0.0291,0.0297,0.0308,0.0324,0.0341,0.0346,0.0324,0.0283,0.0222,0.0154,0.0077,-0.0027,-0.0179,-0.0382,-0.0533,-0.056,-0.0162,0.045,0.0516,0.025,0.0047,0.0055,0.0198,0.0508,0.075,0.0461,0.0093,0.0074,-0.0233,-0.1107,-0.1978,-0.2362,-0.2307,-0.2052]}],[{"header":{"parameterUnit":"m.s-1","parameterCategory":2,"la1":30.8641,"la2":29.7642,"lo1":-88.4676,"lo2":-86.9344,"dx":0.0333,"dy":0.0333,"nx":47,"ny":34,"refTime":"2022-11-16T00:00:00:Z","depth":"12","parameterNumber":2,"parameterNumberName":"U-component_of_CURRENTS"},"data":[0,0,0,0,0,0,0,0,0,0,0,0,0,0,0,0,0,0,0,0,0,0,0,0,0,0,0,0,0,0,0,0,0,0,0,0,0,0,0,0,0,0,0,0,0,0,0,0,0,0,0,0,0,0,0,0,0,0,0,0,0,0,0,0,0,0,0,0,0,0,0,0,0,0,0,0,0,0,0,0,0,0,0,0,0,0,0,0,0,0,0,0,0,0,0,0,0,0,0,0,0,0,0,0,0,0,0,0,0,0,0,0,0,0,0,0,0,0,0,0,0,0,0,0,0,0,0,0,0,0,0,0,0,0,0,0,0,0,0,0,0,0,0,0,0,0,0,0,0,0,0,0,0,0,0,0,0,0,0,0,0,0,0,0,0,0,0,0,0,0,0,0,0,0,0,0,0,0,0,0,0,0,0,0,0,0,0,0,0,0,0,0,0,0,0,0,0,0,0,0,0,0,0,0,0,0,0,0,0,0,0,0,0,0,0,0,0,0,0,0,0,0,0,0,0,0,0,0,0,0,0,0,0,0,0,0,0,0,0,0,0,0,0,0,0,0,0,0,0,0,0,0,0,0,0,0,0,0,0,0,0,0,0,0,0,0,0,0,0,0,0,0,0,0,0,0,0,0,0,0,0,0,0,0,0,0,0,0,0,0,0,0,0,0,0,0,0,0,0,0,0,0,0,0,0,0,0,0,0,0,0,0,0,0,0,0,0,0,0,0,0,0,0,0,0,0,0,0,0,0,0,0,0,0,0,0,0,0,0,0,0,0,0,0,0,0,0,0,0,0,0,0,0,0,0,0,0,0,0,0,0,0,0,0,0,0,0,0,0,0,0,0,0,0,0,0,0,0,0,0,0,0,0,0,0,0,0,0,0,0,0,0,0,0,0,0,0,0,0,0,0,0,0,0,0,0,0,0,0,0,0,0,0,0,0,0,0,0,0,0,0,0,0,0,0,0,0,0,0,0,0,0,0,0,0,0,0,0,0,0,0,0,0,0,0,0,0,0,0,0,0,0,0,0,0,0,0,0,0,0,0,0,0,0,0,0,0,0,0,0,0,0,0,0,0,0,0,0,0,0,0,0,0,0,0,0,0,0,0,0,0,0,0,0,0,0,0,0,0,0,0,0,0,0,0,0,0,0,0,0,0,0,0,0,0,0,0,0,0,0,0,0,0,0,0,0,0,0,0,0,0,0,0,0,0,0,0,0,0,0,0,0,0,0,0,0,0,0,0,0,0,0,0,0,0,0,0,0,0,0,0,0,0,0,0,0,0,0,0,0,0,0,0,0,0,0,0,0,0,0,0,0,0,0,0,0,0,0,0,0,0,0,0,0,0,0,0,0,0,0,0,0,0,0,0,0,0,0,0,0,0,0,0,0,0,0,0,0,0,0,0,0,0,0,0,0,0,0,0,0,0,0,0,0,0,0,0,0,0,0,0,0,0,0,0,0,0,0,0,0,0,0,0,0,0,0,0,0,0,0,0,0,0,0,0,0,0,0,0,0,0,0,0,0,0,0,0,0,0,0,0,0,0,0,0,0,0,0,0,0,0,0,0,0,0,0,0,0,0,0,0,0,0,0,0,0,0,0,0,0,0,0,0,0,0,0,0,0,0,0,0,0,0,0,0,0,0,0,0,0,0,0,0,0,0,0,0,0,0,0,0,0,0,0,0,0,0,0,0,0,0,0.019,0,0,0,0,0,0,0,0,0,0,0,0,0,0,0,0,0,0,0,0,0,0,0,0,0,0,0,0,0,0,0,0,0,0,0,0,0,0,0,0,0,-0.0069,0.0003,0.0107,0.0283,0.0544,0.0681,0,0,0,0,0,0,0,0,0,0,0,0,0,0,0,0,0,0,0,0,0,0,0,0,0,0,0,0,0,0,0,0,0,0,0,0,0,0,-0.008,0.0113,0.0148,0.0222,0.0294,0.0379,0.047,0.0566,0.0645,0,0,0,0,0,0,0,0,0,0,0,0,0,0,0,0,0,0,0,0,0,0,0,0,0,0,0,0,0,0,0,0,0,0,0,0,0.0266,0.0297,0.0291,0.0346,0.0442,0.0492,0.053,0.0577,0.0623,0.0656,0.0673,0,0,0,0,0,0,0,0,0,0,0,0,0,0,0,0,0,0,0,0,0,0,0,0,0,0,0,0,0,0.0225,0.0269,0.0299,0.031,0.0299,0.0299,0.0321,0.0365,0.0407,0.0412,0.0461,0.0552,0.0607,0.0637,0.0651,0.0654,0.0645,0.0643,0,0,0,0,0,-0.0305,0.0266,0,0,0,0,0,0,0,0,0,0,0,0,0,0,0,0,0,0,0,0.0113,0.0132,0.0143,0.0157,0.017,0.0176,0.0184,0.0187,0.0198,0.0231,0.0288,0.0343,0.0385,0.0426,0.0467,0.0511,0.0552,0.0574,0.0571,0.0549,0.0533,-0.0179,-0.0022,-0.0049,-0.0184,-0.022,-0.0176,0.0126,0.0514,0.0467,0.0225,0.0143,0,0.0231,0,-0.036,-0.0187,-0.0206,-0.0176,-0.0159,-0.0135,-0.0104,-0.0074,-0.0041,0.0,0.0036,0.0069,0.0093,0.0104,0.011,0.0115,0.0118,0.0113,0.0099,0.0093,0.0104,0.0137,0.0181,0.0217,0.0239,0.0266,0.0319,0.0385,0.0431,0.0437,0.0415,0.0382,0.0385,-0.0233,-0.0192,-0.0162,-0.0132,-0.0137,-0.0195,-0.0214,-0.0225,-0.022,-0.019,-0.0151,-0.0011,0.0008,-0.0165,-0.0231,-0.0201,-0.0206,-0.0184,-0.0165,-0.0137,-0.011,-0.0082,-0.0052,-0.0016,0.0014,0.0044,0.0066,0.0077,0.0082,0.0082,0.0069,0.0041,0.0008,-0.0014,-0.0019,-0.0008,0.0022,0.0063,0.0115,0.0165,0.0195,0.0209,0.0201,0.0154,0.0093,0.0011,0.0038,-0.0261,-0.0203,-0.0146,-0.011,-0.0118,-0.0132,-0.0102,-0.0058,-0.006,-0.0102,-0.0143,-0.0129,-0.0077,-0.0096,-0.0173,-0.0211,-0.0201,-0.0181,-0.0157,-0.0129,-0.0107,-0.0085,-0.0063,-0.0038,-0.0016,0.0008,0.0027,0.0044,0.0049,0.0041,0.0014,-0.003,-0.0074,-0.0113,-0.0132,-0.0126,-0.0091,-0.0027,0.0041,0.0096,0.0113,0.0102,0.0066,0.0016,0.0179,0.0426,0.053,-0.0242,-0.017,-0.0121,-0.0102,-0.0113,-0.0121,-0.0096,-0.0033,0.0011,0.0005,-0.0027,-0.0055,-0.0071,-0.0107,-0.0165,-0.0195,-0.0187,-0.0168,-0.014,-0.0115,-0.0096,-0.0082,-0.0066,-0.0052,-0.0036,-0.0022,-0.0008,0.0008,0.0016,0.0008,-0.0025,-0.0074,-0.0129,-0.0181,-0.0214,-0.0209,-0.0154,-0.0055,0.0063,0.0173,0.0236,0.0255,0.0269,0.0396,0.0714,0.0937,0.0939,-0.0231,-0.017,-0.0132,-0.0121,-0.0132,-0.0146,-0.0137,-0.0107,-0.0074,-0.0069,-0.0085,-0.011,-0.0135,-0.0159,-0.0179,-0.0184,-0.0176,-0.0154,-0.0129,-0.0102,-0.0082,-0.0069,-0.006,-0.0058,-0.0052,-0.0044,-0.003,-0.0014,-0.0003,-0.0011,-0.0047,-0.0099,-0.0165,-0.0233,-0.0288,-0.0316,-0.0308,-0.0258,-0.0121,0.0096,0.0264,0.0409,0.0634,0.0975,0.1077,0.0879,0.0733,-0.0231,-0.019,-0.0159,-0.0151,-0.0157,-0.0165,-0.0157,-0.0143,-0.0135,-0.014,-0.0159,-0.0176,-0.0187,-0.019,-0.0187,-0.0179,-0.0162,-0.014,-0.0113,-0.0085,-0.0063,-0.0049,-0.0047,-0.0049,-0.0052,-0.0049,-0.0038,-0.0025,-0.0016,-0.0033,-0.008,-0.0143,-0.022,-0.0302,-0.0398,-0.0538,-0.0706,-0.0733,-0.0467,-0.0011,0.0398,0.0805,0.0981,0.084,0.0786,0.0698,0.0461,-0.0253,-0.022,-0.0187,-0.0157,-0.014,-0.0137,-0.0146,-0.0154,-0.0168,-0.019,-0.0211,-0.0222,-0.022,-0.0209,-0.0192,-0.0173,-0.0151,-0.0126,-0.0096,-0.0069,-0.0041,-0.0025,-0.0022,-0.0027,-0.0033,-0.0036,-0.003,-0.0025,-0.0041,-0.008,-0.0135,-0.0198,-0.0264,-0.0352,-0.0503,-0.0722,-0.0851,-0.0634,-0.0228,0.011,0.0489,0.0585,0.0547,0.0593,0.0494,0.0305,0.0022,-0.0299,-0.0275,-0.0233,-0.0179,-0.0124,-0.0093,-0.0102,-0.0137,-0.0176,-0.0203,-0.022,-0.0222,-0.0214,-0.0201,-0.0184,-0.0165,-0.014,-0.0115,-0.0091,-0.0063,-0.0036,-0.0014,-0.0005,-0.0008,-0.0016,-0.0022,-0.0025,-0.0044,-0.0085,-0.0146,-0.0206,-0.0253,-0.0286,-0.031,-0.0316,-0.0272,-0.0143,0.0129,0.031,0.0132,0.0041,0.028,0.047,0.0503,0.0407,0.019,-0.0115,-0.033,-0.0316,-0.0286,-0.0228,-0.0154,-0.0099,-0.0085,-0.0115,-0.0157,-0.0187,-0.0198,-0.0198,-0.019,-0.0184,-0.0176,-0.0159,-0.0137,-0.0118,-0.0096,-0.0074,-0.0052,-0.003,-0.0016,-0.0011,-0.0014,-0.0025,-0.0047,-0.0091,-0.0154,-0.0228,-0.0291,-0.0321,-0.0324,-0.0288,-0.0168,0.0088,0.0434,0.0766,0.0846,0.0794,0.0766,0.0711,0.0706,0.0648,0.0508,0.0269,-0.0036,-0.0319,-0.0316,-0.0299,-0.0261,-0.0206,-0.0148,-0.0115,-0.0115,-0.014,-0.0162,-0.0176,-0.0181,-0.0181,-0.0179,-0.0173,-0.0162,-0.0143,-0.0124,-0.0104,-0.0082,-0.0063,-0.0047,-0.003,-0.0025,-0.003,-0.0052,-0.0096,-0.0157,-0.0242,-0.0332,-0.0382,-0.039,-0.039,-0.036,-0.0258,0.0088,0.0511,0.0717,0.0948,0.1277,0.1365,0.1074,0.0799,0.0667,0.0508,0.0288,0.0066,-0.0269,-0.0275,-0.0266,-0.025,-0.0222,-0.0187,-0.0151,-0.0135,-0.0137,-0.0154,-0.017,-0.0179,-0.0181,-0.0179,-0.0176,-0.0165,-0.0148,-0.0126,-0.0099,-0.0069,-0.0047,-0.003,-0.0022,-0.0027,-0.0049,-0.0091,-0.0159,-0.0247,-0.036,-0.0453,-0.0511,-0.0549,-0.0544,-0.0385,0.0016,0.0126,0.0302,0.0673,0.0805,0.1008,0.1236,0.1178,0.0868,0.0604,0.0341,0.0093,-0.0069,-0.0211,-0.022,-0.022,-0.0217,-0.0209,-0.0198,-0.0173,-0.0151,-0.0146,-0.0154,-0.0165,-0.0173,-0.0173,-0.0173,-0.017,-0.0165,-0.0151,-0.0126,-0.0091,-0.0052,-0.0019,0.0003,0.0008,-0.0005,-0.0044,-0.0113,-0.0211,-0.0341,-0.05,-0.0678,-0.084,-0.0786,-0.0363,0.003,0.0176,0.0118,0.0168,0.0434,0.0621,0.075,0.0948,0.1052,0.0865,0.053,0.017,-0.0129,-0.0302,-0.0162,-0.019,-0.0211,-0.0217,-0.0209,-0.0195,-0.0176,-0.0159,-0.0146,-0.0146,-0.0151,-0.0157,-0.0157,-0.0159,-0.0162,-0.0165,-0.0154,-0.0129,-0.0088,-0.0044,-0.0005,0.0019,0.003,0.0019,-0.0025,-0.0104,-0.0239,-0.0467,-0.0777,-0.1099,-0.0981,-0.0467,-0.0151,-0.0036,-0.0016,-0.0016,0.0063,0.0181,0.0341,0.0439,0.0533,0.0665,0.0676,0.0467,0.0126,-0.0132,-0.0233]},{"header":{"parameterUnit":"m.s-1","parameterCategory":2,"la1":30.8641,"la2":29.7642,"lo1":-88.4676,"lo2":-86.9344,"dx":0.0333,"dy":0.0333,"nx":47,"ny":34,"refTime":"2022-11-16T00:00:00:Z","depth":"12","parameterNumber":3,"parameterNumberName":"V-component_of_CURRENTS"},"data":[0,0,0,0,0,0,0,0,0,0,0,0,0,0,0,0,0,0,0,0,0,0,0,0,0,0,0,0,0,0,0,0,0,0,0,0,0,0,0,0,0,0,0,0,0,0,0,0,0,0,0,0,0,0,0,0,0,0,0,0,0,0,0,0,0,0,0,0,0,0,0,0,0,0,0,0,0,0,0,0,0,0,0,0,0,0,0,0,0,0,0,0,0,0,0,0,0,0,0,0,0,0,0,0,0,0,0,0,0,0,0,0,0,0,0,0,0,0,0,0,0,0,0,0,0,0,0,0,0,0,0,0,0,0,0,0,0,0,0,0,0,0,0,0,0,0,0,0,0,0,0,0,0,0,0,0,0,0,0,0,0,0,0,0,0,0,0,0,0,0,0,0,0,0,0,0,0,0,0,0,0,0,0,0,0,0,0,0,0,0,0,0,0,0,0,0,0,0,0,0,0,0,0,0,0,0,0,0,0,0,0,0,0,0,0,0,0,0,0,0,0,0,0,0,0,0,0,0,0,0,0,0,0,0,0,0,0,0,0,0,0,0,0,0,0,0,0,0,0,0,0,0,0,0,0,0,0,0,0,0,0,0,0,0,0,0,0,0,0,0,0,0,0,0,0,0,0,0,0,0,0,0,0,0,0,0,0,0,0,0,0,0,0,0,0,0,0,0,0,0,0,0,0,0,0,0,0,0,0,0,0,0,0,0,0,0,0,0,0,0,0,0,0,0,0,0,0,0,0,0,0,0,0,0,0,0,0,0,0,0,0,0,0,0,0,0,0,0,0,0,0,0,0,0,0,0,0,0,0,0,0,0,0,0,0,0,0,0,0,0,0,0,0,0,0,0,0,0,0,0,0,0,0,0,0,0,0,0,0,0,0,0,0,0,0,0,0,0,0,0,0,0,0,0,0,0,0,0,0,0,0,0,0,0,0,0,0,0,0,0,0,0,0,0,0,0,0,0,0,0,0,0,0,0,0,0,0,0,0,0,0,0,0,0,0,0,0,0,0,0,0,0,0,0,0,0,0,0,0,0,0,0,0,0,0,0,0,0,0,0,0,0,0,0,0,0,0,0,0,0,0,0,0,0,0,0,0,0,0,0,0,0,0,0,0,0,0,0,0,0,0,0,0,0,0,0,0,0,0,0,0,0,0,0,0,0,0,0,0,0,0,0,0,0,0,0,0,0,0,0,0,0,0,0,0,0,0,0,0,0,0,0,0,0,0,0,0,0,0,0,0,0,0,0,0,0,0,0,0,0,0,0,0,0,0,0,0,0,0,0,0,0,0,0,0,0,0,0,0,0,0,0,0,0,0,0,0,0,0,0,0,0,0,0,0,0,0,0,0,0,0,0,0,0,0,0,0,0,0,0,0,0,0,0,0,0,0,0,0,0,0,0,0,0,0,0,0,0,0,0,0,0,0,0,0,0,0,0,0,0,0,0,0,0,0,0,0,0,0,0,0,0,0,0,0,0,0,0,0,0,0,0,0,0,0,0,0,0,0,0,0,0,0,0,0,0,0,0,0,0,0,0,0,0,0,0,0,0,0,0,0,0,0,0,0,0,0,0,0,0,0,0,0,0,0,0,0,0,0,0,0,0,0,0,0,0,0,0,0,0,0,0,0,0,0,0,0,0,0,0,0,0,0,0,0,0,0,0,0,0,0,0,0,0,0,0,0,0,0,0,0,0.0456,0,0,0,0,0,0,0,0,0,0,0,0,0,0,0,0,0,0,0,0,0,0,0,0,0,0,0,0,0,0,0,0,0,0,0,0,0,0,0,0,0,0.0118,0.0129,0.0203,0.0297,0.0374,0.0428,0,0,0,0,0,0,0,0,0,0,0,0,0,0,0,0,0,0,0,0,0,0,0,0,0,0,0,0,0,0,0,0,0,0,0,0,0,0,0.0294,-0.0047,0.0063,0.0148,0.0179,0.0258,0.0354,0.0423,0.042,0,0,0,0,0,0,0,0,0,0,0,0,0,0,0,0,0,0,0,0,0,0,0,0,0,0,0,0,0,0,0,0,0,0,0,0,0.0176,0.0319,0.028,0.0044,0.0148,0.0201,0.0255,0.0343,0.0434,0.0478,0.0431,0,0,0,0,0,0,0,0,0,0,0,0,0,0,0,0,0,0,0,0,0,0,0,0,0,0,0,0,0,0.0165,0.0242,0.0242,0.0253,0.0211,0.0088,0.0025,0.0005,0.0157,0.0266,0.0201,0.0217,0.0236,0.0288,0.0376,0.045,0.047,0.0412,0,0,0,0,0,0.0516,0.0387,0,0,0,0,0,0,0,0,0,0,0,0,0,0,0,0,0,0,0,0.0209,0.0217,0.0214,0.0195,0.0233,0.0231,0.0222,0.0173,0.0104,0.008,0.0115,0.0222,0.0283,0.0288,0.0272,0.0275,0.0316,0.0385,0.0428,0.0431,0.0387,0.0264,0.0291,0.0505,0.0549,0.0593,0.053,0.0667,0.084,0.0832,0.0761,0.075,0,0.0577,0,0.0461,0.0327,0.0187,0.0168,0.014,0.014,0.0148,0.0148,0.0148,0.0195,0.0217,0.0228,0.0228,0.0217,0.0198,0.0195,0.0209,0.0211,0.0195,0.0157,0.0124,0.0132,0.019,0.0261,0.0313,0.033,0.0327,0.033,0.0346,0.0376,0.039,0.0379,0.0382,0.0283,0.0302,0.0338,0.0412,0.0459,0.039,0.0382,0.0615,0.0901,0.086,0.0725,0.0673,0.0648,0.0678,0.0431,0.0288,0.0211,0.0184,0.0165,0.0162,0.0168,0.0173,0.0187,0.022,0.0239,0.0244,0.0231,0.0211,0.0195,0.0184,0.0181,0.017,0.0157,0.0135,0.0126,0.0157,0.022,0.0294,0.0346,0.0365,0.0365,0.036,0.0335,0.031,0.0319,0.0327,0.0387,0.0324,0.0343,0.0363,0.0407,0.0398,0.0324,0.0209,0.0275,0.0486,0.0569,0.0549,0.0516,0.0536,0.0481,0.042,0.0266,0.0222,0.019,0.0173,0.0168,0.0173,0.0181,0.0201,0.0225,0.0244,0.0247,0.0233,0.0214,0.0192,0.0168,0.014,0.0118,0.0104,0.0096,0.011,0.0159,0.025,0.0343,0.0398,0.0393,0.0357,0.0324,0.0269,0.0242,0.028,0.022,0.0049,0.0374,0.0393,0.0396,0.0387,0.036,0.0321,0.0266,0.0266,0.0379,0.0472,0.045,0.0349,0.0297,0.0324,0.0327,0.0261,0.0225,0.0195,0.0179,0.0173,0.0176,0.0184,0.0198,0.022,0.0233,0.0242,0.0233,0.0214,0.0187,0.0143,0.0093,0.0055,0.0038,0.0041,0.008,0.017,0.0308,0.0437,0.0497,0.045,0.0349,0.0286,0.0244,0.0176,-0.0003,-0.0126,-0.0387,0.0423,0.042,0.0393,0.0352,0.0313,0.0299,0.0297,0.0319,0.0379,0.0423,0.0393,0.031,0.0266,0.0266,0.0272,0.025,0.0225,0.0201,0.0187,0.0181,0.0176,0.0179,0.0187,0.0203,0.0217,0.0231,0.0231,0.0217,0.0181,0.0113,0.0036,-0.0016,-0.0038,-0.0027,0.0038,0.0176,0.0357,0.0536,0.0667,0.0643,0.05,0.0475,0.0236,0.0044,-0.0071,-0.0146,-0.028,0.045,0.0431,0.0382,0.0316,0.0272,0.0272,0.0297,0.033,0.0365,0.0382,0.0343,0.0275,0.0236,0.0242,0.025,0.0239,0.0222,0.0209,0.0201,0.0192,0.0181,0.0176,0.0173,0.0181,0.0198,0.0214,0.0228,0.0217,0.0165,0.0066,-0.0033,-0.0096,-0.0121,-0.0107,-0.0044,0.0066,0.025,0.0585,0.0917,0.0953,0.0651,0.0385,0.0316,0.0233,0.0286,0.0187,-0.0003,0.047,0.0445,0.039,0.0316,0.0264,0.0258,0.0283,0.0313,0.0335,0.0332,0.0299,0.025,0.0225,0.0239,0.0247,0.0242,0.0231,0.0225,0.022,0.0211,0.0195,0.0173,0.0157,0.0159,0.0176,0.0198,0.022,0.0203,0.0121,-0.0005,-0.011,-0.0168,-0.0192,-0.0201,-0.0209,-0.0184,0.0077,0.0711,0.1118,0.1096,0.0722,0.0346,0.0401,0.0494,0.0437,0.0316,0.0151,0.0478,0.0461,0.042,0.036,0.0302,0.0264,0.0258,0.0275,0.0294,0.0294,0.0269,0.0242,0.0231,0.0247,0.0258,0.0258,0.025,0.0244,0.0242,0.0233,0.0211,0.0176,0.0146,0.0137,0.0154,0.0184,0.0206,0.0162,0.0033,-0.0107,-0.0176,-0.0206,-0.0225,-0.0253,-0.0299,-0.028,0.0135,0.0893,0.1187,0.1291,0.1096,0.067,0.0324,0.0321,0.0299,0.0236,0.0184,0.0472,0.047,0.0453,0.0417,0.0363,0.0294,0.0239,0.0228,0.0253,0.0264,0.0255,0.0242,0.0244,0.0264,0.0277,0.028,0.0272,0.0264,0.0261,0.025,0.0225,0.0181,0.014,0.0124,0.0137,0.0165,0.0165,0.008,-0.0091,-0.0201,-0.0209,-0.0209,-0.0214,-0.0214,-0.0165,0.011,0.0566,0.1027,0.1145,0.1255,0.1176,0.0555,0.0016,-0.019,-0.0231,-0.025,-0.0211,0.0456,0.047,0.047,0.0459,0.0417,0.0335,0.0247,0.0206,0.0222,0.0244,0.025,0.025,0.0258,0.0277,0.0294,0.0299,0.0291,0.028,0.0275,0.0264,0.0233,0.0187,0.0143,0.0121,0.0126,0.0132,0.0088,-0.0052,-0.022,-0.0242,-0.0206,-0.0198,-0.0195,-0.0099,0.0201,0.0461,0.0879,0.0956,0.0791,0.0654,0.067,0.0179,-0.0505,-0.0917,-0.1057,-0.1096,-0.1008,0.0431,0.0459,0.0472,0.0472,0.0439,0.0365,0.0275,0.0217,0.0211,0.0231,0.0247,0.0258,0.0272,0.0291,0.0308,0.0313,0.031,0.0302,0.0294,0.0277,0.0242,0.0192,0.0146,0.0115,0.0102,0.0066,-0.0038,-0.0211,-0.0294,-0.0258,-0.0217,-0.0168,-0.0005,0.0168,0.033,0.0415,0.0711,0.0808,0.05,0.028,0.0308,-0.0071,-0.092,-0.1574,-0.1849,-0.1925,-0.1818,0.0407,0.0445,0.0467,0.047,0.0437,0.0374,0.0302,0.0244,0.022,0.0228,0.025,0.0264,0.0283,0.0299,0.0313,0.0319,0.0324,0.0324,0.0321,0.0302,0.0264,0.0206,0.0151,0.0104,0.0055,-0.0033,-0.0192,-0.0346,-0.0368,-0.0313,0.0036,0.031,0.033,0.0253,0.0129,0.0332,0.0538,0.0775,0.0492,0.0184,0.0181,-0.0168,-0.1082,-0.1906,-0.2255,-0.2274,-0.2096,0.0371,0.0417,0.0456,0.0464,0.0431,0.0374,0.0319,0.0272,0.0239,0.0236,0.0253,0.0272,0.0286,0.0297,0.0305,0.0316,0.0332,0.0349,0.0354,0.0332,0.0291,0.0231,0.0165,0.0088,-0.0016,-0.0165,-0.0365,-0.0519,-0.0552,-0.0159,0.045,0.0522,0.0255,0.0049,0.006,0.0206,0.0514,0.0755,0.047,0.0099,0.008,-0.0225,-0.1096,-0.1964,-0.2348,-0.2293,-0.2035]}],[{"header":{"parameterUnit":"m.s-1","parameterCategory":2,"la1":30.8641,"la2":29.7642,"lo1":-88.4676,"lo2":-86.9344,"dx":0.0333,"dy":0.0333,"nx":47,"ny":34,"refTime":"2022-11-16T00:00:00:Z","depth":"15","parameterNumber":2,"parameterNumberName":"U-component_of_CURRENTS"},"data":[0,0,0,0,0,0,0,0,0,0,0,0,0,0,0,0,0,0,0,0,0,0,0,0,0,0,0,0,0,0,0,0,0,0,0,0,0,0,0,0,0,0,0,0,0,0,0,0,0,0,0,0,0,0,0,0,0,0,0,0,0,0,0,0,0,0,0,0,0,0,0,0,0,0,0,0,0,0,0,0,0,0,0,0,0,0,0,0,0,0,0,0,0,0,0,0,0,0,0,0,0,0,0,0,0,0,0,0,0,0,0,0,0,0,0,0,0,0,0,0,0,0,0,0,0,0,0,0,0,0,0,0,0,0,0,0,0,0,0,0,0,0,0,0,0,0,0,0,0,0,0,0,0,0,0,0,0,0,0,0,0,0,0,0,0,0,0,0,0,0,0,0,0,0,0,0,0,0,0,0,0,0,0,0,0,0,0,0,0,0,0,0,0,0,0,0,0,0,0,0,0,0,0,0,0,0,0,0,0,0,0,0,0,0,0,0,0,0,0,0,0,0,0,0,0,0,0,0,0,0,0,0,0,0,0,0,0,0,0,0,0,0,0,0,0,0,0,0,0,0,0,0,0,0,0,0,0,0,0,0,0,0,0,0,0,0,0,0,0,0,0,0,0,0,0,0,0,0,0,0,0,0,0,0,0,0,0,0,0,0,0,0,0,0,0,0,0,0,0,0,0,0,0,0,0,0,0,0,0,0,0,0,0,0,0,0,0,0,0,0,0,0,0,0,0,0,0,0,0,0,0,0,0,0,0,0,0,0,0,0,0,0,0,0,0,0,0,0,0,0,0,0,0,0,0,0,0,0,0,0,0,0,0,0,0,0,0,0,0,0,0,0,0,0,0,0,0,0,0,0,0,0,0,0,0,0,0,0,0,0,0,0,0,0,0,0,0,0,0,0,0,0,0,0,0,0,0,0,0,0,0,0,0,0,0,0,0,0,0,0,0,0,0,0,0,0,0,0,0,0,0,0,0,0,0,0,0,0,0,0,0,0,0,0,0,0,0,0,0,0,0,0,0,0,0,0,0,0,0,0,0,0,0,0,0,0,0,0,0,0,0,0,0,0,0,0,0,0,0,0,0,0,0,0,0,0,0,0,0,0,0,0,0,0,0,0,0,0,0,0,0,0,0,0,0,0,0,0,0,0,0,0,0,0,0,0,0,0,0,0,0,0,0,0,0,0,0,0,0,0,0,0,0,0,0,0,0,0,0,0,0,0,0,0,0,0,0,0,0,0,0,0,0,0,0,0,0,0,0,0,0,0,0,0,0,0,0,0,0,0,0,0,0,0,0,0,0,0,0,0,0,0,0,0,0,0,0,0,0,0,0,0,0,0,0,0,0,0,0,0,0,0,0,0,0,0,0,0,0,0,0,0,0,0,0,0,0,0,0,0,0,0,0,0,0,0,0,0,0,0,0,0,0,0,0,0,0,0,0,0,0,0,0,0,0,0,0,0,0,0,0,0,0,0,0,0,0,0,0,0,0,0,0,0,0,0,0,0,0,0,0,0,0,0,0,0,0,0,0,0,0,0,0,0,0,0,0,0,0,0,0,0,0,0,0,0,0,0,0,0,0,0,0,0,0,0,0,0,0,0,0,0,0,0,0,0,0,0,0,0,0,0,0,0,0,0,0,0,0,0,0,0,0,0,0,0,0,0,0,0,0,0,0,0,0,0,0,0,0,0,0,0.0187,0,0,0,0,0,0,0,0,0,0,0,0,0,0,0,0,0,0,0,0,0,0,0,0,0,0,0,0,0,0,0,0,0,0,0,0,0,0,0,0,0,0,0.0003,0.0107,0.028,0.0536,0.0667,0,0,0,0,0,0,0,0,0,0,0,0,0,0,0,0,0,0,0,0,0,0,0,0,0,0,0,0,0,0,0,0,0,0,0,0,0,0,0,0,0,0.0222,0.0291,0.0374,0.0464,0.056,0.0637,0,0,0,0,0,0,0,0,0,0,0,0,0,0,0,0,0,0,0,0,0,0,0,0,0,0,0,0,0,0,0,0,0,0,0,0,0,0,0.0286,0.0343,0.0439,0.0486,0.0525,0.0571,0.0615,0.0648,0.0665,0,0,0,0,0,0,0,0,0,0,0,0,0,0,0,0,0,0,0,0,0,0,0,0,0,0,0,0,0,0,0,0,0,0,0,0.0313,0.0357,0.0404,0.0407,0.0456,0.0547,0.0599,0.0629,0.0645,0.0648,0.064,0.0634,0,0,0,0,0,0,0,0,0,0,0,0,0,0,0,0,0,0,0,0,0,0,0,0,0,0,0,0,0.0137,0.0154,0.0168,0.0173,0.0181,0.0181,0.019,0.0225,0.028,0.0338,0.0376,0.0417,0.0461,0.0508,0.0549,0.0571,0.0569,0.0544,0.0527,0,0,0,0,0,0,0.0203,0.0346,0,0,0,0,0,0,0,0,0,0,0,0,0,0,0,0,0,0,0.0093,0.0102,0.011,0.0118,0.0121,0.0113,0.0099,0.0091,0.0102,0.0132,0.0176,0.0211,0.0236,0.0264,0.0316,0.0382,0.0428,0.0434,0.0409,0.0379,0.0382,0,0,-0.0157,-0.0129,-0.0135,-0.0179,0.0,0.0162,0.0049,-0.0102,-0.0132,0,0,0,0,0,0,0,0,0,0,0,0,0,0.0016,0.0044,0.0066,0.0077,0.0085,0.0085,0.0069,0.0041,0.0005,-0.0016,-0.0025,-0.0011,0.0016,0.006,0.0115,0.0162,0.0195,0.0209,0.0201,0.0151,0.0091,0.0011,0.0041,-0.0255,-0.0198,-0.014,-0.011,-0.0118,-0.0132,-0.0107,-0.0052,-0.0049,-0.0099,-0.0143,-0.0126,-0.0063,-0.008,-0.0165,-0.0203,-0.0195,-0.0176,-0.0151,-0.0124,-0.0099,-0.0077,-0.0058,-0.0033,-0.0011,0.0011,0.003,0.0044,0.0049,0.0041,0.0014,-0.003,-0.0077,-0.0115,-0.0137,-0.0132,-0.0093,-0.003,0.0044,0.0099,0.0115,0.0102,0.0066,0.0019,0.0179,0.0426,0.0533,-0.0239,-0.017,-0.0121,-0.0104,-0.0113,-0.0121,-0.0099,-0.0036,0.0011,0.0003,-0.0033,-0.0063,-0.0077,-0.0107,-0.0162,-0.0192,-0.0184,-0.0162,-0.0137,-0.0113,-0.0091,-0.0077,-0.0063,-0.0047,-0.0033,-0.0019,-0.0005,0.0008,0.0016,0.0005,-0.0027,-0.0077,-0.0132,-0.0187,-0.022,-0.0214,-0.0157,-0.0055,0.0069,0.0179,0.0242,0.0261,0.0272,0.0398,0.0717,0.0937,0.0939,-0.0231,-0.017,-0.0132,-0.0121,-0.0132,-0.0146,-0.0137,-0.0107,-0.0074,-0.0069,-0.0091,-0.0118,-0.014,-0.0162,-0.0179,-0.0184,-0.0173,-0.0151,-0.0126,-0.0099,-0.008,-0.0066,-0.0058,-0.0052,-0.0049,-0.0041,-0.0027,-0.0011,-0.0003,-0.0014,-0.0052,-0.0107,-0.0173,-0.0242,-0.0297,-0.0319,-0.0305,-0.0253,-0.0113,0.0099,0.0266,0.0412,0.0637,0.0975,0.1077,0.0882,0.0736,-0.0231,-0.0192,-0.0162,-0.0154,-0.0157,-0.0162,-0.0157,-0.014,-0.0132,-0.0143,-0.0162,-0.0181,-0.019,-0.019,-0.0184,-0.0176,-0.0162,-0.0137,-0.011,-0.0082,-0.006,-0.0047,-0.0044,-0.0047,-0.0049,-0.0047,-0.0036,-0.0022,-0.0016,-0.0041,-0.0088,-0.0154,-0.0228,-0.0308,-0.0401,-0.0533,-0.0695,-0.0722,-0.0461,-0.0008,0.0404,0.0808,0.0981,0.0843,0.0786,0.07,0.0461,-0.0253,-0.0222,-0.0192,-0.0162,-0.0143,-0.0137,-0.0143,-0.0154,-0.0168,-0.019,-0.0211,-0.0225,-0.0222,-0.0209,-0.0192,-0.0173,-0.0151,-0.0124,-0.0096,-0.0066,-0.0041,-0.0025,-0.0019,-0.0025,-0.0033,-0.0033,-0.0027,-0.0025,-0.0044,-0.0088,-0.0148,-0.0209,-0.0272,-0.0354,-0.05,-0.0714,-0.084,-0.0626,-0.0217,0.0126,0.0503,0.0593,0.0549,0.0596,0.0497,0.0305,0.0022,-0.0299,-0.0275,-0.0236,-0.0184,-0.0129,-0.0096,-0.0102,-0.0137,-0.0176,-0.0203,-0.022,-0.0225,-0.0214,-0.0201,-0.0181,-0.0162,-0.014,-0.0115,-0.0088,-0.006,-0.0036,-0.0014,-0.0005,-0.0008,-0.0016,-0.0019,-0.0025,-0.0044,-0.0093,-0.0159,-0.022,-0.0261,-0.0291,-0.0313,-0.0316,-0.0269,-0.0137,0.0135,0.0327,0.0181,0.0082,0.0288,0.0475,0.0505,0.0409,0.0192,-0.0113,-0.0327,-0.0316,-0.0286,-0.0231,-0.0159,-0.0104,-0.0091,-0.0115,-0.0157,-0.0184,-0.0198,-0.0198,-0.019,-0.0181,-0.0173,-0.0157,-0.0137,-0.0115,-0.0093,-0.0074,-0.0052,-0.0033,-0.0019,-0.0014,-0.0014,-0.0025,-0.0049,-0.0096,-0.0168,-0.0242,-0.0302,-0.0327,-0.0327,-0.0288,-0.0168,0.0091,0.0439,0.0769,0.0851,0.0824,0.0868,0.0742,0.0714,0.0654,0.0511,0.0269,-0.0036,-0.0316,-0.0313,-0.0294,-0.0258,-0.0209,-0.0154,-0.0121,-0.0121,-0.014,-0.0162,-0.0176,-0.0181,-0.0181,-0.0179,-0.0173,-0.0159,-0.0143,-0.0121,-0.0102,-0.0082,-0.0063,-0.0047,-0.0033,-0.0027,-0.0033,-0.0055,-0.0102,-0.017,-0.0258,-0.0343,-0.0385,-0.0393,-0.039,-0.0357,-0.0253,0.0093,0.0516,0.072,0.0953,0.1277,0.1434,0.1118,0.0819,0.0678,0.0514,0.0288,0.0066,-0.0266,-0.0269,-0.0264,-0.0247,-0.0222,-0.019,-0.0159,-0.014,-0.014,-0.0154,-0.0168,-0.0176,-0.0179,-0.0179,-0.0173,-0.0162,-0.0146,-0.0124,-0.0096,-0.0069,-0.0047,-0.003,-0.0025,-0.003,-0.0049,-0.0096,-0.0168,-0.0264,-0.0374,-0.0459,-0.0511,-0.0547,-0.0538,-0.0382,0.0019,0.0129,0.0308,0.0676,0.0805,0.1011,0.1244,0.12,0.0887,0.0618,0.0346,0.0096,-0.0069,-0.0209,-0.0217,-0.0214,-0.0211,-0.0206,-0.0198,-0.0179,-0.0157,-0.0148,-0.0154,-0.0162,-0.017,-0.0173,-0.017,-0.0168,-0.0162,-0.0151,-0.0124,-0.0088,-0.0052,-0.0022,0.0,0.0005,-0.0005,-0.0047,-0.0121,-0.0225,-0.0357,-0.0508,-0.0678,-0.0832,-0.0777,-0.036,0.003,0.0176,0.0121,0.0173,0.0437,0.0621,0.075,0.0953,0.1063,0.0879,0.0547,0.0181,-0.0124,-0.0299,-0.0159,-0.0187,-0.0206,-0.0209,-0.0203,-0.0192,-0.0179,-0.0162,-0.0148,-0.0146,-0.0151,-0.0154,-0.0154,-0.0157,-0.0162,-0.0162,-0.0154,-0.0126,-0.0088,-0.0044,-0.0008,0.0016,0.0027,0.0016,-0.0027,-0.0115,-0.0255,-0.0478,-0.0777,-0.1074,-0.0937,-0.0459,-0.0151,-0.0038,-0.0019,-0.0016,0.0066,0.0187,0.0341,0.0439,0.0536,0.067,0.0689,0.0483,0.014,-0.0124,-0.0231]},{"header":{"parameterUnit":"m.s-1","parameterCategory":2,"la1":30.8641,"la2":29.7642,"lo1":-88.4676,"lo2":-86.9344,"dx":0.0333,"dy":0.0333,"nx":47,"ny":34,"refTime":"2022-11-16T00:00:00:Z","depth":"15","parameterNumber":3,"parameterNumberName":"V-component_of_CURRENTS"},"data":[0,0,0,0,0,0,0,0,0,0,0,0,0,0,0,0,0,0,0,0,0,0,0,0,0,0,0,0,0,0,0,0,0,0,0,0,0,0,0,0,0,0,0,0,0,0,0,0,0,0,0,0,0,0,0,0,0,0,0,0,0,0,0,0,0,0,0,0,0,0,0,0,0,0,0,0,0,0,0,0,0,0,0,0,0,0,0,0,0,0,0,0,0,0,0,0,0,0,0,0,0,0,0,0,0,0,0,0,0,0,0,0,0,0,0,0,0,0,0,0,0,0,0,0,0,0,0,0,0,0,0,0,0,0,0,0,0,0,0,0,0,0,0,0,0,0,0,0,0,0,0,0,0,0,0,0,0,0,0,0,0,0,0,0,0,0,0,0,0,0,0,0,0,0,0,0,0,0,0,0,0,0,0,0,0,0,0,0,0,0,0,0,0,0,0,0,0,0,0,0,0,0,0,0,0,0,0,0,0,0,0,0,0,0,0,0,0,0,0,0,0,0,0,0,0,0,0,0,0,0,0,0,0,0,0,0,0,0,0,0,0,0,0,0,0,0,0,0,0,0,0,0,0,0,0,0,0,0,0,0,0,0,0,0,0,0,0,0,0,0,0,0,0,0,0,0,0,0,0,0,0,0,0,0,0,0,0,0,0,0,0,0,0,0,0,0,0,0,0,0,0,0,0,0,0,0,0,0,0,0,0,0,0,0,0,0,0,0,0,0,0,0,0,0,0,0,0,0,0,0,0,0,0,0,0,0,0,0,0,0,0,0,0,0,0,0,0,0,0,0,0,0,0,0,0,0,0,0,0,0,0,0,0,0,0,0,0,0,0,0,0,0,0,0,0,0,0,0,0,0,0,0,0,0,0,0,0,0,0,0,0,0,0,0,0,0,0,0,0,0,0,0,0,0,0,0,0,0,0,0,0,0,0,0,0,0,0,0,0,0,0,0,0,0,0,0,0,0,0,0,0,0,0,0,0,0,0,0,0,0,0,0,0,0,0,0,0,0,0,0,0,0,0,0,0,0,0,0,0,0,0,0,0,0,0,0,0,0,0,0,0,0,0,0,0,0,0,0,0,0,0,0,0,0,0,0,0,0,0,0,0,0,0,0,0,0,0,0,0,0,0,0,0,0,0,0,0,0,0,0,0,0,0,0,0,0,0,0,0,0,0,0,0,0,0,0,0,0,0,0,0,0,0,0,0,0,0,0,0,0,0,0,0,0,0,0,0,0,0,0,0,0,0,0,0,0,0,0,0,0,0,0,0,0,0,0,0,0,0,0,0,0,0,0,0,0,0,0,0,0,0,0,0,0,0,0,0,0,0,0,0,0,0,0,0,0,0,0,0,0,0,0,0,0,0,0,0,0,0,0,0,0,0,0,0,0,0,0,0,0,0,0,0,0,0,0,0,0,0,0,0,0,0,0,0,0,0,0,0,0,0,0,0,0,0,0,0,0,0,0,0,0,0,0,0,0,0,0,0,0,0,0,0,0,0,0,0,0,0,0,0,0,0,0,0,0,0,0,0,0,0,0,0,0,0,0,0,0,0,0,0,0,0,0,0,0,0,0,0,0,0,0,0,0,0,0,0,0,0,0,0,0,0,0,0,0,0,0,0,0,0,0,0,0,0,0,0,0,0,0,0,0,0,0,0,0,0,0,0,0,0,0,0,0,0,0,0,0,0,0,0,0.0459,0,0,0,0,0,0,0,0,0,0,0,0,0,0,0,0,0,0,0,0,0,0,0,0,0,0,0,0,0,0,0,0,0,0,0,0,0,0,0,0,0,0,0.014,0.0214,0.0308,0.0385,0.0437,0,0,0,0,0,0,0,0,0,0,0,0,0,0,0,0,0,0,0,0,0,0,0,0,0,0,0,0,0,0,0,0,0,0,0,0,0,0,0,0,0,0.0157,0.019,0.0269,0.0365,0.0434,0.0431,0,0,0,0,0,0,0,0,0,0,0,0,0,0,0,0,0,0,0,0,0,0,0,0,0,0,0,0,0,0,0,0,0,0,0,0,0,0,0.0277,0.0044,0.0154,0.0211,0.0266,0.0354,0.0445,0.0486,0.0442,0,0,0,0,0,0,0,0,0,0,0,0,0,0,0,0,0,0,0,0,0,0,0,0,0,0,0,0,0,0,0,0,0,0,0,0.0027,0.0008,0.0157,0.0269,0.0206,0.0228,0.0244,0.0299,0.0382,0.0456,0.0475,0.0417,0,0,0,0,0,0,0,0,0,0,0,0,0,0,0,0,0,0,0,0,0,0,0,0,0,0,0,0,0.0222,0.0206,0.0244,0.0239,0.0228,0.0179,0.011,0.0085,0.0121,0.0231,0.0294,0.0299,0.028,0.0283,0.0321,0.0387,0.0434,0.0437,0.039,0,0,0,0,0,0,0.039,0.05,0,0,0,0,0,0,0,0,0,0,0,0,0,0,0,0,0,0,0.0233,0.0228,0.0209,0.0206,0.0217,0.0222,0.0209,0.017,0.0137,0.0146,0.0203,0.0275,0.0324,0.0338,0.0335,0.0335,0.0352,0.0382,0.0398,0.0385,0.0387,0,0,0.0343,0.0409,0.0453,0.0385,0.0393,0.0544,0.0645,0.0692,0.0667,0,0,0,0,0,0,0,0,0,0,0,0,0,0.0244,0.0253,0.0242,0.0222,0.0206,0.0195,0.0192,0.0184,0.017,0.0148,0.0143,0.0173,0.0236,0.0308,0.036,0.0376,0.0374,0.0365,0.0343,0.0319,0.0324,0.0332,0.0393,0.0324,0.0343,0.0365,0.0409,0.0404,0.0335,0.0233,0.033,0.0494,0.0563,0.0536,0.0481,0.0467,0.0461,0.0415,0.0275,0.0231,0.0198,0.0184,0.0181,0.0187,0.0195,0.0211,0.0236,0.0253,0.0258,0.0244,0.0222,0.0203,0.0179,0.0154,0.0132,0.0118,0.0113,0.0129,0.0181,0.0269,0.0363,0.0415,0.0407,0.0368,0.0332,0.0277,0.025,0.0288,0.0233,0.006,0.0385,0.0401,0.0407,0.0401,0.0374,0.0335,0.028,0.0277,0.0387,0.0475,0.0453,0.0354,0.0302,0.033,0.0332,0.0269,0.0236,0.0203,0.019,0.0184,0.0184,0.0192,0.0206,0.0228,0.0244,0.0253,0.0242,0.0222,0.0198,0.0154,0.0104,0.0071,0.0058,0.0063,0.0102,0.0192,0.0327,0.0453,0.0508,0.0459,0.036,0.0297,0.0253,0.0184,0.0005,-0.0118,-0.0379,0.0434,0.0431,0.0407,0.0365,0.0332,0.0316,0.031,0.033,0.0387,0.0434,0.0404,0.0321,0.0275,0.0275,0.0277,0.0258,0.0231,0.0206,0.0195,0.0187,0.0184,0.0187,0.0195,0.0211,0.0225,0.0239,0.0239,0.0225,0.019,0.0121,0.0049,0.0,-0.0016,-0.0005,0.006,0.0192,0.0368,0.0541,0.067,0.0643,0.0505,0.0478,0.0242,0.0052,-0.0066,-0.014,-0.0275,0.0459,0.0439,0.0393,0.0327,0.0286,0.0286,0.0308,0.0341,0.0376,0.0393,0.0354,0.0286,0.0244,0.0247,0.0255,0.0244,0.0228,0.0211,0.0206,0.0198,0.0187,0.0181,0.0181,0.019,0.0206,0.0222,0.0236,0.0228,0.0173,0.008,-0.0014,-0.0074,-0.0099,-0.0088,-0.0027,0.0077,0.0255,0.0585,0.0923,0.0959,0.0656,0.039,0.0321,0.0239,0.0291,0.0192,0.0,0.0472,0.0448,0.0393,0.0319,0.0272,0.0266,0.0291,0.0324,0.0343,0.0343,0.0308,0.0258,0.0231,0.0242,0.0253,0.0244,0.0236,0.0228,0.0222,0.0214,0.0198,0.0179,0.0165,0.0165,0.0184,0.0209,0.0231,0.0214,0.0135,0.0014,-0.0088,-0.0146,-0.0173,-0.0184,-0.0195,-0.0173,0.0088,0.0722,0.1134,0.1107,0.0731,0.0357,0.0409,0.0503,0.0445,0.0324,0.0159,0.0483,0.0464,0.0423,0.036,0.0302,0.0266,0.0264,0.0283,0.0302,0.0302,0.0275,0.0247,0.0236,0.0253,0.0264,0.0264,0.0255,0.025,0.0247,0.0236,0.0214,0.0181,0.0151,0.0143,0.0162,0.0192,0.0214,0.0176,0.0055,-0.008,-0.0151,-0.0184,-0.0209,-0.0239,-0.0288,-0.0269,0.0146,0.0904,0.1195,0.1294,0.1085,0.0678,0.0335,0.033,0.0308,0.0244,0.0192,0.0481,0.0478,0.0459,0.042,0.0365,0.0297,0.0242,0.0236,0.0258,0.0272,0.0261,0.025,0.025,0.0269,0.0283,0.0286,0.0277,0.0269,0.0266,0.0255,0.0231,0.019,0.0148,0.0132,0.0146,0.0176,0.0176,0.0096,-0.0063,-0.017,-0.0187,-0.0192,-0.0201,-0.0203,-0.0157,0.0115,0.0571,0.103,0.1151,0.1258,0.1093,0.0566,0.0027,-0.0181,-0.0222,-0.0242,-0.0201,0.0464,0.0478,0.0481,0.0467,0.0423,0.0338,0.025,0.0211,0.0228,0.0253,0.0258,0.0258,0.0266,0.0283,0.0299,0.0305,0.0297,0.0288,0.0283,0.0269,0.0242,0.0195,0.0151,0.0129,0.0135,0.0143,0.0102,-0.003,-0.019,-0.0217,-0.019,-0.0184,-0.0187,-0.0096,0.0203,0.0464,0.0882,0.0959,0.0797,0.0662,0.0615,0.0187,-0.0494,-0.0912,-0.1049,-0.1085,-0.0997,0.0442,0.047,0.0483,0.0483,0.0448,0.0371,0.0277,0.0222,0.022,0.0239,0.0255,0.0264,0.028,0.0299,0.0316,0.0319,0.0316,0.0308,0.0302,0.0286,0.0253,0.0203,0.0157,0.0126,0.0113,0.008,-0.0016,-0.0184,-0.0269,-0.0242,-0.0203,-0.0165,-0.0005,0.017,0.0335,0.042,0.0717,0.0813,0.0508,0.0288,0.0305,-0.006,-0.0906,-0.156,-0.184,-0.1914,-0.181,0.0417,0.0456,0.0481,0.0481,0.0448,0.0382,0.0308,0.025,0.0225,0.0236,0.0255,0.0272,0.0291,0.0308,0.0321,0.0327,0.0332,0.0332,0.033,0.031,0.0272,0.0217,0.0165,0.0115,0.0066,-0.0019,-0.0168,-0.0319,-0.0349,-0.0305,0.0022,0.0299,0.0327,0.0255,0.0135,0.0341,0.0547,0.078,0.05,0.0192,0.0184,-0.0159,-0.1068,-0.189,-0.2241,-0.2263,-0.2082,0.0382,0.0428,0.0467,0.0475,0.0442,0.0385,0.0327,0.028,0.0247,0.0242,0.0261,0.0277,0.0294,0.0305,0.0316,0.0324,0.0343,0.036,0.0365,0.0343,0.0302,0.0242,0.0176,0.0102,-0.0005,-0.0148,-0.0343,-0.0497,-0.0544,-0.0165,0.0423,0.0525,0.0258,0.0055,0.0063,0.0211,0.0522,0.0761,0.0475,0.0107,0.0088,-0.022,-0.1085,-0.1945,-0.2329,-0.2277,-0.2011]}],[{"header":{"parameterUnit":"m.s-1","parameterCategory":2,"la1":30.8641,"la2":29.7642,"lo1":-88.4676,"lo2":-86.9344,"dx":0.0333,"dy":0.0333,"nx":47,"ny":34,"refTime":"2022-11-16T00:00:00:Z","depth":"20","parameterNumber":2,"parameterNumberName":"U-component_of_CURRENTS"},"data":[0,0,0,0,0,0,0,0,0,0,0,0,0,0,0,0,0,0,0,0,0,0,0,0,0,0,0,0,0,0,0,0,0,0,0,0,0,0,0,0,0,0,0,0,0,0,0,0,0,0,0,0,0,0,0,0,0,0,0,0,0,0,0,0,0,0,0,0,0,0,0,0,0,0,0,0,0,0,0,0,0,0,0,0,0,0,0,0,0,0,0,0,0,0,0,0,0,0,0,0,0,0,0,0,0,0,0,0,0,0,0,0,0,0,0,0,0,0,0,0,0,0,0,0,0,0,0,0,0,0,0,0,0,0,0,0,0,0,0,0,0,0,0,0,0,0,0,0,0,0,0,0,0,0,0,0,0,0,0,0,0,0,0,0,0,0,0,0,0,0,0,0,0,0,0,0,0,0,0,0,0,0,0,0,0,0,0,0,0,0,0,0,0,0,0,0,0,0,0,0,0,0,0,0,0,0,0,0,0,0,0,0,0,0,0,0,0,0,0,0,0,0,0,0,0,0,0,0,0,0,0,0,0,0,0,0,0,0,0,0,0,0,0,0,0,0,0,0,0,0,0,0,0,0,0,0,0,0,0,0,0,0,0,0,0,0,0,0,0,0,0,0,0,0,0,0,0,0,0,0,0,0,0,0,0,0,0,0,0,0,0,0,0,0,0,0,0,0,0,0,0,0,0,0,0,0,0,0,0,0,0,0,0,0,0,0,0,0,0,0,0,0,0,0,0,0,0,0,0,0,0,0,0,0,0,0,0,0,0,0,0,0,0,0,0,0,0,0,0,0,0,0,0,0,0,0,0,0,0,0,0,0,0,0,0,0,0,0,0,0,0,0,0,0,0,0,0,0,0,0,0,0,0,0,0,0,0,0,0,0,0,0,0,0,0,0,0,0,0,0,0,0,0,0,0,0,0,0,0,0,0,0,0,0,0,0,0,0,0,0,0,0,0,0,0,0,0,0,0,0,0,0,0,0,0,0,0,0,0,0,0,0,0,0,0,0,0,0,0,0,0,0,0,0,0,0,0,0,0,0,0,0,0,0,0,0,0,0,0,0,0,0,0,0,0,0,0,0,0,0,0,0,0,0,0,0,0,0,0,0,0,0,0,0,0,0,0,0,0,0,0,0,0,0,0,0,0,0,0,0,0,0,0,0,0,0,0,0,0,0,0,0,0,0,0,0,0,0,0,0,0,0,0,0,0,0,0,0,0,0,0,0,0,0,0,0,0,0,0,0,0,0,0,0,0,0,0,0,0,0,0,0,0,0,0,0,0,0,0,0,0,0,0,0,0,0,0,0,0,0,0,0,0,0,0,0,0,0,0,0,0,0,0,0,0,0,0,0,0,0,0,0,0,0,0,0,0,0,0,0,0,0,0,0,0,0,0,0,0,0,0,0,0,0,0,0,0,0,0,0,0,0,0,0,0,0,0,0,0,0,0,0,0,0,0,0,0,0,0,0,0,0,0,0,0,0,0,0,0,0,0,0,0,0,0,0,0,0,0,0,0,0,0,0,0,0,0,0,0,0,0,0,0,0,0,0,0,0,0,0,0,0,0,0,0,0,0,0,0,0,0,0,0,0,0,0,0,0,0,0,0,0,0,0,0,0,0,0,0,0,0,0,0,0,0,0,0,0,0,0,0,0,0,0,0,0,0,0,0,0,0,0,0,0,0,0,0,0,0,0,0,0,0,0,0,0,0,0,0,0,0,0,0,0,0,0,0,0,0,0,0,0,0,0,0,0,0,0,0,0,0,0,0,0,0,0,0,0,0,0,0,0,0,0,0,0,0,0.0511,0.0632,0,0,0,0,0,0,0,0,0,0,0,0,0,0,0,0,0,0,0,0,0,0,0,0,0,0,0,0,0,0,0,0,0,0,0,0,0,0,0,0,0,0,0,0,0.0445,0.0527,0.0596,0,0,0,0,0,0,0,0,0,0,0,0,0,0,0,0,0,0,0,0,0,0,0,0,0,0,0,0,0,0,0,0,0,0,0,0,0,0,0,0,0,0.0467,0.05,0.0538,0.0585,0.0621,0.0632,0,0,0,0,0,0,0,0,0,0,0,0,0,0,0,0,0,0,0,0,0,0,0,0,0,0,0,0,0,0,0,0,0,0,0,0,0,0,0.039,0.0431,0.0519,0.0571,0.0607,0.0629,0.0632,0.0621,0.061,0,0,0,0,0,0,0,0,0,0,0,0,0,0,0,0,0,0,0,0,0,0,0,0,0,0,0,0,0,0,0,0,0,0,0,0,0,0.0313,0.0354,0.0401,0.0448,0.0497,0.0541,0.0563,0.056,0.0536,0.0516,0,0,0,0,0,0,0,0,0,0,0,0,0,0,0,0,0,0,0,0,0,0,0,0,0,0,0,0,0,0.0118,0.0121,0.0113,0.0096,0.0082,0.0091,0.0118,0.0157,0.0198,0.0225,0.0258,0.0313,0.0376,0.0423,0.0428,0.0404,0.0374,0.0376,0,0,0,0,0,0,0,0,0,0,0,0,0,0,0,0,0,0,0,0,0,0,0,0,0,0,0,0,0.0085,0.0085,0.0071,0.0038,0.0003,-0.0022,-0.003,-0.0022,0.0008,0.0055,0.011,0.0162,0.0195,0.0209,0.0198,0.0148,0.0088,0.0011,0.0044,0,0,0,0,0,0,0,0,0,0,0,0,0,0,0,0,0,0,0,0,0,0,0,0,0,0,0.0033,0.0047,0.0049,0.0041,0.0011,-0.0033,-0.008,-0.0121,-0.0143,-0.014,-0.0102,-0.0033,0.0044,0.0102,0.0121,0.0104,0.0066,0.0022,0.0184,0.0437,0.0547,0,0,0,0,-0.0113,-0.0121,-0.0102,0,0,0,0,0,0,0,0,0,0,0,0,0,0,0,0,0,-0.0025,-0.0014,-0.0003,0.0011,0.0016,0.0005,-0.003,-0.0082,-0.014,-0.0195,-0.0231,-0.0225,-0.0162,-0.0055,0.0074,0.0187,0.025,0.0266,0.0277,0.0409,0.0739,0.0939,0.0939,-0.0225,-0.017,-0.0135,-0.0124,-0.0132,-0.0143,-0.0135,-0.0104,-0.0071,-0.0069,-0.0099,-0.0129,0,0,0,0,0,-0.0148,-0.0121,-0.0093,-0.0071,-0.0058,-0.0047,-0.0041,-0.0038,-0.0033,-0.0025,-0.0011,-0.0005,-0.0022,-0.006,-0.0118,-0.0187,-0.0255,-0.0308,-0.0321,-0.0302,-0.0242,-0.0104,0.0104,0.0272,0.042,0.0643,0.0978,0.1079,0.0884,0.0736,-0.0231,-0.0195,-0.0168,-0.0157,-0.0159,-0.0159,-0.0151,-0.0137,-0.0129,-0.0143,-0.017,-0.019,-0.0192,-0.0187,-0.0179,-0.017,-0.0157,-0.0132,-0.0104,-0.0077,-0.0055,-0.0041,-0.0036,-0.0038,-0.0041,-0.0041,-0.003,-0.0019,-0.0022,-0.0052,-0.0107,-0.017,-0.0244,-0.0321,-0.0404,-0.0525,-0.0676,-0.0703,-0.0448,0.0005,0.0409,0.081,0.0983,0.0843,0.0788,0.07,0.0464,-0.0253,-0.0228,-0.0201,-0.017,-0.0148,-0.0135,-0.0137,-0.0151,-0.0168,-0.019,-0.0217,-0.0231,-0.0222,-0.0206,-0.0187,-0.0168,-0.0146,-0.0121,-0.0091,-0.0063,-0.0038,-0.0022,-0.0016,-0.0022,-0.0027,-0.0027,-0.0022,-0.0022,-0.0049,-0.0107,-0.017,-0.0228,-0.0286,-0.036,-0.0494,-0.0692,-0.0816,-0.0613,-0.0192,0.0211,0.0547,0.061,0.0558,0.0602,0.0497,0.0308,0.0025,-0.0297,-0.0275,-0.0242,-0.0195,-0.0137,-0.0102,-0.0104,-0.0137,-0.0173,-0.0203,-0.0222,-0.0225,-0.0214,-0.0198,-0.0181,-0.0159,-0.0135,-0.011,-0.0085,-0.006,-0.0033,-0.0014,-0.0005,-0.0008,-0.0014,-0.0016,-0.0022,-0.0047,-0.0107,-0.0181,-0.0244,-0.0277,-0.0299,-0.0313,-0.031,-0.0264,-0.0129,0.0148,0.0368,0.0354,0.0261,0.0398,0.0492,0.0511,0.0412,0.0195,-0.011,-0.0321,-0.031,-0.0283,-0.0233,-0.017,-0.0118,-0.0099,-0.0121,-0.0154,-0.0184,-0.0198,-0.0198,-0.019,-0.0181,-0.017,-0.0157,-0.0135,-0.0113,-0.0091,-0.0069,-0.0049,-0.0033,-0.0022,-0.0014,-0.0016,-0.0025,-0.0052,-0.011,-0.019,-0.0269,-0.0319,-0.0335,-0.0327,-0.0288,-0.0168,0.0093,0.0445,0.0775,0.086,0.092,0.103,0.1005,0.0791,0.0662,0.0514,0.0272,-0.0033,-0.031,-0.0308,-0.0288,-0.0258,-0.0214,-0.0168,-0.0135,-0.0129,-0.0143,-0.0162,-0.0176,-0.0179,-0.0179,-0.0176,-0.0168,-0.0157,-0.0137,-0.0118,-0.0096,-0.008,-0.0063,-0.0049,-0.0036,-0.003,-0.0033,-0.0058,-0.0113,-0.0192,-0.0288,-0.0365,-0.0396,-0.0393,-0.0387,-0.0352,-0.0247,0.0102,0.0525,0.0722,0.0959,0.1266,0.1431,0.1412,0.0983,0.0722,0.0525,0.0294,0.0069,-0.0261,-0.0261,-0.0255,-0.0239,-0.022,-0.0198,-0.0173,-0.0151,-0.0146,-0.0154,-0.0168,-0.0173,-0.0176,-0.0176,-0.0168,-0.0159,-0.0143,-0.0121,-0.0093,-0.0069,-0.0047,-0.0033,-0.0027,-0.0033,-0.0052,-0.0104,-0.019,-0.0294,-0.0398,-0.047,-0.0511,-0.0544,-0.0533,-0.0374,0.0025,0.0135,0.0319,0.0681,0.081,0.1014,0.1247,0.1362,0.1151,0.0753,0.0387,0.0099,-0.0069,-0.0206,-0.0209,-0.0206,-0.0201,-0.0201,-0.0201,-0.0187,-0.0168,-0.0154,-0.0157,-0.0162,-0.0168,-0.0168,-0.0168,-0.0165,-0.0159,-0.0146,-0.0121,-0.0088,-0.0052,-0.0025,-0.0005,0.0003,-0.0008,-0.0052,-0.0137,-0.0253,-0.0385,-0.0525,-0.0676,-0.078,-0.0731,-0.0349,0.003,0.0176,0.0124,0.0181,0.0445,0.0623,0.0753,0.0959,0.1115,0.0967,0.0648,0.0253,-0.0104,-0.0294,-0.0159,-0.0184,-0.0195,-0.0198,-0.0192,-0.019,-0.0184,-0.0173,-0.0157,-0.0148,-0.0148,-0.0151,-0.0151,-0.0154,-0.0159,-0.0159,-0.0151,-0.0124,-0.0085,-0.0047,-0.0014,0.0008,0.0022,0.0014,-0.0036,-0.0137,-0.0286,-0.05,-0.0772,-0.0978,-0.086,-0.0456,-0.0154,-0.0044,-0.0025,-0.0016,0.0074,0.0192,0.0341,0.0439,0.0538,0.0684,0.0736,0.056,0.0198,-0.0104,-0.0225]},{"header":{"parameterUnit":"m.s-1","parameterCategory":2,"la1":30.8641,"la2":29.7642,"lo1":-88.4676,"lo2":-86.9344,"dx":0.0333,"dy":0.0333,"nx":47,"ny":34,"refTime":"2022-11-16T00:00:00:Z","depth":"20","parameterNumber":3,"parameterNumberName":"V-component_of_CURRENTS"},"data":[0,0,0,0,0,0,0,0,0,0,0,0,0,0,0,0,0,0,0,0,0,0,0,0,0,0,0,0,0,0,0,0,0,0,0,0,0,0,0,0,0,0,0,0,0,0,0,0,0,0,0,0,0,0,0,0,0,0,0,0,0,0,0,0,0,0,0,0,0,0,0,0,0,0,0,0,0,0,0,0,0,0,0,0,0,0,0,0,0,0,0,0,0,0,0,0,0,0,0,0,0,0,0,0,0,0,0,0,0,0,0,0,0,0,0,0,0,0,0,0,0,0,0,0,0,0,0,0,0,0,0,0,0,0,0,0,0,0,0,0,0,0,0,0,0,0,0,0,0,0,0,0,0,0,0,0,0,0,0,0,0,0,0,0,0,0,0,0,0,0,0,0,0,0,0,0,0,0,0,0,0,0,0,0,0,0,0,0,0,0,0,0,0,0,0,0,0,0,0,0,0,0,0,0,0,0,0,0,0,0,0,0,0,0,0,0,0,0,0,0,0,0,0,0,0,0,0,0,0,0,0,0,0,0,0,0,0,0,0,0,0,0,0,0,0,0,0,0,0,0,0,0,0,0,0,0,0,0,0,0,0,0,0,0,0,0,0,0,0,0,0,0,0,0,0,0,0,0,0,0,0,0,0,0,0,0,0,0,0,0,0,0,0,0,0,0,0,0,0,0,0,0,0,0,0,0,0,0,0,0,0,0,0,0,0,0,0,0,0,0,0,0,0,0,0,0,0,0,0,0,0,0,0,0,0,0,0,0,0,0,0,0,0,0,0,0,0,0,0,0,0,0,0,0,0,0,0,0,0,0,0,0,0,0,0,0,0,0,0,0,0,0,0,0,0,0,0,0,0,0,0,0,0,0,0,0,0,0,0,0,0,0,0,0,0,0,0,0,0,0,0,0,0,0,0,0,0,0,0,0,0,0,0,0,0,0,0,0,0,0,0,0,0,0,0,0,0,0,0,0,0,0,0,0,0,0,0,0,0,0,0,0,0,0,0,0,0,0,0,0,0,0,0,0,0,0,0,0,0,0,0,0,0,0,0,0,0,0,0,0,0,0,0,0,0,0,0,0,0,0,0,0,0,0,0,0,0,0,0,0,0,0,0,0,0,0,0,0,0,0,0,0,0,0,0,0,0,0,0,0,0,0,0,0,0,0,0,0,0,0,0,0,0,0,0,0,0,0,0,0,0,0,0,0,0,0,0,0,0,0,0,0,0,0,0,0,0,0,0,0,0,0,0,0,0,0,0,0,0,0,0,0,0,0,0,0,0,0,0,0,0,0,0,0,0,0,0,0,0,0,0,0,0,0,0,0,0,0,0,0,0,0,0,0,0,0,0,0,0,0,0,0,0,0,0,0,0,0,0,0,0,0,0,0,0,0,0,0,0,0,0,0,0,0,0,0,0,0,0,0,0,0,0,0,0,0,0,0,0,0,0,0,0,0,0,0,0,0,0,0,0,0,0,0,0,0,0,0,0,0,0,0,0,0,0,0,0,0,0,0,0,0,0,0,0,0,0,0,0,0,0,0,0,0,0,0,0,0,0,0,0,0,0,0,0,0,0,0,0,0,0,0,0,0,0,0,0,0,0,0,0,0,0,0,0,0,0,0,0,0,0,0,0,0,0,0,0,0,0,0,0,0,0,0,0,0,0,0,0,0,0,0,0,0,0,0,0,0,0,0,0,0,0,0,0,0,0,0,0,0,0,0,0,0,0,0,0,0,0,0,0,0,0,0,0,0,0,0,0,0,0,0,0,0,0,0,0,0,0,0,0,0,0,0,0,0,0,0.0387,0.0431,0,0,0,0,0,0,0,0,0,0,0,0,0,0,0,0,0,0,0,0,0,0,0,0,0,0,0,0,0,0,0,0,0,0,0,0,0,0,0,0,0,0,0,0,0.0371,0.0437,0.0439,0,0,0,0,0,0,0,0,0,0,0,0,0,0,0,0,0,0,0,0,0,0,0,0,0,0,0,0,0,0,0,0,0,0,0,0,0,0,0,0,0,0.0217,0.0275,0.0363,0.045,0.0494,0.0453,0,0,0,0,0,0,0,0,0,0,0,0,0,0,0,0,0,0,0,0,0,0,0,0,0,0,0,0,0,0,0,0,0,0,0,0,0,0,0.0269,0.0211,0.0239,0.0258,0.0308,0.039,0.0459,0.0478,0.0423,0,0,0,0,0,0,0,0,0,0,0,0,0,0,0,0,0,0,0,0,0,0,0,0,0,0,0,0,0,0,0,0,0,0,0,0,0,0.0242,0.0308,0.0313,0.0291,0.0291,0.0327,0.039,0.0437,0.0439,0.0396,0,0,0,0,0,0,0,0,0,0,0,0,0,0,0,0,0,0,0,0,0,0,0,0,0,0,0,0,0,0.0217,0.0231,0.0236,0.0225,0.019,0.0159,0.0168,0.0228,0.0297,0.0341,0.0349,0.0341,0.0341,0.0357,0.0387,0.0407,0.0393,0.0387,0,0,0,0,0,0,0,0,0,0,0,0,0,0,0,0,0,0,0,0,0,0,0,0,0,0,0,0,0.022,0.0214,0.0211,0.0209,0.0195,0.0179,0.0173,0.0203,0.0264,0.0332,0.0379,0.039,0.0385,0.0376,0.0354,0.033,0.0332,0.0338,0.0401,0,0,0,0,0,0,0,0,0,0,0,0,0,0,0,0,0,0,0,0,0,0,0,0,0,0,0.0253,0.0236,0.0217,0.0195,0.0173,0.0154,0.0146,0.0143,0.0162,0.0217,0.0305,0.0396,0.0442,0.0428,0.0385,0.0343,0.0291,0.0264,0.0332,0.031,0.0102,0,0,0,0,0.0382,0.0346,0.0294,0,0,0,0,0,0,0,0,0,0,0,0,0,0,0,0,0,0.0253,0.0264,0.0255,0.0236,0.0209,0.017,0.0126,0.0096,0.0091,0.0102,0.0143,0.0233,0.036,0.0475,0.0522,0.0472,0.0374,0.0305,0.0266,0.0206,0.0038,-0.0096,-0.0368,0.0445,0.0445,0.0428,0.0393,0.036,0.0341,0.033,0.0343,0.0396,0.0437,0.0409,0.033,0,0,0,0,0,0.0211,0.0201,0.0195,0.0192,0.0195,0.0206,0.0222,0.0239,0.0253,0.0253,0.0236,0.0201,0.0137,0.0074,0.0033,0.0019,0.0036,0.0099,0.0222,0.0385,0.0544,0.0667,0.064,0.0508,0.0481,0.0247,0.006,-0.006,-0.0135,-0.0269,0.047,0.045,0.0407,0.0346,0.0308,0.0308,0.0327,0.0357,0.039,0.0407,0.0371,0.0299,0.0253,0.0253,0.0258,0.0247,0.0231,0.0214,0.0206,0.0201,0.0192,0.0187,0.019,0.0201,0.022,0.0236,0.025,0.0239,0.0187,0.0099,0.0014,-0.0038,-0.0063,-0.0055,-0.0003,0.0091,0.0255,0.0582,0.0928,0.0978,0.0667,0.0396,0.0332,0.0244,0.0299,0.0198,0.0005,0.0475,0.0453,0.0398,0.0324,0.028,0.0277,0.0308,0.0338,0.036,0.0357,0.0321,0.0269,0.0239,0.0244,0.0253,0.0247,0.0239,0.0231,0.0225,0.0217,0.0203,0.0184,0.0173,0.0176,0.0195,0.022,0.0244,0.0231,0.0157,0.0044,-0.0049,-0.0107,-0.014,-0.0159,-0.0176,-0.0157,0.0099,0.0736,0.1167,0.1115,0.0731,0.0368,0.042,0.0516,0.0456,0.0332,0.0168,0.0489,0.047,0.0423,0.0357,0.0299,0.0269,0.0272,0.0294,0.0316,0.0313,0.0286,0.0253,0.0242,0.0258,0.0269,0.0266,0.0258,0.0253,0.025,0.0242,0.022,0.0187,0.0159,0.0154,0.0173,0.0206,0.0231,0.0198,0.0088,-0.0033,-0.0107,-0.0148,-0.0181,-0.0217,-0.0272,-0.025,0.0162,0.0917,0.1217,0.1225,0.0948,0.0618,0.0341,0.0346,0.0319,0.0255,0.0203,0.0492,0.0486,0.0464,0.042,0.0363,0.0297,0.0247,0.0244,0.0269,0.0283,0.0272,0.0255,0.0258,0.0275,0.0288,0.0291,0.0283,0.0275,0.0272,0.0261,0.0236,0.0195,0.0157,0.0143,0.0157,0.0187,0.0195,0.0126,-0.0016,-0.0115,-0.0143,-0.0165,-0.0181,-0.019,-0.0148,0.0118,0.0574,0.1033,0.1156,0.1233,0.0846,0.0379,-0.0011,-0.0173,-0.0214,-0.0231,-0.019,0.0478,0.0492,0.0492,0.0475,0.0428,0.0341,0.0253,0.022,0.0236,0.0261,0.0269,0.0266,0.0275,0.0291,0.0308,0.0313,0.0302,0.0294,0.0288,0.0277,0.025,0.0209,0.0165,0.0143,0.0148,0.0157,0.0126,0.0011,-0.0137,-0.0173,-0.0162,-0.0165,-0.0173,-0.0093,0.0203,0.0467,0.0882,0.0964,0.0802,0.067,0.0288,-0.0022,-0.0538,-0.0915,-0.1041,-0.1074,-0.0986,0.0459,0.0486,0.05,0.0497,0.0459,0.0379,0.0286,0.0228,0.0228,0.025,0.0266,0.0275,0.0288,0.0305,0.0321,0.0327,0.0324,0.0316,0.031,0.0297,0.0266,0.022,0.0173,0.0143,0.0129,0.0102,0.0016,-0.0137,-0.0225,-0.0211,-0.0184,-0.0165,-0.0008,0.0168,0.0335,0.0426,0.0725,0.0824,0.0516,0.0305,0.0124,-0.0206,-0.0937,-0.1566,-0.1832,-0.1901,-0.1796,0.0434,0.0475,0.0497,0.0497,0.0461,0.0393,0.0316,0.0255,0.0233,0.0244,0.0266,0.028,0.0299,0.0316,0.033,0.0335,0.0341,0.0343,0.0343,0.0324,0.0288,0.0233,0.0181,0.0135,0.0085,0.0008,-0.0129,-0.0275,-0.0321,-0.0297,-0.0179,0.0055,0.0294,0.0253,0.0137,0.0346,0.0555,0.0791,0.0508,0.0206,0.0181,-0.019,-0.1035,-0.184,-0.2217,-0.2239,-0.2057,0.0396,0.0448,0.0483,0.0492,0.0459,0.0398,0.0338,0.0288,0.0255,0.025,0.0269,0.0288,0.0305,0.0319,0.0327,0.0338,0.0357,0.0374,0.0379,0.0354,0.0313,0.0255,0.0195,0.0118,0.0016,-0.0121,-0.0305,-0.0467,-0.053,-0.0299,0.0033,0.0299,0.0261,0.0058,0.0071,0.0222,0.053,0.0772,0.0486,0.0118,0.0099,-0.0217,-0.1063,-0.1884,-0.2274,-0.2244,-0.1969]}],[{"header":{"parameterUnit":"m.s-1","parameterCategory":2,"la1":30.8641,"la2":29.7642,"lo1":-88.4676,"lo2":-86.9344,"dx":0.0333,"dy":0.0333,"nx":47,"ny":34,"refTime":"2022-11-16T00:00:00:Z","depth":"25","parameterNumber":2,"parameterNumberName":"U-component_of_CURRENTS"},"data":[0,0,0,0,0,0,0,0,0,0,0,0,0,0,0,0,0,0,0,0,0,0,0,0,0,0,0,0,0,0,0,0,0,0,0,0,0,0,0,0,0,0,0,0,0,0,0,0,0,0,0,0,0,0,0,0,0,0,0,0,0,0,0,0,0,0,0,0,0,0,0,0,0,0,0,0,0,0,0,0,0,0,0,0,0,0,0,0,0,0,0,0,0,0,0,0,0,0,0,0,0,0,0,0,0,0,0,0,0,0,0,0,0,0,0,0,0,0,0,0,0,0,0,0,0,0,0,0,0,0,0,0,0,0,0,0,0,0,0,0,0,0,0,0,0,0,0,0,0,0,0,0,0,0,0,0,0,0,0,0,0,0,0,0,0,0,0,0,0,0,0,0,0,0,0,0,0,0,0,0,0,0,0,0,0,0,0,0,0,0,0,0,0,0,0,0,0,0,0,0,0,0,0,0,0,0,0,0,0,0,0,0,0,0,0,0,0,0,0,0,0,0,0,0,0,0,0,0,0,0,0,0,0,0,0,0,0,0,0,0,0,0,0,0,0,0,0,0,0,0,0,0,0,0,0,0,0,0,0,0,0,0,0,0,0,0,0,0,0,0,0,0,0,0,0,0,0,0,0,0,0,0,0,0,0,0,0,0,0,0,0,0,0,0,0,0,0,0,0,0,0,0,0,0,0,0,0,0,0,0,0,0,0,0,0,0,0,0,0,0,0,0,0,0,0,0,0,0,0,0,0,0,0,0,0,0,0,0,0,0,0,0,0,0,0,0,0,0,0,0,0,0,0,0,0,0,0,0,0,0,0,0,0,0,0,0,0,0,0,0,0,0,0,0,0,0,0,0,0,0,0,0,0,0,0,0,0,0,0,0,0,0,0,0,0,0,0,0,0,0,0,0,0,0,0,0,0,0,0,0,0,0,0,0,0,0,0,0,0,0,0,0,0,0,0,0,0,0,0,0,0,0,0,0,0,0,0,0,0,0,0,0,0,0,0,0,0,0,0,0,0,0,0,0,0,0,0,0,0,0,0,0,0,0,0,0,0,0,0,0,0,0,0,0,0,0,0,0,0,0,0,0,0,0,0,0,0,0,0,0,0,0,0,0,0,0,0,0,0,0,0,0,0,0,0,0,0,0,0,0,0,0,0,0,0,0,0,0,0,0,0,0,0,0,0,0,0,0,0,0,0,0,0,0,0,0,0,0,0,0,0,0,0,0,0,0,0,0,0,0,0,0,0,0,0,0,0,0,0,0,0,0,0,0,0,0,0,0,0,0,0,0,0,0,0,0,0,0,0,0,0,0,0,0,0,0,0,0,0,0,0,0,0,0,0,0,0,0,0,0,0,0,0,0,0,0,0,0,0,0,0,0,0,0,0,0,0,0,0,0,0,0,0,0,0,0,0,0,0,0,0,0,0,0,0,0,0,0,0,0,0,0,0,0,0,0,0,0,0,0,0,0,0,0,0,0,0,0,0,0,0,0,0,0,0,0,0,0,0,0,0,0,0,0,0,0,0,0,0,0,0,0,0,0,0,0,0,0,0,0,0,0,0,0,0,0,0,0,0,0,0,0,0,0,0,0,0,0,0,0,0,0,0,0,0,0,0,0,0,0,0,0,0,0,0,0,0,0,0,0,0,0,0,0,0,0,0,0,0,0,0,0,0,0,0,0,0,0,0,0,0,0,0,0,0,0,0,0,0,0,0,0,0,0,0,0,0,0,0,0,0,0,0,0,0,0,0,0,0,0,0,0,0,0,0,0,0,0,0,0,0,0,0,0,0,0,0,0,0,0,0,0,0,0,0,0,0,0,0,0,0,0,0,0,0,0,0,0,0,0,0,0,0,0,0,0,0,0,0,0,0,0,0,0,0,0,0,0,0,0,0,0,0,0,0,0,0,0,0,0,0,0,0,0,0,0,0,0,0,0,0,0,0,0,0,0,0,0,0,0,0,0,0,0,0,0,0,0,0,0,0,0,0,0,0,0,0,0,0,0,0,0,0,0,0,0,0,0,0,0,0,0,0,0,0,0,0,0,0,0,0,0,0,0,0,0,0,0,0,0,0,0,0,0,0,0,0,0,0,0,0,0,0,0,0,0,0,0.0604,0.0588,0.0571,0,0,0,0,0,0,0,0,0,0,0,0,0,0,0,0,0,0,0,0,0,0,0,0,0,0,0,0,0,0,0,0,0,0,0,0,0,0,0,0.0379,0.0428,0.0478,0.0519,0.0541,0.0536,0.0508,0.0494,0,0,0,0,0,0,0,0,0,0,0,0,0,0,0,0,0,0,0,0,0,0,0,0,0,0,0,0,0,0,0,0,0,0,0,0,0,0,0.0211,0.0244,0.0299,0.0365,0.0407,0.0412,0.039,0.0363,0.036,0,0,0,0,0,0,0,0,0,0,0,0,0,0,0,0,0,0,0,0,0,0,0,0,0,0,0,0,0,0,0,0,0,0,0,0,0,0.0047,0.0104,0.0157,0.019,0.0203,0.0192,0.0143,0.0069,0.0019,0.0049,0,0,0,0,0,0,0,0,0,0,0,0,0,0,0,0,0,0,0,0,0,0,0,0,0,0,0,0,0,0,0,0,0,-0.0124,-0.0148,-0.0148,-0.011,-0.0038,0.0047,0.011,0.0126,0.0104,0.0066,0.0033,0.0173,0.0398,0.0571,0,0,0,0,0,0,0,0,0,0,0,0,0,0,0,0,0,0,0,0,0,0,0,0,0,0,0,0,0,0.0003,-0.0036,-0.0088,-0.0148,-0.0203,-0.0242,-0.0236,-0.0168,-0.0052,0.0082,0.0198,0.0258,0.0272,0.031,0.0442,0.0673,0.0805,0.0884,0,0,0,0,0,0,0,0,0,0,0,0,0,0,0,0,0,0,0,0,0,0,0,0,0,0,-0.0019,-0.0008,-0.0005,-0.0027,-0.0074,-0.0135,-0.0203,-0.0269,-0.0316,-0.0324,-0.0291,-0.0225,-0.0091,0.0113,0.0286,0.0437,0.0637,0.0926,0.1074,0.089,0.0739,-0.0225,-0.0195,-0.0173,-0.0162,-0.0157,-0.0154,-0.0146,0,0,0,0,0,0,0,0,0,0,0,0,0,0,0,0,-0.0033,-0.0036,-0.0033,-0.0022,-0.0014,-0.0025,-0.0071,-0.0135,-0.0198,-0.0264,-0.0332,-0.0401,-0.0503,-0.0643,-0.0676,-0.0434,0.0022,0.0401,0.0758,0.0895,0.0835,0.0786,0.07,0.0467,-0.0247,-0.0231,-0.0211,-0.0184,-0.0154,-0.0132,-0.0132,-0.0143,-0.0162,-0.019,-0.022,-0.0231,0,0,0,0,0,-0.0115,-0.0088,-0.006,-0.0036,-0.0019,-0.0014,-0.0016,-0.0022,-0.0022,-0.0016,-0.0019,-0.0058,-0.0132,-0.0206,-0.0258,-0.0302,-0.0363,-0.0478,-0.0659,-0.0772,-0.0588,-0.0173,0.0371,0.0709,0.0714,0.0596,0.061,0.05,0.0313,0.003,-0.0288,-0.0275,-0.025,-0.0206,-0.0151,-0.0113,-0.0107,-0.0135,-0.017,-0.0201,-0.0222,-0.0228,-0.0211,-0.0192,-0.0176,-0.0154,-0.0129,-0.0104,-0.008,-0.0055,-0.003,-0.0014,-0.0008,-0.0008,-0.0014,-0.0014,-0.0019,-0.0052,-0.0124,-0.0214,-0.0277,-0.0299,-0.0308,-0.0313,-0.0308,-0.0255,-0.0115,0.0159,0.0445,0.0596,0.0538,0.058,0.0602,0.0525,0.0415,0.0198,-0.0107,-0.0313,-0.0305,-0.0283,-0.0239,-0.0181,-0.0132,-0.0113,-0.0124,-0.0154,-0.0181,-0.0195,-0.0198,-0.019,-0.0176,-0.0165,-0.0148,-0.0129,-0.0104,-0.0082,-0.0066,-0.0049,-0.0036,-0.0025,-0.0016,-0.0016,-0.0025,-0.0058,-0.0124,-0.022,-0.0305,-0.0343,-0.0343,-0.0327,-0.0286,-0.0165,0.0096,0.045,0.0783,0.0873,0.0983,0.1077,0.1195,0.0994,0.0717,0.0522,0.0277,-0.003,-0.0299,-0.0297,-0.0283,-0.0255,-0.022,-0.0181,-0.0151,-0.0137,-0.0146,-0.0159,-0.0173,-0.0176,-0.0176,-0.0173,-0.0162,-0.0148,-0.0132,-0.011,-0.0091,-0.0074,-0.0063,-0.0052,-0.0041,-0.0033,-0.0036,-0.006,-0.0126,-0.0225,-0.033,-0.0393,-0.0404,-0.0393,-0.0382,-0.0343,-0.0233,0.0113,0.0533,0.0728,0.0964,0.1236,0.125,0.136,0.1412,0.0964,0.0582,0.0299,0.0069,-0.0253,-0.0253,-0.0244,-0.0231,-0.022,-0.0206,-0.0187,-0.0162,-0.0151,-0.0157,-0.0165,-0.017,-0.0173,-0.017,-0.0162,-0.0151,-0.0137,-0.0115,-0.0091,-0.0069,-0.0049,-0.0038,-0.0033,-0.0036,-0.0055,-0.0113,-0.0214,-0.0335,-0.0434,-0.0481,-0.0508,-0.053,-0.0497,-0.0354,0.0033,0.0146,0.033,0.0687,0.0813,0.1014,0.1132,0.1302,0.1294,0.103,0.0514,0.0091,-0.0074,-0.0201,-0.0203,-0.0195,-0.019,-0.0195,-0.0203,-0.0198,-0.0181,-0.0162,-0.0157,-0.0159,-0.0162,-0.0165,-0.0162,-0.0159,-0.0154,-0.0143,-0.0118,-0.0085,-0.0055,-0.0027,-0.0011,-0.0003,-0.0011,-0.0058,-0.0154,-0.0286,-0.042,-0.0547,-0.0665,-0.0709,-0.0678,-0.0371,0.0025,0.0176,0.0126,0.0192,0.0453,0.0626,0.0753,0.0953,0.1151,0.1252,0.109,0.0536,0.0027,-0.0264,-0.0159,-0.0179,-0.0187,-0.0184,-0.0184,-0.0187,-0.019,-0.0184,-0.0165,-0.0151,-0.0148,-0.0148,-0.0148,-0.0151,-0.0154,-0.0157,-0.0146,-0.0121,-0.0085,-0.0047,-0.0019,0.0003,0.0016,0.0014,-0.0044,-0.0162,-0.0324,-0.0525,-0.0761,-0.0873,-0.0961,-0.0912,-0.0527,-0.008,-0.003,-0.0019,0.0082,0.0201,0.0341,0.0437,0.0544,0.0764,0.097,0.103,0.0623,0.008,-0.0184]},{"header":{"parameterUnit":"m.s-1","parameterCategory":2,"la1":30.8641,"la2":29.7642,"lo1":-88.4676,"lo2":-86.9344,"dx":0.0333,"dy":0.0333,"nx":47,"ny":34,"refTime":"2022-11-16T00:00:00:Z","depth":"25","parameterNumber":3,"parameterNumberName":"V-component_of_CURRENTS"},"data":[0,0,0,0,0,0,0,0,0,0,0,0,0,0,0,0,0,0,0,0,0,0,0,0,0,0,0,0,0,0,0,0,0,0,0,0,0,0,0,0,0,0,0,0,0,0,0,0,0,0,0,0,0,0,0,0,0,0,0,0,0,0,0,0,0,0,0,0,0,0,0,0,0,0,0,0,0,0,0,0,0,0,0,0,0,0,0,0,0,0,0,0,0,0,0,0,0,0,0,0,0,0,0,0,0,0,0,0,0,0,0,0,0,0,0,0,0,0,0,0,0,0,0,0,0,0,0,0,0,0,0,0,0,0,0,0,0,0,0,0,0,0,0,0,0,0,0,0,0,0,0,0,0,0,0,0,0,0,0,0,0,0,0,0,0,0,0,0,0,0,0,0,0,0,0,0,0,0,0,0,0,0,0,0,0,0,0,0,0,0,0,0,0,0,0,0,0,0,0,0,0,0,0,0,0,0,0,0,0,0,0,0,0,0,0,0,0,0,0,0,0,0,0,0,0,0,0,0,0,0,0,0,0,0,0,0,0,0,0,0,0,0,0,0,0,0,0,0,0,0,0,0,0,0,0,0,0,0,0,0,0,0,0,0,0,0,0,0,0,0,0,0,0,0,0,0,0,0,0,0,0,0,0,0,0,0,0,0,0,0,0,0,0,0,0,0,0,0,0,0,0,0,0,0,0,0,0,0,0,0,0,0,0,0,0,0,0,0,0,0,0,0,0,0,0,0,0,0,0,0,0,0,0,0,0,0,0,0,0,0,0,0,0,0,0,0,0,0,0,0,0,0,0,0,0,0,0,0,0,0,0,0,0,0,0,0,0,0,0,0,0,0,0,0,0,0,0,0,0,0,0,0,0,0,0,0,0,0,0,0,0,0,0,0,0,0,0,0,0,0,0,0,0,0,0,0,0,0,0,0,0,0,0,0,0,0,0,0,0,0,0,0,0,0,0,0,0,0,0,0,0,0,0,0,0,0,0,0,0,0,0,0,0,0,0,0,0,0,0,0,0,0,0,0,0,0,0,0,0,0,0,0,0,0,0,0,0,0,0,0,0,0,0,0,0,0,0,0,0,0,0,0,0,0,0,0,0,0,0,0,0,0,0,0,0,0,0,0,0,0,0,0,0,0,0,0,0,0,0,0,0,0,0,0,0,0,0,0,0,0,0,0,0,0,0,0,0,0,0,0,0,0,0,0,0,0,0,0,0,0,0,0,0,0,0,0,0,0,0,0,0,0,0,0,0,0,0,0,0,0,0,0,0,0,0,0,0,0,0,0,0,0,0,0,0,0,0,0,0,0,0,0,0,0,0,0,0,0,0,0,0,0,0,0,0,0,0,0,0,0,0,0,0,0,0,0,0,0,0,0,0,0,0,0,0,0,0,0,0,0,0,0,0,0,0,0,0,0,0,0,0,0,0,0,0,0,0,0,0,0,0,0,0,0,0,0,0,0,0,0,0,0,0,0,0,0,0,0,0,0,0,0,0,0,0,0,0,0,0,0,0,0,0,0,0,0,0,0,0,0,0,0,0,0,0,0,0,0,0,0,0,0,0,0,0,0,0,0,0,0,0,0,0,0,0,0,0,0,0,0,0,0,0,0,0,0,0,0,0,0,0,0,0,0,0,0,0,0,0,0,0,0,0,0,0,0,0,0,0,0,0,0,0,0,0,0,0,0,0,0,0,0,0,0,0,0,0,0,0,0,0,0,0,0,0,0,0,0,0,0,0,0,0,0,0,0,0,0,0,0,0,0,0,0,0,0,0,0,0,0,0,0,0,0,0,0,0,0,0,0,0,0,0,0,0,0,0,0,0,0,0,0,0,0,0,0,0,0,0,0,0,0,0,0,0,0,0,0,0,0,0,0,0,0,0,0,0,0,0,0,0,0,0,0,0,0,0,0,0,0,0,0,0,0,0,0,0,0,0,0,0,0,0,0,0,0,0,0,0,0,0,0,0,0,0,0,0,0,0,0,0,0,0,0,0,0,0,0,0,0,0,0,0,0,0,0,0,0,0,0,0,0,0,0,0,0,0,0,0,0,0,0,0,0,0,0,0,0,0,0,0,0,0,0,0,0,0,0,0,0,0,0,0,0,0,0,0,0.045,0.0467,0.0415,0,0,0,0,0,0,0,0,0,0,0,0,0,0,0,0,0,0,0,0,0,0,0,0,0,0,0,0,0,0,0,0,0,0,0,0,0,0,0,0.0316,0.0294,0.0288,0.0321,0.0382,0.0426,0.0431,0.039,0,0,0,0,0,0,0,0,0,0,0,0,0,0,0,0,0,0,0,0,0,0,0,0,0,0,0,0,0,0,0,0,0,0,0,0,0,0,0.0349,0.0354,0.0341,0.0338,0.0352,0.0382,0.0407,0.0393,0.0376,0,0,0,0,0,0,0,0,0,0,0,0,0,0,0,0,0,0,0,0,0,0,0,0,0,0,0,0,0,0,0,0,0,0,0,0,0,0.0352,0.0396,0.0401,0.0393,0.0379,0.036,0.0335,0.0338,0.0299,0.0412,0,0,0,0,0,0,0,0,0,0,0,0,0,0,0,0,0,0,0,0,0,0,0,0,0,0,0,0,0,0,0,0,0,0.0168,0.019,0.025,0.0343,0.0428,0.047,0.0448,0.0398,0.0354,0.0302,0.0286,0.0407,0.0321,0.0275,0,0,0,0,0,0,0,0,0,0,0,0,0,0,0,0,0,0,0,0,0,0,0,0,0,0,0,0,0,0.0181,0.0143,0.0121,0.0124,0.0143,0.0192,0.0283,0.0398,0.05,0.0536,0.0483,0.0385,0.0313,0.0283,0.0332,0.0192,0.0005,-0.0349,0,0,0,0,0,0,0,0,0,0,0,0,0,0,0,0,0,0,0,0,0,0,0,0,0,0,0.0258,0.0244,0.0211,0.0157,0.0102,0.0074,0.0071,0.0091,0.0148,0.0258,0.0396,0.0538,0.0656,0.0632,0.0492,0.0437,0.0206,0.0055,-0.006,-0.0124,-0.0269,0.0467,0.045,0.0412,0.036,0.0324,0.0324,0.0338,0,0,0,0,0,0,0,0,0,0,0,0,0,0,0,0,0.0206,0.0225,0.0247,0.0261,0.025,0.0203,0.0126,0.0058,0.0014,-0.0005,-0.0005,0.0033,0.0107,0.025,0.0571,0.0928,0.0994,0.0607,0.0401,0.0261,0.0258,0.0308,0.0201,0.0003,0.047,0.0445,0.0393,0.0324,0.0283,0.0288,0.0321,0.0352,0.0368,0.0365,0.0327,0.0272,0,0,0,0,0,0.0228,0.0225,0.0217,0.0201,0.0187,0.0179,0.0187,0.0206,0.0233,0.0255,0.0247,0.0181,0.0088,0.0005,-0.0055,-0.0093,-0.0124,-0.0148,-0.014,0.0113,0.0747,0.1184,0.1093,0.0555,0.0264,0.0415,0.053,0.0464,0.0338,0.0176,0.0483,0.0464,0.0417,0.0349,0.0291,0.0266,0.0277,0.0305,0.0327,0.0321,0.0291,0.0255,0.0242,0.0255,0.0266,0.0264,0.0258,0.0253,0.0247,0.0239,0.0217,0.019,0.0165,0.0162,0.0184,0.0217,0.0244,0.022,0.0132,0.0036,-0.0044,-0.0104,-0.0151,-0.0195,-0.025,-0.0228,0.0179,0.0928,0.1239,0.0986,0.0709,0.0409,0.0261,0.036,0.0327,0.0264,0.0214,0.0494,0.0489,0.0464,0.0417,0.0357,0.0291,0.0247,0.025,0.0277,0.0291,0.0277,0.0261,0.0261,0.0277,0.0288,0.0291,0.0283,0.0275,0.0272,0.0261,0.0239,0.0201,0.0162,0.0151,0.0168,0.0201,0.0211,0.0159,0.0052,-0.0036,-0.0093,-0.0132,-0.0159,-0.017,-0.0143,0.0115,0.0569,0.103,0.1156,0.1041,0.0522,0.011,-0.022,-0.0209,-0.0206,-0.022,-0.0179,0.0489,0.0503,0.05,0.0481,0.0428,0.0341,0.0255,0.0222,0.0244,0.0269,0.0277,0.0275,0.028,0.0294,0.031,0.0313,0.0305,0.0297,0.0291,0.0283,0.0258,0.0217,0.0176,0.0154,0.0159,0.0173,0.0151,0.0063,-0.0058,-0.0115,-0.0129,-0.0143,-0.0162,-0.0099,0.019,0.0461,0.0879,0.0964,0.0808,0.0659,-0.003,-0.0464,-0.0871,-0.1088,-0.106,-0.106,-0.0972,0.0472,0.0503,0.0516,0.0508,0.0467,0.0385,0.0288,0.0233,0.0233,0.0258,0.0275,0.0283,0.0294,0.031,0.0324,0.033,0.0327,0.0321,0.0319,0.0308,0.0277,0.0233,0.019,0.0159,0.0146,0.0124,0.0055,-0.0069,-0.0165,-0.017,-0.0165,-0.017,-0.0069,0.0154,0.0335,0.0431,0.0728,0.0832,0.0525,0.033,-0.0206,-0.0717,-0.1393,-0.1879,-0.1934,-0.1868,-0.1777,0.0448,0.0489,0.0514,0.0511,0.0472,0.0401,0.0324,0.0261,0.0239,0.0253,0.0272,0.0288,0.0305,0.0321,0.0335,0.0343,0.0349,0.0352,0.0352,0.0335,0.0299,0.025,0.0201,0.0151,0.0104,0.0036,-0.0077,-0.0214,-0.0283,-0.0297,-0.0412,-0.0288,0.0025,0.0231,0.014,0.0354,0.056,0.0799,0.0516,0.022,0.0069,-0.0626,-0.1483,-0.2184,-0.2392,-0.2162,-0.2005,0.0409,0.0461,0.05,0.0508,0.0472,0.0412,0.0349,0.0294,0.0261,0.0258,0.0275,0.0294,0.0313,0.0327,0.0338,0.0352,0.0368,0.0387,0.039,0.0365,0.0324,0.0269,0.0211,0.0137,0.0036,-0.0093,-0.0261,-0.0431,-0.0514,-0.0527,-0.0439,-0.0132,0.0082,0.0058,0.0074,0.0231,0.0538,0.0777,0.0494,0.0126,0.0104,-0.033,-0.1335,-0.2098,-0.2324,-0.2098,-0.1862]}]]